[[{"header":{"parameterUnit":"m.s-1","parameterCategory":1,"la1":30.6,"la2":29.2853,"lo1":-89.7004,"lo2":-87.6739,"dy":0.0162,"dx":0.0183,"nx":112,"ny":82,"refTime":"2023-06-30T12:00:00:Z","depth":0,"parameterNumber":2,"parameterNumberName":"U-component_of_WINDS"},"data":[0.0,0.0,0.0,0.0,0.0,0.0,0.0,0.0,0.0,0.0,0.0,0.0,0.0,0.0,0.0,0.0,0.0,0.0,0.0,0.0,0.0,0.0,0.0,0.0,0.0,0.0,0.0,0.0,0.0,0.0,0.0,0.0,0.0,0.0,0.0,0.0,0.0,0.0,0.0,0.0,0.0,0.0,0.0,0.0,0.0,0.0,0.0,0.0,0.0,0.0,0.0,0.0,0.0,0.0,0.0,0.0,0.0,0.0,0.0,0.0,0.0,0.0,0.0,0.0,0.0,0.0,0.0,0.0,0.0,0.0,0.0,0.0,0.0,0.0,0.0,0.0,0.0,0.0,0.0,0.0,0.0,0.0,0.0,0.0,0.0,0.0,0.0,0.0,0.0,0.0,0.0,-2.9566,-3.5541,-3.9257,-3.978,-3.7466,-3.3335,-2.7019,0.0,0.0,0.0,0.0,0.0,0.0,0.0,0.0,0.0,0.0,0.0,0.0,0.0,0.0,0.0,0.0,0.0,0.0,0.0,0.0,0.0,0.0,0.0,0.0,0.0,0.0,0.0,0.0,0.0,0.0,0.0,0.0,0.0,0.0,0.0,0.0,0.0,0.0,0.0,0.0,0.0,0.0,0.0,0.0,0.0,0.0,0.0,0.0,0.0,0.0,0.0,0.0,0.0,0.0,0.0,0.0,0.0,0.0,0.0,0.0,0.0,0.0,0.0,0.0,0.0,0.0,0.0,0.0,0.0,0.0,0.0,0.0,0.0,0.0,0.0,0.0,0.0,0.0,0.0,0.0,0.0,0.0,0.0,0.0,0.0,0.0,0.0,0.0,0.0,0.0,0.0,0.0,0.0,0.0,0.0,0.0,0.0,0.0,0.0,0.0,0.0,0.0,0.0,0.0,-2.5814,-3.43,-3.7938,-3.954,-3.9028,-3.6029,-3.2059,-2.7079,0.0,0.0,0.0,0.0,0.0,0.0,0.0,0.0,0.0,0.0,0.0,0.0,0.0,0.0,0.0,0.0,0.0,0.0,0.0,0.0,0.0,0.0,0.0,0.0,0.0,0.0,0.0,0.0,0.0,0.0,0.0,0.0,0.0,0.0,0.0,0.0,0.0,0.0,0.0,0.0,0.0,0.0,0.0,0.0,0.0,0.0,0.0,0.0,0.0,0.0,0.0,0.0,0.0,0.0,0.0,0.0,0.0,0.0,0.0,0.0,0.0,0.0,0.0,0.0,0.0,0.0,0.0,0.0,0.0,0.0,0.0,0.0,0.0,0.0,0.0,0.0,0.0,0.0,0.0,0.0,0.0,0.0,0.0,0.0,0.0,0.0,0.0,0.0,0.0,0.0,0.0,0.0,0.0,0.0,0.0,0.0,0.0,0.0,0.0,0.0,0.0,0.0,0.0,-2.4487,-3.0123,-3.6287,-3.8345,-3.9151,-3.8787,-3.5707,-3.1574,-2.6364,-2.4403,0.0,0.0,0.0,0.0,0.0,0.0,0.0,0.0,0.0,0.0,0.0,0.0,0.0,0.0,0.0,0.0,0.0,0.0,0.0,0.0,0.0,0.0,0.0,0.0,0.0,0.0,0.0,0.0,0.0,0.0,0.0,0.0,0.0,0.0,0.0,0.0,0.0,0.0,0.0,0.0,0.0,0.0,0.0,0.0,0.0,0.0,0.0,0.0,0.0,0.0,0.0,0.0,0.0,0.0,0.0,0.0,0.0,0.0,0.0,0.0,0.0,0.0,0.0,0.0,0.0,0.0,0.0,0.0,0.0,0.0,0.0,0.0,0.0,0.0,0.0,0.0,0.0,0.0,0.0,0.0,0.0,0.0,0.0,0.0,0.0,0.0,0.0,0.0,0.0,0.0,0.0,0.0,0.0,0.0,0.0,0.0,0.0,0.0,0.0,0.0,0.0,0.0,-2.8263,-3.2668,-3.6772,-3.7993,-3.8397,-3.8157,-3.511,-3.0919,-2.5466,-2.2841,0.0,0.0,0.0,0.0,0.0,0.0,0.0,0.0,0.0,0.0,0.0,0.0,0.0,0.0,0.0,0.0,0.0,0.0,0.0,0.0,0.0,0.0,0.0,0.0,0.0,0.0,0.0,0.0,0.0,0.0,0.0,0.0,0.0,0.0,0.0,0.0,0.0,0.0,0.0,0.0,0.0,0.0,0.0,0.0,0.0,0.0,0.0,0.0,0.0,0.0,0.0,0.0,0.0,0.0,0.0,0.0,0.0,0.0,0.0,0.0,0.0,0.0,0.0,0.0,0.0,0.0,0.0,0.0,0.0,0.0,0.0,0.0,0.0,0.0,0.0,0.0,0.0,0.0,0.0,0.0,0.0,0.0,0.0,0.0,0.0,0.0,0.0,0.0,0.0,0.0,0.0,0.0,0.0,0.0,0.0,0.0,0.0,0.0,0.0,0.0,0.0,0.0,-2.719,-3.1115,-3.5877,-3.7107,-3.729,-3.6523,-3.3458,-2.9487,-2.4593,-2.196,0.0,0.0,0.0,0.0,0.0,0.0,0.0,0.0,0.0,0.0,0.0,0.0,0.0,0.0,0.0,0.0,0.0,0.0,0.0,0.0,0.0,0.0,0.0,0.0,0.0,0.0,0.0,0.0,0.0,0.0,0.0,0.0,0.0,0.0,0.0,0.0,0.0,0.0,0.0,0.0,0.0,0.0,0.0,0.0,0.0,0.0,0.0,0.0,0.0,0.0,0.0,0.0,0.0,0.0,0.0,0.0,0.0,0.0,0.0,0.0,0.0,0.0,0.0,0.0,0.0,0.0,0.0,0.0,0.0,0.0,0.0,0.0,0.0,0.0,0.0,0.0,0.0,0.0,0.0,0.0,0.0,0.0,0.0,0.0,0.0,0.0,0.0,0.0,0.0,0.0,0.0,0.0,0.0,0.0,0.0,0.0,0.0,0.0,0.0,0.0,0.0,0.0,-2.7232,-3.0961,0.0,-3.5684,-3.6048,-3.4156,-3.2394,-2.9138,-2.3786,0.0,0.0,0.0,0.0,0.0,0.0,0.0,0.0,0.0,0.0,0.0,0.0,0.0,0.0,0.0,0.0,0.0,0.0,0.0,0.0,0.0,0.0,0.0,0.0,0.0,0.0,0.0,0.0,0.0,0.0,0.0,0.0,0.0,0.0,0.0,0.0,0.0,0.0,0.0,0.0,0.0,0.0,0.0,0.0,0.0,0.0,0.0,0.0,0.0,0.0,0.0,0.0,0.0,0.0,0.0,0.0,0.0,0.0,0.0,0.0,0.0,0.0,0.0,0.0,0.0,0.0,0.0,0.0,0.0,0.0,0.0,0.0,0.0,0.0,0.0,0.0,0.0,0.0,0.0,0.0,0.0,0.0,0.0,0.0,0.0,0.0,0.0,0.0,0.0,0.0,0.0,0.0,0.0,0.0,0.0,0.0,0.0,0.0,0.0,0.0,0.0,0.0,-2.2701,-2.7288,-3.0924,0.0,-3.438,-3.4669,-3.2412,-3.0999,-2.8062,-2.2942,0.0,0.0,0.0,0.0,0.0,0.0,0.0,0.0,0.0,0.0,0.0,0.0,0.0,0.0,0.0,0.0,0.0,0.0,0.0,0.0,0.0,0.0,0.0,0.0,0.0,0.0,0.0,0.0,0.0,0.0,0.0,0.0,0.0,0.0,0.0,0.0,0.0,0.0,0.0,0.0,0.0,0.0,0.0,0.0,0.0,0.0,0.0,0.0,0.0,0.0,0.0,0.0,0.0,0.0,0.0,0.0,0.0,0.0,0.0,0.0,0.0,0.0,0.0,0.0,0.0,0.0,0.0,0.0,0.0,0.0,0.0,0.0,0.0,0.0,0.0,0.0,0.0,0.0,0.0,0.0,0.0,0.0,0.0,0.0,0.0,0.0,0.0,0.0,0.0,0.0,0.0,0.0,0.0,0.0,0.0,0.0,0.0,0.0,0.0,0.0,0.0,0.0,-2.2673,-2.7195,-3.0797,-3.2381,-3.3293,-3.3109,-3.1507,-2.9157,-2.6072,0.0,0.0,0.0,0.0,0.0,0.0,0.0,0.0,0.0,0.0,0.0,0.0,0.0,0.0,0.0,0.0,0.0,0.0,0.0,0.0,0.0,0.0,0.0,0.0,0.0,0.0,0.0,0.0,0.0,0.0,0.0,0.0,0.0,0.0,0.0,0.0,0.0,0.0,0.0,0.0,0.0,0.0,0.0,0.0,0.0,0.0,0.0,0.0,0.0,0.0,0.0,0.0,0.0,0.0,0.0,0.0,0.0,0.0,0.0,0.0,0.0,0.0,0.0,0.0,0.0,0.0,0.0,0.0,0.0,0.0,0.0,0.0,0.0,0.0,0.0,0.0,0.0,0.0,0.0,0.0,0.0,0.0,0.0,0.0,0.0,0.0,0.0,0.0,0.0,0.0,0.0,0.0,0.0,0.0,0.0,0.0,0.0,0.0,0.0,0.0,0.0,0.0,0.0,0.0,-2.6366,-2.9537,-3.0014,-3.1292,-3.1231,-2.9046,-2.7695,-2.5217,-2.1135,0.0,0.0,0.0,0.0,0.0,0.0,0.0,0.0,0.0,0.0,0.0,0.0,0.0,0.0,0.0,0.0,0.0,0.0,0.0,0.0,0.0,0.0,0.0,0.0,0.0,0.0,0.0,0.0,0.0,0.0,0.0,0.0,0.0,0.0,0.0,0.0,0.0,0.0,0.0,0.0,0.0,0.0,0.0,0.0,0.0,0.0,0.0,0.0,0.0,0.0,0.0,0.0,0.0,0.0,0.0,0.0,0.0,0.0,0.0,0.0,0.0,0.0,0.0,0.0,0.0,0.0,0.0,0.0,0.0,0.0,0.0,0.0,0.0,0.0,0.0,0.0,0.0,0.0,0.0,0.0,0.0,0.0,0.0,0.0,0.0,0.0,0.0,0.0,0.0,0.0,0.0,0.0,0.0,0.0,0.0,0.0,0.0,0.0,0.0,0.0,0.0,0.0,-2.1591,-2.5742,-2.8638,-2.8968,-2.9879,-2.9604,-2.7493,-2.6576,-2.4667,-2.1235,0.0,0.0,0.0,0.0,0.0,0.0,0.0,0.0,0.0,0.0,0.0,0.0,0.0,0.0,0.0,0.0,0.0,0.0,0.0,0.0,0.0,0.0,0.0,0.0,0.0,0.0,0.0,0.0,0.0,0.0,0.0,0.0,0.0,0.0,0.0,0.0,0.0,0.0,0.0,0.0,0.0,0.0,0.0,0.0,0.0,0.0,0.0,0.0,0.0,0.0,0.0,0.0,0.0,0.0,0.0,0.0,0.0,0.0,0.0,0.0,0.0,0.0,0.0,0.0,0.0,0.0,0.0,0.0,0.0,0.0,0.0,0.0,0.0,0.0,0.0,0.0,0.0,0.0,0.0,0.0,0.0,0.0,0.0,0.0,0.0,0.0,0.0,0.0,0.0,0.0,0.0,0.0,0.0,0.0,0.0,0.0,0.0,0.0,0.0,0.0,0.0,0.0,-2.1581,-2.5311,-2.8117,-2.8913,-2.8932,-2.8271,-2.673,-2.5797,-2.4291,-2.1941,0.0,0.0,0.0,0.0,0.0,0.0,0.0,0.0,0.0,0.0,0.0,0.0,0.0,0.0,0.0,0.0,0.0,0.0,0.0,0.0,0.0,0.0,0.0,0.0,0.0,0.0,0.0,0.0,0.0,0.0,0.0,0.0,0.0,0.0,0.0,0.0,0.0,0.0,0.0,0.0,0.0,0.0,0.0,0.0,0.0,0.0,0.0,0.0,0.0,0.0,0.0,0.0,0.0,0.0,0.0,0.0,0.0,0.0,0.0,0.0,-2.83,0.0,0.0,0.0,0.0,0.0,0.0,0.0,0.0,0.0,0.0,0.0,0.0,0.0,0.0,0.0,0.0,0.0,0.0,0.0,0.0,0.0,0.0,0.0,0.0,0.0,0.0,0.0,0.0,0.0,0.0,0.0,0.0,0.0,0.0,0.0,0.0,0.0,0.0,0.0,0.0,0.0,-2.1582,-2.5301,-2.8117,-2.8913,-2.8429,-2.7658,-2.6675,-2.5273,-2.3704,-2.1904,0.0,0.0,0.0,0.0,0.0,0.0,0.0,0.0,0.0,0.0,0.0,0.0,0.0,0.0,0.0,0.0,0.0,0.0,0.0,0.0,0.0,0.0,0.0,0.0,0.0,0.0,0.0,0.0,0.0,0.0,0.0,0.0,0.0,0.0,0.0,0.0,0.0,0.0,0.0,0.0,0.0,0.0,0.0,0.0,0.0,0.0,0.0,0.0,0.0,0.0,0.0,0.0,0.0,0.0,0.0,0.0,0.0,0.0,0.0,0.0,0.0,-3.0335,0.0,0.0,0.0,0.0,0.0,0.0,0.0,0.0,0.0,0.0,0.0,0.0,0.0,0.0,0.0,0.0,0.0,0.0,0.0,0.0,0.0,0.0,0.0,0.0,0.0,0.0,0.0,0.0,0.0,0.0,0.0,0.0,0.0,0.0,0.0,0.0,0.0,0.0,0.0,0.0,-2.1629,-2.5319,-2.8117,-2.8913,-2.7934,-2.7053,-2.6649,-2.5126,-2.3841,-2.3006,-2.2235,0.0,0.0,0.0,0.0,0.0,0.0,0.0,0.0,0.0,0.0,0.0,0.0,0.0,0.0,0.0,0.0,0.0,0.0,0.0,0.0,0.0,0.0,0.0,0.0,0.0,0.0,0.0,0.0,0.0,0.0,0.0,0.0,0.0,0.0,0.0,0.0,0.0,0.0,0.0,0.0,0.0,0.0,0.0,0.0,0.0,0.0,0.0,0.0,0.0,0.0,0.0,0.0,0.0,-3.8207,-3.8732,-3.8067,-3.879,-3.8246,-3.6716,-3.6565,-3.5446,-3.3607,0.0,0.0,0.0,0.0,0.0,0.0,0.0,0.0,0.0,0.0,0.0,0.0,0.0,0.0,0.0,0.0,0.0,0.0,0.0,0.0,0.0,0.0,0.0,0.0,0.0,-2.6822,-2.6008,0.0,0.0,0.0,0.0,0.0,0.0,0.0,0.0,0.0,0.0,0.0,0.0,-2.1923,-2.5411,-2.8117,-2.8913,-2.7556,-2.6602,-2.6602,-2.5126,-2.419,-2.419,-2.2951,-2.2097,0.0,0.0,0.0,0.0,0.0,0.0,0.0,0.0,0.0,0.0,0.0,0.0,0.0,0.0,0.0,0.0,0.0,0.0,0.0,0.0,0.0,0.0,0.0,0.0,0.0,0.0,0.0,0.0,0.0,0.0,0.0,0.0,-2.8085,-2.8942,0.0,0.0,0.0,0.0,0.0,0.0,0.0,0.0,0.0,0.0,0.0,0.0,0.0,0.0,-3.832,-4.098,-4.2694,-4.3471,-4.5919,-4.7026,-4.6929,-4.7026,-4.656,-4.5564,-4.481,0.0,-3.5399,-3.4466,0.0,0.0,0.0,0.0,0.0,0.0,0.0,0.0,0.0,0.0,0.0,0.0,0.0,0.0,0.0,0.0,0.0,0.0,0.0,0.0,0.0,0.0,-3.1942,-3.2725,-3.1134,-2.9965,0.0,-2.6817,-2.2156,-2.2902,0.0,0.0,0.0,0.0,0.0,0.0,0.0,0.0,-2.2822,-2.5731,-2.8117,-2.8913,-2.7556,-2.6602,-2.6602,-2.5126,-2.419,-2.419,-2.3988,-2.3263,-2.1858,-2.3134,0.0,0.0,0.0,0.0,0.0,0.0,0.0,0.0,0.0,0.0,0.0,0.0,0.0,0.0,0.0,0.0,0.0,0.0,0.0,0.0,0.0,0.0,0.0,0.0,0.0,0.0,0.0,0.0,0.0,-2.8383,-3.0215,-3.0137,-3.1305,-3.1251,0.0,0.0,0.0,0.0,0.0,0.0,0.0,0.0,0.0,-3.8615,-4.0907,-4.2461,-4.3238,-4.6735,-4.8696,-4.9085,-5.0697,-5.1202,-5.0736,-5.0736,-5.0289,-4.9468,-4.9093,-4.6671,-4.2748,-3.9479,-3.73,-3.5799,0.0,0.0,0.0,0.0,0.0,-3.2972,-3.3546,-3.4218,0.0,0.0,0.0,0.0,0.0,0.0,0.0,0.0,0.0,0.0,0.0,0.0,0.0,-3.5412,-3.4698,-3.4141,-3.5111,-3.1426,-2.759,0.0,-2.5466,-2.4261,-2.2374,0.0,0.0,0.0,0.0,0.0,-2.4395,-2.6801,-2.8601,-2.8968,-2.7556,-2.6602,-2.6602,-2.5126,-2.419,-2.419,-2.419,-2.3878,-2.3189,-2.3823,-2.3097,0.0,0.0,0.0,0.0,0.0,0.0,0.0,0.0,0.0,0.0,0.0,0.0,0.0,0.0,0.0,0.0,0.0,0.0,0.0,0.0,0.0,0.0,0.0,0.0,0.0,0.0,0.0,0.0,-3.0828,-3.2341,-3.1736,-3.3929,-3.4419,0.0,0.0,0.0,0.0,0.0,0.0,-3.9256,-4.1024,-4.2656,-4.4132,-4.6851,-4.8527,-4.8955,-5.1901,-5.3611,-5.4038,-5.4491,-5.4355,-5.3727,-5.3727,-5.3164,-5.2173,-5.2173,-5.1183,-4.9202,-4.4481,-4.1038,-3.8634,-3.7592,-3.6211,-3.4932,-3.5784,-3.6358,-3.6828,-3.7831,-3.8483,-3.8682,-3.7657,0.0,-3.4969,-3.2786,0.0,0.0,0.0,0.0,-3.2617,-3.326,-3.4881,-3.6524,-3.73,-3.7417,-3.7368,-3.7341,-3.5296,-3.2697,0.0,-2.8801,-2.738,-2.5149,0.0,0.0,0.0,0.0,-2.6076,-2.5856,-2.7722,-2.9033,-2.9005,-2.7556,-2.6602,-2.6602,-2.5126,-2.419,-2.419,-2.419,-2.419,-2.419,-2.419,-2.363,-2.2445,0.0,0.0,0.0,0.0,0.0,0.0,0.0,0.0,0.0,0.0,0.0,0.0,0.0,0.0,0.0,0.0,0.0,0.0,0.0,0.0,0.0,0.0,0.0,0.0,0.0,0.0,0.0,0.0,0.0,-3.4313,-3.8703,0.0,0.0,0.0,0.0,-3.9174,-4.0072,-4.2034,-4.538,-4.7201,-4.9668,-5.2956,-5.4038,-5.534,-5.6997,-5.6408,-5.6894,-5.8467,-5.7748,-5.7386,-5.7347,-5.7347,-5.6408,-5.4815,-5.4815,-5.3824,-5.194,-4.8425,-4.5482,-4.3014,-4.1305,-4.0097,-3.9083,-3.7526,-3.7945,-3.9191,-3.847,-3.9282,-4.0777,-4.1467,-4.0024,-3.739,-3.4047,-3.2968,0.0,0.0,-3.296,-3.4279,-3.4325,-3.6207,-3.8259,-3.8922,-3.898,-3.8861,-3.8807,-3.7327,-3.5495,0.0,-3.1958,-3.0405,-2.9429,0.0,-2.8465,-2.607,-2.7101,-2.7811,-2.6859,-2.8162,-2.9141,-2.8998,-2.7556,-2.6602,-2.6602,-2.5126,-2.419,-2.419,-2.419,-2.419,-2.419,-2.419,-2.4153,-2.408,-2.2584,0.0,0.0,0.0,0.0,0.0,0.0,0.0,0.0,0.0,0.0,0.0,0.0,0.0,0.0,0.0,0.0,0.0,0.0,0.0,0.0,0.0,0.0,0.0,0.0,0.0,0.0,0.0,0.0,-4.0937,-4.4695,0.0,0.0,-4.3957,-4.4715,-4.6152,-4.8055,-5.0412,-5.3306,-5.5068,-5.6816,-5.8603,-5.8972,-5.9419,-6.004,-5.9749,-5.9885,-6.0461,-5.905,-5.837,-5.8331,-5.7263,-5.6427,-5.5845,-5.5845,-5.4854,-5.3151,-5.1921,-4.9582,-4.6727,-4.6095,-4.4977,-4.3714,-4.3645,-4.361,-4.3653,-4.3905,-4.3653,-4.3111,-4.226,-4.1036,-3.9643,-3.8419,-3.8052,-3.7968,-3.7665,-3.84,-3.9289,-3.9282,-4.0384,-4.1551,-4.1788,-4.1366,-4.0914,-4.0899,-3.988,-3.8624,-3.7471,-3.4846,-3.2384,-3.094,-3.1012,-3.0649,-2.8757,-2.9664,-3.0077,-2.8764,-2.9485,-2.9882,-2.9312,-2.821,-2.7311,-2.6827,-2.5715,-2.4829,-2.4367,-2.4284,-2.4266,-2.4266,-2.4228,-2.419,-2.419,-2.3648,-2.229,0.0,0.0,0.0,0.0,0.0,0.0,0.0,0.0,0.0,0.0,0.0,0.0,0.0,0.0,0.0,0.0,0.0,0.0,0.0,0.0,0.0,0.0,0.0,0.0,0.0,0.0,-4.4258,-4.6288,-5.0062,-5.1804,-5.0076,-5.0425,-5.1494,-5.3209,-5.4919,-5.6881,-5.9212,-6.037,-6.1245,-6.1827,-6.184,-6.1704,-6.1393,-6.1393,-6.1393,-6.1393,-6.0228,-5.938,-5.8758,-5.7651,-5.666,-5.5883,-5.6175,-5.5476,-5.4135,-5.4135,-5.2632,-5.0234,-4.9379,-4.8144,-4.6957,-4.7534,-4.7169,-4.6416,-4.6674,-4.6016,-4.4808,-4.335,-4.2512,-4.2028,-4.1719,-4.1641,-4.1641,-4.1641,-4.2028,-4.2434,-4.2434,-4.2879,-4.3305,-4.3305,-4.2807,-4.2284,-4.206,-4.1205,-4.0262,-3.9453,-3.7045,-3.4439,-3.2153,-3.1844,-3.1261,-2.941,-2.982,-2.9963,-2.8923,-2.9652,-2.9936,-2.9096,-2.8678,-2.8165,-2.74,-2.5977,-2.5162,-2.5253,-2.4421,-2.4164,-2.4672,-2.3879,-2.3401,-2.3391,-2.2832,-2.1877,-2.0556,0.0,0.0,0.0,0.0,0.0,0.0,0.0,0.0,0.0,0.0,0.0,0.0,0.0,0.0,0.0,0.0,0.0,0.0,0.0,0.0,0.0,0.0,0.0,-3.9936,-4.5103,-4.9163,-5.014,-5.4724,-5.7133,-5.5437,-5.6816,-5.8474,-6.0137,-6.0254,-6.1011,-6.274,-6.2779,-6.274,-6.274,-6.2682,-6.2255,-6.1412,-6.1393,-6.1393,-6.1393,-6.1373,-6.0461,-5.8797,-5.8778,-5.7399,-5.5087,-5.5922,-5.5806,-5.5009,-5.4971,-5.4446,-5.3403,-5.0936,-4.9443,-4.8675,-4.8675,-4.8107,-4.7189,-4.6208,-4.5886,-4.5757,-4.4911,-4.4632,-4.4478,-4.3634,-4.3382,-4.3382,-4.3382,-4.3382,-4.3382,-4.3382,-4.3382,-4.3382,-4.3382,-4.3219,-4.2861,-4.2215,-4.1263,-4.0357,-3.9708,-3.8546,-3.6629,-3.3398,-3.2073,-3.0624,-2.8169,-2.7768,0.0,-2.7389,-2.8744,-2.9364,-2.8407,-2.902,-2.916,-2.8315,-2.5986,-2.5224,-2.6814,-2.4649,-2.3993,-2.5486,-2.3295,-2.2025,-2.1968,-2.0307,-2.0611,-2.2988,0.0,0.0,0.0,0.0,0.0,0.0,0.0,0.0,0.0,0.0,0.0,0.0,0.0,0.0,0.0,0.0,0.0,0.0,0.0,0.0,0.0,0.0,-4.7051,-4.792,-5.1047,-5.4485,-5.7845,-6.0604,-6.2041,-6.1575,-6.1963,-6.2663,-6.3731,-6.3809,-6.4275,-6.5401,-6.4294,-6.3634,-6.3634,-6.2429,-6.1645,-6.1393,-6.1393,-6.1393,-6.1393,-6.0759,-5.9885,-5.8778,-5.8195,-5.7204,-5.5961,-5.6194,-5.5806,-5.4951,-5.431,-5.3533,-5.2678,-5.1979,-5.1216,-5.0491,-5.0491,-4.9478,-4.7798,-4.5686,-4.533,-4.5793,-4.5559,-4.5469,-4.5432,-4.5181,-4.5104,-4.5104,-4.5104,-4.5104,-4.5104,-4.5104,-4.5104,-4.5104,-4.5104,-4.4612,-4.4107,-4.391,-4.2672,-4.1518,-4.1345,-4.0043,-3.8292,-3.6118,-3.5443,-3.4551,-3.2623,-3.2667,0.0,-3.1146,-3.1817,-3.2088,-3.1194,-3.1206,-3.0777,-2.9535,-2.8605,-2.7857,0.0,-2.6487,-2.6207,-2.6637,-2.5931,-2.5486,-2.5419,-2.3722,-2.2905,0.0,0.0,0.0,0.0,0.0,0.0,0.0,0.0,0.0,0.0,0.0,0.0,0.0,0.0,0.0,0.0,0.0,0.0,0.0,0.0,0.0,0.0,-4.8788,-5.3514,-5.6194,-5.7515,-5.9419,-6.2616,-6.4216,-6.5052,-6.5052,-6.5052,-6.5246,-6.5712,-6.5751,-6.5809,-6.5945,-6.5032,-6.4003,-6.2934,-6.2274,-6.1594,-6.0856,-6.1218,-6.1393,-6.1393,-6.0895,-6.0196,-5.9322,-5.8486,-5.7437,0.0,-5.6291,-5.5806,-5.4971,-5.4446,-5.3727,0.0,0.0,0.0,0.0,0.0,-4.9411,-4.8167,-4.5938,-4.548,-4.5833,-4.5805,-4.5805,-4.5807,-4.5807,-4.5548,-4.5297,-4.5297,-4.5026,-4.4833,-4.52,-4.5297,-4.5374,-4.5729,-4.5432,-4.5007,-4.4671,-4.3518,-4.2434,-4.2067,0.0,0.0,-3.8218,-3.6716,-3.4982,-3.2897,-3.2833,-3.2661,-3.1648,-3.2476,-3.2698,-3.1495,-3.1855,-3.1553,-3.0065,-2.9078,0.0,0.0,0.0,-2.6461,-2.608,-2.5957,0.0,0.0,0.0,-2.3493,-2.4006,0.0,0.0,0.0,-2.1742,-2.0881,0.0,0.0,0.0,0.0,0.0,0.0,0.0,0.0,0.0,0.0,0.0,0.0,0.0,0.0,0.0,0.0,-5.4077,-5.8564,-6.3439,-6.3634,-6.3789,-6.518,-6.6023,-6.6508,-6.6508,-6.6508,-6.6508,-6.6508,-6.6508,-6.6159,-6.5394,0.0,0.0,0.0,0.0,-6.1652,-6.0118,-6.0953,-6.1393,-6.1393,-6.1393,-6.0934,-6.006,-5.9302,-5.804,-5.6447,-5.6447,-5.5942,-5.5145,-5.5048,-5.4427,-5.3403,-5.1824,-5.1202,-5.0989,-4.9248,-4.8596,-4.8336,-4.6574,0.0,0.0,-4.5814,-4.5786,-4.5793,-4.5793,-4.5309,-4.4748,-4.4748,-4.4188,-4.3769,-4.4523,-4.4736,-4.4929,-4.5633,-4.5807,-4.5587,-4.4891,-4.3982,-4.3073,-4.2299,-4.1409,-4.0526,-3.9642,-3.6919,-3.4088,-3.1702,-3.116,-3.1013,-3.1002,-3.2158,-3.2405,-3.0911,0.0,0.0,-3.0453,-2.8696,-2.8269,-2.9662,-2.7652,-2.6032,-2.5215,-2.5096,-2.4675,-2.3828,-2.3115,-2.3712,-2.5688,-2.5064,-2.5393,-2.6539,-2.3676,-2.2681,0.0,0.0,0.0,0.0,0.0,0.0,0.0,0.0,0.0,0.0,0.0,0.0,0.0,0.0,0.0,-5.3088,-5.7573,-6.1471,-6.4547,-6.6023,-6.6664,-6.6295,-6.6392,-6.6508,-6.6508,-6.6508,-6.6508,-6.6508,-6.6508,-6.6431,-6.6256,-6.4294,0.0,-6.2468,-6.1245,-6.0448,-6.0099,-6.0953,-6.1393,-6.1393,0.0,0.0,-6.0079,-5.9924,-5.8933,-5.7347,-5.7347,-5.6861,-5.5981,-5.5281,-5.4077,-5.2542,-5.1571,-5.1202,-5.0989,-4.9246,-4.8577,-4.827,-4.6461,-4.5833,-4.581,-4.5746,-4.5719,-4.5712,-4.5712,-4.5657,0.0,-4.5563,-4.545,-4.5362,-4.551,-4.5568,-4.5613,-4.5768,-4.5807,-4.5768,-4.5594,-4.4369,-4.3247,-4.3073,-4.1835,-4.0513,-3.9646,-3.8951,-3.8053,-3.6755,-3.5978,-3.5475,-3.5327,-3.4963,-3.4569,-3.4194,-3.3821,-3.3261,-3.2415,-3.1267,-3.0426,-3.006,-2.937,-2.8894,-2.8716,-2.8606,-2.8446,-2.8259,-2.8004,-2.7737,-2.7495,-2.8004,-2.7675,-2.6594,-2.6016,-2.5493,0.0,0.0,0.0,0.0,0.0,0.0,0.0,0.0,0.0,0.0,0.0,-4.3679,0.0,0.0,-5.4181,-5.7598,-6.1425,-6.4411,-6.5673,-6.6975,-6.748,-6.6606,-6.6897,-6.7149,-6.7149,-6.6761,-6.6683,-6.7111,-6.6742,-6.6314,-6.5868,-6.4644,-6.3381,-6.2099,-6.1633,-6.0973,-6.0099,-6.0953,-6.1393,-6.1393,-6.1393,-6.116,-6.074,-6.0293,-5.9632,-5.8804,-5.7968,-5.7347,-5.6861,-5.5534,-5.4485,-5.3572,-5.2309,-5.1552,-5.1047,-4.9726,-4.8946,-4.8348,-4.6977,-4.6194,-4.5783,-4.5719,-4.5711,-4.5708,-4.5708,-4.5441,-4.5143,-4.5143,-4.4863,-4.4639,-4.5044,-4.5153,-4.5242,-4.5653,-4.5749,-4.5749,-4.5749,-4.5085,-4.437,-4.3938,-4.3206,-4.2369,-4.15,-4.1023,-4.0146,-3.8369,-3.7764,-3.7469,-3.7364,-3.6599,-3.5874,-3.5449,-3.4599,-3.374,-3.2962,-3.1926,-3.1294,-3.1248,-3.0287,-3.0058,-3.0865,-3.0442,-3.0158,-3.009,-3.0039,-2.9547,-2.8645,-2.9018,-2.8761,-2.7903,-2.7906,-2.7243,0.0,0.0,0.0,0.0,0.0,0.0,0.0,0.0,-4.1668,-4.488,-4.8037,-5.0985,-5.3423,-5.698,-6.0099,-6.1837,-6.4571,-6.6598,-6.694,-6.7453,-6.748,-6.6606,-6.7111,-6.7557,-6.7557,-6.6916,-6.678,-6.748,-6.6897,-6.6198,-6.5491,-6.5297,-6.419,-6.1983,-6.2429,-6.1944,-6.037,-6.105,-6.1393,-6.1393,-6.1393,-6.1393,-6.1373,-6.0662,-6.0254,-6.0001,-5.8338,-5.7502,-5.723,-5.565,-5.4893,-5.4582,-5.3009,-5.1901,-5.1105,-5.0406,-4.9598,-4.8714,-4.7773,-4.6854,-4.6027,-4.5792,-4.5715,-4.5708,-4.5708,-4.5252,-4.4727,-4.4727,-4.4274,-4.3916,-4.4556,-4.4723,-4.4908,-4.5561,-4.5708,-4.5708,-4.5708,-4.5573,-4.5237,-4.4535,-4.4326,-4.402,-4.3325,-4.2665,-4.1487,-3.9267,-3.8653,-3.8396,-3.8218,-3.7439,-3.6593,-3.5781,-3.4818,-3.389,-3.3017,-3.207,-3.1792,-3.24,-3.1051,-3.0782,-3.2048,-3.1485,-3.1079,-3.0961,-3.083,-3.035,-2.9576,-2.9331,-2.9211,-2.9189,-2.913,-2.8312,-3.2419,-3.0754,-3.1129,-3.6399,-3.7813,-3.9704,0.0,0.0,-5.032,-5.2973,-5.5072,-5.6966,-5.8808,-6.0806,-6.2723,-6.4416,-6.5704,-6.7017,-6.851,-6.8194,-6.748,-6.6606,-6.6586,-6.6644,-6.6644,-6.6567,-6.6547,-6.6644,-6.6567,-6.647,-6.6353,-6.5615,-6.4741,-6.3731,-6.3051,-6.2235,-6.1257,-6.1354,-6.1393,-6.1393,-6.1393,-6.1393,-6.1393,-6.1296,-6.0837,-6.0001,-5.8338,-5.7153,-5.6369,-5.5398,-5.4543,-5.3753,-5.2776,-5.1901,-5.1183,-5.1086,-5.0503,-4.9617,-4.8684,-4.7779,-4.6894,-4.6065,-4.5742,-4.5708,-4.5708,-4.5645,-4.5574,-4.5574,-4.5491,-4.5445,-4.5542,-4.5573,-4.5592,-4.5688,-4.5708,-4.5708,-4.5708,-4.5082,-4.4515,-4.4419,-4.3821,-4.3308,-4.3231,-4.3125,-4.2723,-4.1738,-4.0313,-3.9075,-3.829,-3.7439,-3.6593,-3.5781,-3.4905,-3.4025,-3.3149,-3.2844,-3.2671,-3.2585,-3.2283,-3.2099,-3.2096,-3.2011,-3.1963,-3.1934,-3.124,-3.0768,-3.0536,-2.9706,-2.9249,-2.9189,-2.9074,-2.8562,-3.7365,-3.7251,0.0,0.0,-4.4892,-4.8193,-5.2411,-5.408,-5.5443,-5.7953,-5.9848,-6.147,-6.2723,-6.399,-6.5209,0.0,-6.7401,-6.7891,-6.7532,-6.767,-6.6936,-6.4566,-6.3847,-6.3925,-6.4955,-6.5052,-6.5052,-6.5052,-6.5479,-6.5751,-6.5751,-6.5887,-6.5362,-6.4042,-6.3653,-6.2798,-6.1412,-6.1393,-6.1393,-6.1393,-6.1393,-6.1393,-6.1373,-6.0875,-5.9904,-5.861,-5.791,-5.7114,-5.6233,-5.5359,-5.4796,-5.431,-5.2931,-5.2193,-5.1843,-5.1377,-5.0658,-4.9837,-4.9408,-4.8354,-4.7133,-4.6698,-4.6192,-4.5749,-4.5704,-4.5727,-4.5746,-4.5717,-4.5695,-4.57,-4.5695,-4.5706,-4.5679,-4.5654,-4.5646,-4.5646,-4.5646,-4.5357,-4.5098,-4.5098,-4.4853,-4.4646,-4.465,-4.4264,-4.3856,-4.3569,-4.2048,-4.0655,-3.9823,-3.8508,-3.7154,-3.5839,-3.5345,-3.4972,-3.464,-3.4036,-3.3827,-3.422,-3.3192,-3.2919,-3.3695,-3.3242,-3.2939,-3.2856,-3.2526,-3.2074,-3.1509,-3.0565,-3.0079,-2.999,-2.9389,-2.8912,-3.999,0.0,0.0,-4.6438,-5.0732,-5.4755,-5.6921,-5.8301,-5.9723,-6.1766,-6.3177,-6.428,-6.4954,-6.5777,0.0,-6.7198,-6.8094,-6.8305,-6.7243,-6.6869,-6.5619,-6.2701,-6.1167,-6.0565,-6.1109,-6.2449,-6.3471,-6.393,-6.4733,-6.52,-6.52,-6.6023,-6.5732,-6.4042,-6.4003,-6.3168,-6.1412,-6.1393,-6.1393,-6.1393,-6.1393,-6.1393,-6.1373,-6.0506,-5.9186,-5.7599,-5.7599,-5.7114,-5.6233,-5.5359,-5.4854,-5.4485,-5.2989,-5.2251,-5.1999,-5.1416,-5.0658,-4.9901,-4.984,-4.869,-4.7223,-4.7172,-4.6545,-4.5827,-4.5771,-4.5776,-4.5788,-4.5722,-4.5703,-4.5692,-4.5673,-4.5665,-4.5657,-4.5603,-4.5594,-4.5594,-4.5594,-4.5594,-4.5594,-4.5594,-4.564,-4.5673,-4.5668,-4.5198,-4.4773,-4.4578,-4.3278,-4.1957,-4.0926,-3.9069,-3.7386,-3.6168,-3.5784,-3.5643,-3.5704,-3.5025,-3.4815,-3.5365,-3.4172,-3.3902,-3.4897,-3.431,-3.3923,-3.3812,-3.3544,-3.31,-3.2461,-3.1516,-3.103,-3.0974,-3.0209,-2.9809,0.0,0.0,-4.2454,-4.908,-5.3354,-5.6805,-6.019,-6.2259,-6.3777,-6.4687,-6.4919,-6.4967,-6.5005,-6.5731,-6.6312,-6.6332,-6.7086,-6.7908,-6.8703,-6.6043,-6.3375,-6.1645,-5.9244,-5.6745,0.0,-5.8545,-6.2155,-6.3786,-6.4718,-6.52,-6.52,-6.6023,-6.5732,-6.4042,-6.4003,-6.3168,-6.1412,-6.1393,-6.1393,-6.1393,-6.1393,-6.1393,-6.1373,-6.0506,-5.9186,-5.7599,-5.7599,-5.7114,-5.6233,-5.5359,-5.4504,-5.3656,-5.2756,-5.1921,-5.1241,-5.1202,-5.0658,-4.9906,-4.9901,-4.8755,-4.7293,-4.7293,-4.6651,-4.5905,-4.5886,-4.5861,-4.5786,-4.5731,-4.5708,-4.5684,-4.562,-4.5594,-4.5594,-4.5594,-4.5594,-4.5594,-4.5594,-4.5594,-4.5594,-4.5594,-4.5594,-4.5594,-4.5594,-4.5637,-4.539,-4.4535,-4.3704,-4.2588,-4.1003,-3.8547,-3.6922,-3.6864,-3.6168,-3.5704,-3.5704,-3.5618,-3.5508,-3.542,-3.5348,-3.5255,-3.5105,-3.4944,-3.487,-3.4841,-3.3898,-3.339,-3.3352,-3.2424,-3.196,-3.195,-3.1663,-3.1528,-4.0775,0.0,-4.9606,-5.4777,-5.8611,-6.1698,-6.3961,-6.4522,-6.4493,-6.4203,-6.1872,-5.9724,-5.9196,-5.9321,-6.0095,-6.178,-6.3761,-6.5377,-6.6251,-6.4408,-6.2141,-5.9936,-5.7901,0.0,0.0,0.0,0.0,-5.967,-6.2051,-6.3487,-6.3537,-6.4372,-6.4586,-6.4022,-6.3439,-6.2857,-6.2274,-6.1684,-6.1393,-6.1393,-6.0817,-6.0234,-5.9652,-5.8817,-5.7813,-5.6738,-5.6738,-5.6563,-5.6233,-5.5359,-5.4835,-5.4427,-5.297,-5.2232,-5.1921,-5.1396,-5.0658,-4.9906,-4.9906,-4.9518,-4.8832,-4.7686,-4.7087,-4.6715,-4.6098,-4.5873,-4.5841,-4.5786,-4.5764,-4.5764,-4.5734,-4.6152,-4.6441,-4.5862,-4.6171,-4.6426,-4.5792,-4.566,-4.5643,-4.5603,-4.5594,-4.5603,-4.5657,-4.5693,-4.5401,-4.4527,-4.3262,-4.1803,-4.0158,-3.9128,-3.8136,-3.7013,-3.6654,-3.6281,-3.5742,-3.5679,-3.5656,-3.561,-3.561,-3.5509,-3.5307,-3.5125,-3.4999,-3.4889,-3.4436,-3.4189,-3.4189,-3.335,-3.2884,-3.2772,-3.2165,-3.1764,-4.5011,-5.0015,-5.4691,-5.9325,-6.2558,-6.4793,-6.5586,-6.5122,-6.4126,-6.2655,-5.9416,-5.6407,-5.497,-5.4455,-5.4978,-5.7243,-5.9542,-6.1632,-6.3453,-6.2474,-6.0879,-5.9,-5.7237,0.0,0.0,0.0,0.0,-5.796,-6.0587,-6.2187,-6.2228,-6.3362,-6.4003,-6.4003,-6.3731,-6.3304,-6.2701,-6.2138,-6.1555,-6.0934,-6.0681,-5.9788,-5.835,-5.8137,-5.7224,-5.5845,-5.6155,-5.6117,-5.5825,-5.5573,-5.5106,-5.4465,-5.365,-5.2776,-5.194,-5.1707,-5.1086,-5.0367,-5.0367,-4.9959,-4.9304,-4.8483,-4.7803,-4.719,-4.6574,-4.6407,-4.6395,-4.6326,-4.6518,-4.677,-4.6742,-4.7142,-4.7335,-4.6464,-4.6689,-4.6856,-4.5935,-4.5727,-4.5712,-4.5684,-4.5643,-4.5654,-4.5698,-4.569,-4.5401,-4.4522,-4.3279,-4.1937,-4.0559,-3.9805,-3.8994,-3.7947,-3.7272,-3.6687,-3.6168,-3.5842,-3.5792,-3.6076,-3.5825,-3.5737,-3.5894,-3.5448,-3.5122,-3.4972,-3.4792,-3.4668,-3.4612,-3.4076,-3.3781,-3.3698,-3.3111,-3.2769,-5.015,-5.4381,-5.7658,-6.2588,-6.4996,-6.5934,-6.5122,-6.4164,-6.2694,-6.0112,-5.7308,-5.4589,0.0,0.0,-5.1068,-5.2933,-5.481,-5.7246,-6.0771,-6.0519,-5.9683,0.0,0.0,0.0,0.0,0.0,0.0,-5.8653,0.0,-6.1393,-6.1393,-6.3012,-6.3925,-6.3925,-6.4663,-6.4314,-6.2721,-6.2663,-6.1788,-6.0099,-6.0895,-5.9982,-5.7638,-5.8389,-5.7399,-5.5126,-5.5981,-5.5845,-5.5068,-5.5883,-5.5223,-5.3772,-5.4601,-5.3436,-5.1358,-5.2115,-5.1882,-5.1202,-5.1202,-5.0114,-4.8852,-4.9596,-4.8735,-4.7414,-4.737,-4.737,-4.734,-4.7287,-4.7869,-4.8483,-4.8435,-4.8413,-4.8181,-4.7323,-4.711,-4.6878,-4.5988,-4.5814,-4.5807,-4.5807,-4.5749,-4.5715,-4.5715,-4.5714,-4.5412,-4.4586,-4.3748,-4.2898,-4.2103,-4.05,-3.9477,-3.9495,-3.8005,-3.6994,-3.6917,-3.6174,-3.6041,-3.6762,-3.6093,-3.6022,-3.6762,-3.5894,-3.5309,-3.5122,-3.4972,-3.4792,-3.4623,-3.4612,-3.4612,-3.4602,-3.4473,-3.4416,-5.2226,-5.7459,-6.2384,-6.4986,-6.5461,-6.5083,-6.4242,-6.1901,-5.8999,-5.578,-5.0598,-4.5828,0.0,0.0,0.0,-4.9173,-5.3366,0.0,-6.1804,-6.1596,0.0,0.0,0.0,-5.8817,-5.7961,-5.8854,0.0,0.0,-6.0384,-6.1344,-6.1393,-6.2449,-6.3032,-6.3032,-6.3226,-6.3129,-6.2701,-6.206,-6.1186,-6.0079,-5.9671,-5.8817,-5.7619,-5.7813,-5.7204,-5.6019,-5.69,-5.6408,-5.5029,-5.5242,-5.4679,-5.3714,-5.3947,-5.3242,-5.2115,-5.2329,-5.1882,-5.1202,-5.1202,-5.0911,-5.0367,-4.9279,-4.9066,-4.9124,-4.8463,-4.8269,-4.8264,-4.8252,-4.8402,-4.8577,-4.854,-4.8553,-4.832,-4.7466,-4.7253,-4.7008,-4.6067,-4.5867,-4.5867,-4.5814,-4.5793,-4.5778,-4.5778,-4.5771,-4.5684,-4.5403,-4.4137,-4.2891,-4.2042,-4.0968,-4.0068,-3.9489,-3.9033,-3.8259,-3.7003,-3.7281,-3.7346,-3.6902,-3.667,-3.6651,-3.6863,-3.5938,-3.5381,-3.5316,-3.4988,-3.4821,-3.4812,-3.4668,-3.4612,-3.4602,-3.4561,-3.4495,-5.7495,-6.1488,-6.4793,-6.6409,-6.5645,-6.3854,-6.1481,-5.8286,-5.4564,-5.0041,-4.5187,0.0,0.0,0.0,0.0,0.0,0.0,0.0,-5.9282,-6.0471,-6.0846,0.0,-6.1088,0.0,-6.1198,-6.1276,-6.113,0.0,-6.0772,-6.0886,-6.0925,-6.2074,-6.293,-6.3303,-6.3684,-6.3514,-6.2755,-6.1875,-6.0823,-5.962,-5.9518,-5.8627,-5.7089,-5.7478,-5.6952,-5.5827,0.0,-5.629,-5.5067,-5.5452,-5.5106,-5.4308,-5.4319,-5.354,-5.2431,-5.2446,-5.192,-5.1201,-5.1201,-5.1201,-5.1035,-5.0054,-4.9804,-4.9809,-4.9324,-4.9163,-4.9163,-4.9163,-4.9454,-4.9745,-4.9745,-4.9454,-4.8949,-4.8075,-4.7589,-4.7054,-4.6133,-4.5933,-4.5916,-4.5867,-4.5835,-4.5822,-4.5814,-4.5807,-4.5793,-4.5749,-4.4641,-4.3501,-4.2618,-4.1386,-4.0439,-3.9963,-3.9617,-3.902,-3.8073,-3.808,-3.8112,-3.8009,-3.7649,-3.7585,-3.7932,-3.6709,-3.5981,-3.5926,-3.537,-3.4981,-3.486,-3.4762,-3.4689,-3.4612,-3.4612,-3.455,-6.3229,-6.5136,-6.5751,-6.693,-6.5246,-6.2247,-5.8171,-5.4258,-4.9891,-4.431,0.0,-3.8234,-3.5901,0.0,-3.8564,-4.2961,0.0,-5.0472,-5.5778,-5.857,-6.036,-6.1175,-6.2036,-6.2887,-6.3705,-6.2983,-6.2529,-6.2655,-6.1301,-6.0477,-6.0472,-6.1953,-6.3156,-6.39,-6.4554,-6.4174,-6.2635,-6.1888,-6.0678,-5.9009,-5.9778,-5.8827,-5.6428,-5.7306,-5.6801,-5.5322,0.0,0.0,-5.5166,-5.5923,-5.573,-5.4947,-5.5051,-5.411,-5.2691,-5.2684,-5.2134,-5.1374,-5.1257,-5.1218,-5.1203,-5.1208,-5.0697,-5.0081,-5.0081,-5.0081,-5.0081,-5.0081,-5.0522,-5.1027,-5.1027,-5.0386,-4.9518,-4.8638,-4.7842,-4.7065,-4.6196,-4.6002,-4.5986,-4.5916,-4.5904,-4.5886,-4.5848,-4.5834,-4.5808,-4.5801,-4.5124,-4.435,-4.3576,-4.1882,-4.0726,-4.0607,-3.9983,-3.9527,-3.9412,-3.8794,-3.8704,-3.9353,-3.8685,-3.8594,-3.9273,-3.7809,-3.6863,-3.6646,-3.5936,-3.5318,-3.487,-3.4917,-3.4821,-3.4636,-3.4636,-3.4634,-6.2873,-6.4744,-6.6257,-6.5795,-6.3194,-5.9997,-5.7141,-5.1624,0.0,0.0,0.0,-3.5117,-3.3943,-3.5624,0.0,-4.3842,0.0,0.0,0.0,0.0,-5.9664,0.0,0.0,0.0,0.0,0.0,0.0,0.0,0.0,0.0,-6.1373,-6.2284,-6.2867,-6.302,-6.2535,-6.2095,-6.1737,-6.1629,-6.0712,-5.9002,-5.9151,-5.8234,-5.6428,-5.7306,-5.7131,-5.6216,0.0,0.0,-5.5107,-5.5263,-5.4834,-5.417,-5.4845,-5.4511,-5.3652,-5.3667,-5.3101,-5.2245,-5.154,-5.1284,-5.1269,-5.121,-5.1105,-5.0969,-5.0969,-5.0969,-5.0969,-5.0969,-5.0561,-5.014,-5.014,-4.9473,-4.8599,-4.7725,-4.7414,-4.7065,-4.6196,-4.6002,-4.5997,-4.5986,-4.5986,-4.598,-4.5969,-4.5969,-4.5953,-4.588,-4.5195,-4.4621,-4.4401,-4.2799,-4.1398,-4.0691,-4.0482,-4.0128,-3.9469,-3.9881,-3.9946,-3.9432,-3.9258,-3.9239,-3.9387,-3.8402,-3.7546,-3.6852,-3.6555,-3.6025,-3.5304,-3.5133,-3.4988,-3.486,-3.486,-3.4761,-6.392,-6.5393,-6.6572,-6.6059,-6.2679,-5.8226,-5.3447,0.0,0.0,0.0,-3.4396,-3.2547,-3.2131,0.0,0.0,0.0,0.0,0.0,0.0,0.0,0.0,0.0,0.0,0.0,0.0,0.0,0.0,0.0,0.0,0.0,-6.1633,-6.2449,-6.2898,-6.29,-6.2534,-6.2106,-6.162,-6.164,-6.0996,-5.9726,-5.9726,-5.9043,-5.7793,-5.7773,-5.7519,-5.7129,-5.7129,0.0,-5.5234,-5.5683,-5.539,-5.4668,-5.5017,-5.4916,-5.4467,-5.3567,-5.2962,-5.2474,-5.1634,-5.1341,-5.1334,-5.1262,-5.1233,-5.1191,-5.1191,-5.1189,-5.1105,-5.0658,-5.0542,-5.0367,-4.9454,-4.891,-4.8483,-4.8075,-4.7978,-4.7609,-4.6293,-4.6366,-4.654,-4.6099,-4.6002,-4.6002,-4.6002,-4.6002,-4.5991,-4.5964,-4.5609,-4.5215,-4.4754,-4.3924,-4.2827,-4.1431,-4.1287,-4.0945,-4.0089,-4.0386,-4.0432,-4.0041,-4.0023,-4.003,-4.0021,-3.9198,-3.8542,-3.815,-3.7606,-3.6872,-3.596,-3.5906,-3.5581,-3.5,-3.4926,-3.486,-6.4726,-6.5975,-6.6657,-6.5929,-6.1904,-5.6439,-4.9942,-4.4186,0.0,0.0,-3.1621,-3.0957,-3.1133,0.0,0.0,0.0,0.0,0.0,0.0,0.0,0.0,0.0,0.0,0.0,0.0,0.0,0.0,0.0,0.0,0.0,-6.1658,-6.2343,-6.2715,-6.2713,-6.2729,-6.2394,-6.1709,-6.1697,-6.1264,-6.0409,-6.0403,-5.9851,-5.8792,-5.8109,-5.7719,-5.7504,-5.6879,0.0,0.0,-5.6235,-5.6098,-5.5302,-5.5443,-5.5506,-5.5291,-5.3533,-5.2908,-5.2752,-5.1756,-5.1405,-5.1386,-5.1342,-5.1288,-5.1229,-5.1229,-5.1222,-5.104,-5.017,-5.0402,-5.0575,-4.9026,-4.8616,-4.8599,-4.8599,-4.8463,-4.7958,-4.656,-4.6968,-4.7279,-4.6215,-4.6157,-4.621,-4.6041,-4.6002,-4.6002,-4.6002,-4.6002,-4.5769,-4.5142,-4.5013,-4.4342,-4.2684,-4.2154,-4.1644,-4.0964,-4.0726,-4.0629,-4.0603,-4.0593,-4.06,-4.0603,-3.9933,-3.949,-3.929,-3.8635,-3.7788,-3.6822,-3.6906,-3.6516,-3.5698,-3.5585,-3.5495,-6.3925,-6.5624,-6.6328,-6.3924,-5.9452,-5.4237,-4.8906,0.0,0.0,-3.3887,-3.2012,-3.1133,-3.1934,-3.2793,-3.4824,0.0,0.0,-4.2793,0.0,0.0,0.0,0.0,0.0,0.0,0.0,0.0,0.0,0.0,0.0,0.0,0.0,-6.1777,-6.1816,-6.1814,-6.1814,-6.1773,-6.1709,-6.1694,-6.1261,-6.0409,-6.0397,-5.9533,-5.7914,-5.7836,-5.7406,-5.6704,0.0,0.0,0.0,-5.6235,-5.6098,-5.5378,-5.6161,-5.6474,-5.6259,-5.4504,-5.3879,-5.3625,-5.1966,-5.14,-5.14,-5.1384,-5.1347,-5.1291,-5.1291,-5.1288,-5.1108,-5.0247,-4.9994,-4.9808,-4.8927,-4.8652,-4.8599,-4.8599,-4.7997,-4.7376,-4.722,-4.7861,-4.7997,-4.6313,-4.6638,-4.6929,-4.6138,-4.6002,-4.6002,-4.6002,-4.6002,-4.5963,-4.5905,-4.588,-4.5504,-4.4548,-4.297,-4.197,-4.1879,-4.1157,-4.0654,-4.0607,-4.0607,-4.0588,-4.0607,-4.0514,-4.0106,-3.9309,-3.9213,-3.8744,-3.7863,-3.7983,-3.7905,-3.7644,-3.7636,-3.7455,-5.9687,-6.2832,-6.4961,-6.3398,-5.9121,-5.3672,-4.7441,0.0,-3.6914,-3.2754,-3.1367,-3.1016,-3.1348,-3.168,-3.2969,-3.623,-3.6328,0.0,0.0,0.0,0.0,0.0,0.0,0.0,0.0,0.0,0.0,0.0,0.0,0.0,0.0,-6.1699,-6.1699,-6.1699,-6.1698,-6.1696,-6.1695,-6.1694,-6.1261,-6.0396,-6.04,-5.9754,-5.8556,-5.8043,-5.7631,-5.7299,0.0,0.0,0.0,-5.602,-5.5786,-5.4654,-5.6059,-5.6606,-5.6391,-5.4635,-5.401,-5.3756,-5.1999,-5.1394,-5.1394,-5.1394,-5.1373,-5.1367,-5.1365,-5.1333,-5.1121,-5.0243,-4.9976,-4.9764,-4.8928,-4.9039,-4.9264,-4.8781,-4.9177,-4.9357,-4.8308,-4.8774,-4.8871,-4.7123,-4.7065,-4.7026,-4.6157,-4.6002,-4.6002,-4.6002,-4.6002,-4.6002,-4.6002,-4.6002,-4.5875,-4.5523,-4.436,-4.3176,-4.2093,-4.168,-4.1228,-4.0633,-4.0647,-4.064,-4.0598,-4.0595,-4.0434,-4.0087,-4.0046,-3.9603,-3.877,-3.8844,-3.8581,-3.8085,-3.7957,-3.7828,-5.543,-5.9687,-6.2812,-6.1445,-5.7226,-5.1738,0.0,0.0,-3.5898,-3.1758,-3.0898,-3.0898,-3.0898,-3.0898,-3.1641,-3.3945,-3.4238,-3.623,0.0,0.0,0.0,0.0,0.0,0.0,0.0,0.0,0.0,0.0,0.0,0.0,0.0,-6.1699,-6.1699,-6.1699,-6.1699,-6.1698,-6.1698,-6.1442,-6.101,-6.0403,-6.0169,-5.9445,-5.8349,-5.7994,-5.7542,-5.7034,0.0,0.0,0.0,-5.5981,-5.5728,-5.4537,-5.602,-5.645,-5.604,-5.4556,-5.3834,-5.3405,-5.1921,-5.1394,-5.1394,-5.1394,-5.1394,-5.1341,-5.1088,-5.1152,-5.1088,-4.9956,-4.9834,-4.9827,-4.8922,-4.9306,-4.9721,-4.8902,-4.9792,-5.0495,-4.9241,-4.9663,-4.9692,-4.7692,-4.7512,-4.7337,-4.6196,-4.6002,-4.6002,-4.6002,-4.6002,-4.6002,-4.6002,-4.6002,-4.6002,-4.6002,-4.544,-4.4463,-4.2924,-4.2331,-4.1745,-4.1054,-4.0816,-4.0661,-4.061,-4.0603,-4.0603,-4.0607,-4.0546,-4.0238,-3.9678,-3.9711,-3.945,-3.8942,-3.8817,-3.8594,-5.1816,-5.6523,-5.9824,-5.7305,-5.2793,-4.7617,0.0,0.0,-3.2969,-3.125,-3.0898,-3.0898,-3.0898,-3.0898,-3.1445,-3.3144,-3.4844,0.0,0.0,0.0,0.0,0.0,0.0,0.0,0.0,0.0,0.0,0.0,0.0,0.0,0.0,-6.1699,-6.1699,-6.1699,-6.1699,-6.1699,-6.1699,-6.084,-6.041,-6.0388,-5.9587,-5.8296,-5.6651,-5.7511,-5.6964,0.0,0.0,0.0,0.0,-5.6239,-5.6079,-5.5376,-5.6255,-5.6079,-5.5201,-5.4322,-5.3444,-5.2587,-5.1707,-5.1394,-5.1394,-5.1394,-5.1394,-5.1238,-5.0379,-5.0711,-5.1045,-4.9308,-4.9426,-4.9882,-4.8945,-4.9345,-4.9774,-4.8915,-4.9364,-4.9996,-4.99,-5.056,-5.0415,-4.7805,-4.7997,-4.8036,-4.6293,-4.6002,-4.6002,-4.6002,-4.6002,-4.6002,-4.6002,-4.6002,-4.6002,-4.6002,-4.5982,-4.5631,-4.4754,-4.3081,-4.2063,-4.1996,-4.1177,-4.0668,-4.0595,-4.0595,-4.0593,-4.0607,-4.0607,-4.0591,-4.0595,-4.0641,-4.0681,-4.0681,-4.0739,-4.0204,-4.3008,-4.6426,-4.8789,-4.7988,-4.5254,-4.1855,-3.8437,-3.5449,-3.293,-3.125,-3.0898,-3.0898,-3.0898,-3.0898,-3.1836,-3.4707,-3.5644,0.0,0.0,0.0,0.0,0.0,0.0,0.0,0.0,0.0,0.0,0.0,0.0,0.0,0.0,0.0,-6.1699,-6.1699,-6.1699,-6.1406,-6.082,-6.0547,-5.9824,-5.8691,-5.8437,-5.7402,-5.5741,-5.6618,0.0,0.0,0.0,0.0,0.0,-5.6236,-5.6095,-5.5329,-5.5602,-5.554,-5.5125,-5.3659,-5.2938,-5.2587,-5.1707,-5.1394,-5.1394,-5.1394,-5.1004,-5.0358,-4.9481,-5.0243,-5.116,-5.0007,-5.033,-5.0787,-4.9896,-5.0293,-5.0895,-5.0602,-5.0729,-5.0883,-5.0869,-5.1079,-5.0664,-4.8655,-4.8479,-4.8303,-4.7146,-4.6416,-4.6191,-4.6793,-4.6385,-4.6002,-4.6002,-4.6002,-4.6002,-4.6002,-4.6002,-4.5661,-4.4849,-4.3718,-4.2765,-4.2108,-4.1249,-4.0712,-4.0595,-4.0595,-4.0579,-4.0531,-4.0531,-4.0549,-4.0595,-4.0612,-4.0672,-4.07,-4.0778,-4.0552,0.0,-3.9805,-4.2109,-4.1445,-3.9609,0.0,0.0,-3.2969,-3.1172,-3.0137,-3.0449,-3.0801,-3.0469,-3.0957,-3.209,-3.4219,-3.5644,0.0,0.0,0.0,0.0,0.0,0.0,0.0,0.0,0.0,0.0,0.0,0.0,0.0,0.0,0.0,-6.1211,-6.1211,-6.1523,-6.1289,-6.041,-6.0098,-5.9258,-5.789,-5.7578,-5.668,-5.5332,-5.6191,0.0,0.0,0.0,0.0,0.0,-5.6379,-5.6278,-5.5766,-5.5435,-5.51,-5.4648,-5.3222,-5.25,-5.2127,-5.1581,-5.1405,-5.1346,-5.1015,-5.0115,-4.9119,-4.8906,-4.9584,-5.0379,-5.0163,-5.0729,-5.1199,-5.0338,-5.0747,-5.1324,-5.0992,-5.1133,-5.1344,-5.1338,-5.1335,-5.0806,-4.9036,-4.8972,-4.8811,-4.7618,-4.6917,-4.6702,-4.7266,-4.6571,-4.6002,-4.6002,-4.6002,-4.6002,-4.6002,-4.6002,-4.5808,-4.5297,-4.4481,-4.3747,-4.3158,-4.1989,-4.1286,-4.1165,-4.0849,-4.0636,-4.0583,-4.0576,-4.0579,-4.0595,-4.0639,-4.066,-4.0739,-4.0784,-4.0733,0.0,-3.5703,0.0,0.0,0.0,0.0,-3.2168,-2.9941,0.0,-2.8379,-2.9726,-3.0684,-3.0,-3.123,-3.2441,-3.2637,0.0,0.0,0.0,0.0,0.0,0.0,0.0,0.0,0.0,0.0,0.0,0.0,0.0,0.0,0.0,0.0,-6.0312,-6.0312,-6.1094,-6.1094,-6.0234,-5.9472,-5.8633,-5.7715,-5.6953,-5.6113,-5.5234,-5.6172,0.0,0.0,0.0,0.0,0.0,-5.6536,-5.6515,-5.6417,-5.548,-5.462,-5.3801,-5.2922,-5.2101,-5.1398,-5.1398,-5.1398,-5.1242,-5.0324,-4.8956,-4.7824,-4.8507,-4.8715,-4.8917,-4.9833,-5.0674,-5.1143,-5.0379,-5.0791,-5.1201,-5.0379,-5.0811,-5.1407,-5.1405,-5.1406,-5.0878,-4.9143,-4.9448,-4.9467,-4.7788,-4.744,-4.7398,-4.7398,-4.6612,-4.6003,-4.6012,-4.6012,-4.6007,-4.6002,-4.6002,-4.6002,-4.6002,-4.5258,-4.4792,-4.4792,-4.3166,-4.217,-4.2097,-4.1258,-4.0767,-4.0707,-4.0707,-4.0668,-4.0614,-4.0668,-4.0739,-4.079,-4.079,-4.079,-2.5059,0.0,-2.8945,-2.8535,-2.8125,-2.7891,0.0,-2.7753,-2.7675,-2.9023,-3.0156,-3.1229,-3.2305,-3.3398,-3.4766,0.0,0.0,0.0,0.0,0.0,0.0,0.0,0.0,0.0,0.0,0.0,0.0,0.0,0.0,0.0,0.0,0.0,-5.9473,-5.9473,-5.9626,-5.9314,-5.8496,-5.8259,-5.7378,-5.5914,-5.6333,-5.5741,-5.4355,-5.5858,0.0,0.0,0.0,0.0,-5.6556,-5.587,-5.5618,-5.5446,-5.3903,-5.3198,-5.2902,-5.2023,-5.1574,-5.1398,-5.1398,-5.1398,-5.1144,-4.9679,-4.8917,-4.837,-4.7258,-4.7374,-4.819,-4.9676,-5.0242,-5.0515,-5.0964,-5.1257,-5.1355,-5.114,-5.1257,-5.1396,-5.1401,-5.1402,-5.107,-4.9979,-4.9941,-4.9722,-4.8666,-4.7889,-4.7398,-4.7396,-4.6684,-4.6134,-4.608,-4.6072,-4.6067,-4.6007,-4.6002,-4.6002,-4.6002,-4.5258,-4.4792,-4.4792,-4.3166,-4.217,-4.2097,-4.1258,-4.0779,-4.0707,-4.0745,-4.0745,-4.0687,-4.0688,-4.0713,-4.0713,-4.0713,-4.0746,-2.2944,-2.4587,-2.6384,-2.6795,-2.6599,-2.6637,-2.7907,-2.7261,-2.6771,-2.8121,0.0,0.0,0.0,0.0,0.0,0.0,0.0,0.0,0.0,0.0,0.0,0.0,0.0,0.0,0.0,0.0,0.0,0.0,0.0,0.0,0.0,0.0,-5.8553,-5.8553,-5.8134,-5.7899,-5.785,-5.7821,-5.6935,-5.5256,-5.6105,-5.5825,-5.4596,-5.5903,0.0,0.0,0.0,0.0,-5.5881,-5.5041,-5.4693,-5.4579,-5.3212,-5.2702,-5.2582,-5.1728,-5.1398,-5.1399,-5.1403,-5.1169,-5.0622,-4.9314,-4.863,-4.8044,-4.6716,-4.6638,-4.736,-4.9075,-4.9816,-5.0305,-5.1164,-5.1398,-5.1398,-5.1398,-5.1398,-5.1398,-5.1398,-5.1398,-5.1144,-5.0266,-5.0425,-5.0291,-4.9061,-4.8397,-4.7903,-4.751,-4.6739,-4.6195,-4.615,-4.6145,-4.6134,-4.6095,-4.6056,-4.605,-4.605,-4.5619,-4.5356,-4.5356,-4.4112,-4.3209,-4.2751,-4.1916,-4.1405,-4.1348,-4.0963,-4.0944,-4.1351,-4.0938,-4.0757,-4.0788,-4.0758,-4.0764,-2.3173,-2.5184,-2.7337,-2.8067,-2.7787,-2.772,-2.9192,-2.7726,0.0,0.0,0.0,0.0,0.0,-3.3223,0.0,0.0,0.0,0.0,0.0,0.0,0.0,0.0,0.0,0.0,0.0,0.0,0.0,0.0,0.0,0.0,0.0,0.0,0.0,-5.7606,-5.6885,-5.6844,-5.7582,-5.7606,-5.6797,-5.5216,-5.6089,-5.597,-5.5036,-5.5892,-5.6224,0.0,0.0,0.0,-5.4943,-5.4125,-5.3795,-5.37,-5.2841,-5.2509,-5.2413,-5.1665,-5.1396,-5.1397,-5.1404,-5.0878,-5.0038,-4.9179,-4.83,-4.7441,-4.6562,-4.6308,-4.666,-4.8414,-4.9389,-5.015,-5.1146,-5.14,-5.14,-5.14,-5.14,-5.14,-5.14,-5.14,-5.1185,-5.0443,-5.0889,-5.0904,-4.9359,-4.8921,-4.8515,-4.7636,-4.6774,-4.6216,-4.6192,-4.6191,-4.6209,-4.6204,-4.6147,-4.6112,-4.6102,-4.6054,-4.6017,-4.6002,-4.5239,-4.4345,-4.3335,-4.2597,-4.2175,-4.2128,-4.1335,-4.1317,-4.209,-4.1232,-4.0829,-4.0886,-4.0823,-4.0798,-2.4432,-2.6397,-2.7886,-2.8016,-2.846,-2.8935,-2.9191,-2.8411,-2.8104,0.0,0.0,0.0,0.0,0.0,0.0,0.0,0.0,0.0,0.0,0.0,0.0,0.0,0.0,0.0,0.0,0.0,0.0,0.0,0.0,0.0,0.0,0.0,0.0,-5.6708,-5.6567,-5.6553,-5.6692,-5.6709,-5.6199,-5.5204,-5.6074,-5.5666,-5.4126,-5.4999,-5.4999,0.0,0.0,-5.4105,-5.4036,-5.3175,-5.286,-5.2802,-5.1941,-5.1609,-5.157,-5.1457,-5.1398,-5.14,-5.1402,-5.0837,-4.998,-4.91,-4.8268,-4.7437,-4.6558,-4.6307,-4.666,-4.8418,-4.8984,-4.9433,-5.0996,-5.1406,-5.1406,-5.1406,-5.1406,-5.1406,-5.1406,-5.1406,-5.1367,-5.123,-5.1307,-5.107,-5.0089,-4.9306,-4.8521,-4.7714,-4.6839,-4.6263,-4.6211,-4.6191,-4.6207,-4.6206,-4.6197,-4.6158,-4.6105,-4.6087,-4.6052,-4.6007,-4.5239,-4.4074,-4.2466,-4.2272,-4.2209,-4.218,-4.2039,-4.2013,-4.2106,-4.1228,-4.0809,-4.0812,-4.08,-4.0798,-2.3495,-2.5846,-2.8055,-2.8961,-2.9559,-3.0143,-3.1099,-2.9582,-2.89,0.0,0.0,0.0,0.0,0.0,0.0,0.0,0.0,0.0,0.0,0.0,0.0,0.0,0.0,0.0,0.0,0.0,0.0,0.0,0.0,0.0,0.0,0.0,0.0,0.0,-5.5792,-5.5576,-5.5108,-5.5108,-5.4894,-5.4504,-5.5381,-5.4885,-5.3229,-5.4102,-5.4277,-5.3868,0.0,-5.3202,-5.312,-5.2262,-5.1921,-5.1898,-5.1508,-5.1352,-5.1352,-5.1389,-5.1403,-5.1394,-5.1394,-5.1141,-5.0653,-4.9794,-4.8921,-4.8087,-4.7209,-4.6959,-4.7217,-4.8488,-4.8865,-4.9297,-5.0957,-5.1406,-5.1406,-5.1406,-5.1406,-5.1406,-5.1406,-5.1406,-5.1406,-5.1406,-5.1406,-5.1111,-5.0247,-4.9772,-4.9062,-4.7783,-4.7256,-4.6812,-4.6319,-4.6242,-4.6245,-4.6249,-4.6229,-4.6181,-4.617,-4.6147,-4.6112,-4.6012,-4.5239,-4.4229,-4.2966,-4.2908,-4.2908,-4.2908,-4.2908,-4.2898,-4.2853,-4.198,-4.132,-4.0912,-4.0862,-4.0842,-2.2915,-2.5168,-2.7568,-2.9448,-3.0334,-3.1283,-3.343,-3.1439,-3.0371,0.0,0.0,0.0,0.0,0.0,0.0,0.0,0.0,0.0,0.0,0.0,0.0,0.0,0.0,0.0,0.0,0.0,0.0,0.0,0.0,0.0,0.0,0.0,0.0,0.0,-5.4902,-5.4569,-5.3907,-5.3907,-5.3907,-5.3907,-5.4569,-5.4082,-5.2625,-5.3288,-5.3483,-5.3249,-5.2586,-5.2294,-5.2236,-5.1573,-5.13,-5.13,-5.13,-5.13,-5.1304,-5.1353,-5.1378,-5.1377,-5.1377,-5.124,-5.0967,-5.0284,-4.9352,-4.84,-4.7932,-4.766,-4.7723,-4.8798,-4.9148,-4.9529,-5.1014,-5.1404,-5.1404,-5.1404,-5.1404,-5.1405,-5.1406,-5.1406,-5.1406,-5.1406,-5.1406,-5.119,-5.0522,-5.0242,-4.9591,-4.8138,-4.7723,-4.7272,-4.6417,-4.63,-4.63,-4.63,-4.6242,-4.623,-4.6191,-4.62,-4.6153,-4.6044,-4.5269,-4.4404,-4.3544,-4.3505,-4.3394,-4.3199,-4.3199,-4.3199,-4.3199,-4.2325,-4.1582,-4.0978,-4.0913,-4.0908,-2.4226,-2.5247,-2.5975,-2.8465,-3.0279,-3.2285,-3.5607,-3.4386,-3.3743,-3.7978,0.0,0.0,0.0,0.0,0.0,0.0,0.0,0.0,0.0,0.0,0.0,0.0,0.0,0.0,0.0,0.0,0.0,0.0,0.0,0.0,0.0,0.0,0.0,0.0,0.0,-5.3966,-5.3907,-5.3907,-5.3907,-5.3907,-5.3966,-5.3502,-5.2606,-5.2664,-5.2255,-5.1476,-5.1417,-5.1398,-5.1398,-5.1339,-5.13,-5.13,-5.13,-5.13,-5.13,-5.1304,-5.1304,-5.1308,-5.1308,-5.0782,-5.008,-5.0022,-4.8916,-4.773,-4.8488,-4.8135,-4.784,-4.9538,-5.0008,-5.0227,-5.1164,-5.1398,-5.1398,-5.1398,-5.1398,-5.1403,-5.1397,-5.1399,-5.1402,-5.1406,-5.1406,-5.1386,-5.1327,-5.0636,-4.9807,-4.8947,-4.8074,-4.7205,-4.6397,-4.63,-4.63,-4.63,-4.6303,-4.6277,-4.6211,-4.62,-4.62,-4.6195,-4.5305,-4.4404,-4.3544,-4.3505,-4.3122,-4.2311,-4.2291,-4.2291,-4.2291,-4.1412,-4.0966,-4.0912,-4.0907,-4.0907,-2.2435,-2.445,-2.6481,-2.8497,-3.0663,-3.2783,-3.4637,-3.4765,-3.5871,-4.0646,-4.1274,0.0,0.0,0.0,0.0,0.0,0.0,0.0,0.0,0.0,0.0,0.0,0.0,0.0,0.0,0.0,0.0,0.0,0.0,0.0,0.0,0.0,0.0,0.0,0.0,-5.2567,-5.1495,-5.1476,-5.1222,-5.0755,-5.2333,-5.2645,-5.1787,-5.1787,-5.1612,-5.13,-5.13,-5.13,-5.13,-5.13,-5.13,-5.13,-5.13,-5.13,-5.13,-5.13,-5.13,-5.13,-5.13,-5.1086,-5.0813,-5.0813,-4.9675,-4.8457,-4.9296,-4.8971,-4.8554,-4.9705,-5.0426,-5.0923,-5.1308,-5.1394,-5.1394,-5.1394,-5.1394,-5.1396,-5.1403,-5.1405,-5.1407,-5.1393,-5.1394,-5.1393,-5.1405,-5.1123,-5.0627,-4.9762,-4.9313,-4.856,-4.7223,-4.702,-4.6786,-4.6299,-4.6273,-4.6287,-4.6258,-4.6211,-4.6207,-4.6207,-4.5825,-4.5215,-4.4339,-4.4788,-4.4656,-4.3821,-4.4312,-4.4054,-4.3005,-4.3219,-4.2481,-4.0907,-4.1451,-4.1412,-2.1278,-2.3381,-2.5809,-2.7738,-3.0133,-3.2683,-3.5146,-3.6214,-3.8161,-4.3258,-4.4069,-4.4164,0.0,0.0,0.0,0.0,0.0,0.0,0.0,0.0,0.0,0.0,0.0,0.0,0.0,0.0,0.0,0.0,0.0,0.0,0.0,0.0,0.0,0.0,0.0,0.0,-4.9549,-4.9594,-4.9333,-4.8826,-5.0579,-5.1086,-5.0502,-5.0502,-5.0657,-5.0891,-5.0891,-5.1047,-5.13,-5.13,-5.13,-5.13,-5.13,-5.13,-5.13,-5.13,-5.1125,-5.093,-5.1203,-5.1125,-5.093,-5.1203,-5.0346,-4.9333,-5.0151,-4.9839,-4.9294,-4.9859,-5.0638,-5.1253,-5.1029,-5.1157,-5.1372,-5.1372,-5.1372,-5.1374,-5.1401,-5.1403,-5.1406,-5.1392,-5.1394,-5.1392,-5.1406,-5.1396,-5.1096,-5.0232,-5.0056,-4.9513,-4.8094,-4.7866,-4.7515,-4.6677,-4.6387,-4.6264,-4.6271,-4.6235,-4.6205,-4.6228,-4.6175,-4.5743,-4.4866,-4.534,-4.523,-4.4413,-4.4929,-4.4656,-4.3505,-4.3821,-4.3063,-4.1315,-4.1646,-4.1471,-2.1282,-2.2142,-2.342,-2.5907,0.0,0.0,-3.7859,-3.9269,-4.0758,-4.5874,-4.7548,-4.7855,-4.7058,0.0,0.0,0.0,0.0,0.0,0.0,0.0,0.0,0.0,0.0,0.0,0.0,0.0,0.0,0.0,0.0,0.0,0.0,0.0,0.0,0.0,0.0,0.0,-4.8494,-4.8688,-4.8787,-4.8768,-4.8768,-4.8787,-4.8806,-4.8806,-4.9235,-4.9995,-4.9995,-5.0482,-5.13,-5.13,-5.13,-5.13,-5.13,-5.13,-5.13,-5.13,-5.0735,-5.0112,-5.0989,-5.0716,-5.0131,-5.1008,-5.0696,-5.0151,-5.1047,-5.0696,-4.9995,-5.0014,-5.0638,-5.1106,-5.0248,-5.0657,-5.13,-5.13,-5.13,-5.1312,-5.1385,-5.1394,-5.1403,-5.141,-5.1394,-5.1394,-5.1394,-5.1394,-5.1105,-5.0243,-5.0101,-4.9786,-4.8909,-4.8795,-4.8435,-4.7497,-4.6683,-4.6213,-4.6203,-4.6206,-4.6238,-4.6298,-4.6246,-4.5818,-4.4958,-4.4852,-4.4407,-4.353,-4.3523,-4.353,-4.351,-4.2656,-4.2233,-4.2194,-4.1335,-4.0927,-2.2188,-2.3424,0.0,-2.7683,0.0,0.0,0.0,-4.0169,0.0,0.0,-4.8355,-4.8029,0.0,0.0,0.0,0.0,0.0,0.0,0.0,0.0,0.0,0.0,0.0,0.0,0.0,0.0,0.0,0.0,0.0,0.0,0.0,0.0,0.0,0.0,0.0,0.0,-4.745,-4.7507,-4.7235,-4.6628,-4.6628,-4.7397,-4.8806,-4.8806,-4.8923,-4.9196,-4.9742,-5.0151,-5.0424,-5.1047,-5.095,-5.0443,-5.1067,-5.093,-5.0385,-5.0385,-5.0229,-4.9956,-4.9644,-4.9742,-5.0034,-5.0307,-5.0209,-5.0151,-5.1047,-5.0696,-5.0131,-5.0735,-5.1106,-5.1242,-5.0989,-5.1106,-5.13,-5.13,-5.13,-5.1304,-5.1335,-5.1339,-5.1323,-5.1333,-5.1333,-5.1333,-5.1333,-5.1326,-5.1241,-5.0975,-5.0934,-5.0404,-4.8926,-4.8199,-4.7463,-4.6583,-4.6828,-4.6803,-4.6252,-4.6193,-4.6219,-4.6228,-4.6204,-4.6082,-4.5838,-4.5796,-4.5657,-4.5404,-4.5345,-4.5033,-4.4429,-4.4715,-4.4268,-4.3102,-4.285,-4.2403,-2.2553,-2.3971,0.0,-2.966,-3.2948,-3.6339,-4.0321,0.0,0.0,0.0,0.0,0.0,0.0,0.0,0.0,0.0,0.0,0.0,0.0,0.0,0.0,0.0,0.0,0.0,0.0,0.0,0.0,0.0,0.0,0.0,0.0,0.0,0.0,0.0,0.0,0.0,-4.6414,-4.6455,-4.6213,-4.5703,-4.5703,-4.6364,-4.7573,-4.765,-4.7903,-4.8319,-4.9157,-4.9527,-4.9566,-5.0092,-4.9995,-4.9586,-5.0092,-4.9995,-4.9527,-4.9527,-4.9527,-4.9508,-4.9333,-4.9586,-5.0053,-5.0404,-5.0521,-5.0618,-5.1145,-5.093,-5.056,-5.0735,-5.1028,-5.1222,-5.0872,-5.1047,-5.13,-5.13,-5.13,-5.13,-5.13,-5.13,-5.13,-5.13,-5.13,-5.13,-5.13,-5.13,-5.13,-5.13,-5.1304,-5.0912,-4.9867,-4.8675,-4.7702,-4.7153,-4.7278,-4.7057,-4.6232,-4.6485,-4.6551,-4.6215,-4.62,-4.6194,-4.6192,-4.6191,-4.6201,-4.6201,-4.6167,-4.5886,-4.5359,-4.5465,-4.4991,-4.4018,-4.3666,-4.3219,-2.2766,0.0,0.0,-3.1637,-3.4458,0.0,-4.3202,0.0,0.0,0.0,0.0,0.0,0.0,0.0,0.0,0.0,0.0,0.0,0.0,0.0,0.0,0.0,0.0,0.0,0.0,0.0,0.0,0.0,0.0,0.0,0.0,0.0,0.0,0.0,0.0,0.0,-4.5491,-4.5592,-4.5667,0.0,-4.5667,-4.5675,-4.5689,-4.5871,-4.6513,-4.7513,-4.8312,-4.8705,-4.8806,-4.8806,-4.8748,-4.869,-4.8768,-4.8748,-4.867,-4.867,-4.867,-4.8787,-4.9527,-4.9761,-4.9917,-5.0794,-5.1067,-5.1067,-5.1067,-5.1125,-5.1008,-5.0131,-5.0579,-5.1106,-5.0229,-5.0657,-5.13,-5.13,-5.13,-5.13,-5.13,-5.13,-5.13,-5.13,-5.13,-5.13,-5.13,-5.13,-5.1261,-5.1183,-5.1128,-5.1077,-5.1077,-4.9614,-4.8555,-4.8497,-4.7845,-4.7058,-4.6167,-4.6828,-4.6963,-4.6224,-4.6192,-4.6192,-4.6192,-4.6191,-4.619,-4.619,-4.6185,-4.6192,-4.621,-4.5348,-4.4923,-4.489,-4.4014,-4.3612,-2.4341,-2.5477,0.0,0.0,-3.7485,-4.2058,0.0,0.0,0.0,0.0,0.0,0.0,0.0,0.0,0.0,0.0,0.0,0.0,0.0,0.0,0.0,0.0,0.0,0.0,0.0,0.0,0.0,0.0,0.0,0.0,0.0,0.0,0.0,0.0,0.0,-4.533,-4.533,-4.5361,-4.5381,0.0,-4.5381,-4.5447,-4.5558,-4.5708,-4.6311,-4.7262,-4.7456,-4.8024,-4.8806,-4.8806,-4.8397,-4.7852,-4.8534,-4.8378,-4.7774,-4.7774,-4.7774,-4.7793,-4.7988,-4.8047,-4.8183,-4.904,-4.9333,-4.9333,-4.9333,-4.9781,-5.0112,-4.9294,-5.0131,-5.1106,-5.0229,-5.0657,-5.13,-5.13,-5.13,-5.13,-5.13,-5.13,-5.13,-5.13,-5.13,-5.13,-5.13,-5.13,-5.1067,-5.0385,-4.9738,-4.9348,-4.9348,-4.837,-4.7672,-4.7652,-4.7494,-4.7052,-4.6168,-4.626,-4.6275,-4.6056,-4.6089,-4.6111,-4.6111,-4.6174,-4.6201,-4.6201,-4.6149,-4.6147,-4.619,-4.593,-4.5818,-4.5806,-4.4935,-4.4517,-2.4121,0.0,0.0,-3.4821,0.0,0.0,0.0,0.0,0.0,0.0,0.0,0.0,0.0,0.0,0.0,0.0,0.0,0.0,0.0,0.0,0.0,0.0,0.0,0.0,0.0,0.0,0.0,0.0,0.0,0.0,0.0,0.0,0.0,0.0,-4.5307,-4.5307,-4.5307,-4.5307,-4.5307,-4.5307,-4.5307,-4.5339,-4.54,-4.5619,-4.5983,-4.648,-4.648,-4.6806,-4.7314,-4.7314,-4.7106,-4.6813,-4.7174,-4.7111,-4.6779,-4.6779,-4.7032,-4.7371,-4.747,-4.7774,-4.8202,-4.8651,-4.906,-4.9294,-4.8923,-4.9352,-4.9917,-4.9488,-4.9995,-5.0677,-5.0638,-5.0969,-5.13,-5.13,-5.13,-5.13,-5.13,-5.13,-5.13,-5.13,-5.13,-5.13,-5.13,-5.13,-5.1145,-5.0696,-5.0268,-4.9995,-4.9995,-4.8873,-4.8067,-4.8039,-4.7652,-4.7051,-4.6177,-4.6474,-4.6538,-4.6081,-4.6052,-4.6042,-4.6042,-4.6084,-4.6138,-4.6196,-4.6173,-4.618,-4.6197,-4.6127,-4.6112,-4.6134,-4.5657,-4.5409,-2.3179,0.0,-3.0202,-3.7071,-4.1189,0.0,0.0,0.0,0.0,0.0,0.0,0.0,0.0,0.0,0.0,0.0,0.0,0.0,0.0,0.0,0.0,0.0,0.0,0.0,0.0,0.0,0.0,0.0,0.0,0.0,0.0,0.0,-4.5317,-4.5307,-4.5144,-4.5067,-4.5067,-4.4934,-4.4857,-4.4857,-4.4857,-4.501,-4.5298,-4.5359,-4.5503,-4.5667,-4.5667,-4.5682,-4.5703,-4.5703,-4.5796,-4.5919,-4.5751,-4.5796,-4.595,-4.595,-4.6377,-4.6996,-4.73,-4.7793,-4.8319,-4.8626,-4.8957,-4.9195,-4.8857,-4.9118,-4.957,-4.9738,-4.9898,-5.017,-5.0891,-5.1183,-5.13,-5.13,-5.13,-5.13,-5.13,-5.13,-5.13,-5.13,-5.13,-5.13,-5.13,-5.13,-5.1242,-5.1106,-5.1086,-5.1086,-5.1086,-4.9605,-4.8608,-4.8705,-4.7805,-4.6902,-4.618,-4.678,-4.6883,-4.6158,-4.6061,-4.6007,-4.6002,-4.6002,-4.6042,-4.6158,-4.6177,-4.6173,-4.6177,-4.6126,-4.6132,-4.6205,-4.6135,-4.6111,0.0,0.0,-3.2966,0.0,-3.9871,0.0,0.0,0.0,0.0,0.0,0.0,0.0,0.0,0.0,0.0,0.0,0.0,0.0,0.0,0.0,0.0,0.0,0.0,0.0,0.0,0.0,0.0,0.0,0.0,0.0,0.0,-4.4977,-4.5348,-4.5307,-4.4571,-4.4159,-4.4159,-4.3482,-4.3138,-4.3138,-4.3138,-4.3883,-4.5288,-4.4555,-4.47,-4.5533,-4.5533,-4.5595,-4.5703,-4.5703,-4.5717,-4.5731,-4.5717,-4.5717,-4.5737,-4.5737,-4.5815,-4.6008,-4.679,-4.6642,-4.6364,-4.7875,-4.7429,-4.6565,-4.8083,-4.8097,-4.7772,-4.869,-4.9469,-5.0034,-5.0131,-5.0735,-5.13,-5.13,-5.13,-5.13,-5.13,-5.13,-5.13,-5.13,-5.13,-5.13,-5.13,-5.13,-5.1047,-5.0287,-5.017,-5.017,-5.017,-4.8709,-4.7969,-4.8705,-4.7322,-4.6302,-4.6205,-4.6298,-4.6297,-4.61,-4.6095,-4.6066,-4.6002,-4.6002,-4.6007,-4.6022,-4.6022,-4.6056,-4.6119,-4.6111,-4.6128,-4.6204,-4.6189,-4.6167,-2.3308,-2.6823,-3.0829,0.0,0.0,0.0,0.0,0.0,0.0,0.0,0.0,0.0,0.0,0.0,0.0,0.0,0.0,0.0,0.0,0.0,0.0,0.0,0.0,0.0,0.0,0.0,0.0,0.0,0.0,0.0,-4.3483,-4.3809,-4.3963,-4.3895,-4.3522,-4.334,-4.3329,-4.2985,-4.2794,-4.2794,-4.2794,-4.3195,-4.3883,-4.3501,-4.4086,-4.539,-4.539,-4.5419,-4.5482,-4.5482,-4.5524,-4.5579,-4.5498,-4.5524,-4.5595,-4.5595,-4.5595,-4.5642,-4.6107,-4.602,-4.5819,-4.6593,-4.6658,-4.6498,-4.6823,-4.7004,-4.719,-4.7753,-4.8151,-4.8574,-4.9165,-4.9956,-5.0579,-5.0579,-5.095,-5.13,-5.13,-5.13,-5.13,-5.13,-5.13,-5.13,-5.13,-5.13,-5.1164,-5.0794,-5.0735,-5.056,-5.0053,-4.8962,-4.8183,-4.8086,-4.6956,-4.6196,-4.6204,-4.6193,-4.6201,-4.616,-4.6114,-4.6095,-4.6061,-4.6026,-4.6002,-4.6002,-4.6002,-4.6027,-4.6093,-4.6093,-4.6115,-4.6139,-4.6142,-4.6127,0.0,0.0,-2.7559,0.0,0.0,0.0,0.0,0.0,0.0,0.0,0.0,0.0,0.0,0.0,0.0,0.0,0.0,0.0,0.0,0.0,0.0,0.0,0.0,0.0,0.0,0.0,0.0,0.0,0.0,0.0,-4.2663,-4.282,-4.2899,-4.2833,-4.2613,-4.2508,-4.2508,-4.2278,-4.2278,-4.2469,-4.2259,-4.2488,-4.31,-4.2889,-4.3596,-4.4972,-4.4972,-4.4972,-4.4991,-4.5201,-4.5361,-4.5447,-4.535,-4.5361,-4.5456,-4.5456,-4.5456,-4.5464,-4.5563,-4.5603,-4.5623,-4.5835,-4.6209,-4.6553,-4.6352,-4.6445,-4.6733,-4.7326,-4.7317,-4.7379,-4.8414,-4.9114,-4.962,-4.9849,-5.0412,-5.0984,-5.1238,-5.13,-5.13,-5.13,-5.13,-5.13,-5.13,-5.13,-5.13,-5.13,-5.1106,-5.0735,-5.0073,-4.9099,-4.8222,-4.756,-4.6725,-4.6199,-4.6199,-4.6204,-4.6193,-4.6209,-4.6156,-4.6114,-4.61,-4.6042,-4.6026,-4.6002,-4.6002,-4.6032,-4.61,-4.61,-4.609,-4.6098,-4.6108,-4.6108,0.0,-2.2971,0.0,0.0,0.0,0.0,0.0,0.0,0.0,0.0,0.0,0.0,0.0,0.0,0.0,0.0,0.0,0.0,0.0,0.0,0.0,0.0,0.0,0.0,0.0,0.0,0.0,0.0,0.0,0.0,-4.178,-4.2548,-4.2963,-4.2899,-4.2086,-4.1657,-4.1657,-4.0845,-4.0807,-4.1552,-4.0788,-4.1657,-4.3911,-4.3157,-4.3271,-4.4064,-4.4064,-4.4064,-4.4121,-4.4953,-4.5307,-4.5317,-4.5307,-4.5307,-4.5298,-4.5298,-4.5298,-4.5298,-4.5309,-4.5319,-4.5453,-4.6207,-4.5959,-4.5704,-4.7443,-4.6843,-4.5954,-4.7746,-4.7647,-4.7201,-4.8106,-4.8365,-4.859,-4.9415,-4.9757,-5.0144,-5.1089,-5.13,-5.13,-5.13,-5.13,-5.13,-5.13,-5.13,-5.13,-5.13,-5.0599,-5.0053,-5.0014,-4.8573,-4.754,-4.7501,-4.6725,-4.6199,-4.6199,-4.6196,-4.6208,-4.6209,-4.6205,-4.6165,-4.61,-4.61,-4.6066,-4.6002,-4.6002,-4.6032,-4.61,-4.61,-4.609,-4.6098,-4.6102,-4.6141,0.0,0.0,0.0,0.0,0.0,0.0,0.0,0.0,0.0,0.0,0.0,0.0,0.0,0.0,0.0,0.0,0.0,0.0,0.0,0.0,0.0,0.0,0.0,0.0,0.0,0.0,0.0,0.0,0.0,0.0,-4.0844,-4.0581,-4.0662,-4.116,-4.0855,-4.0673,-4.0634,-4.028,-4.026,-4.0526,-4.02,-4.0522,-4.1358,-4.1073,-4.1092,-4.1434,-4.2517,-4.3303,-4.3939,-4.4718,-4.5038,-4.5038,-4.5038,-4.5038,-4.5038,-4.5038,-4.5038,-4.5038,-4.5038,-4.5038,-4.5095,-4.538,-4.5273,-4.5277,-4.6454,-4.6382,-4.6045,-4.6858,-4.6858,-4.6579,-4.6414,-4.6783,-4.759,-4.9106,-4.9896,-5.0477,-5.1056,-5.1239,-5.13,-5.13,-5.13,-5.13,-5.13,-5.13,-5.13,-5.13,-5.056,-4.9995,-4.9995,-4.8534,-4.7501,-4.7501,-4.6725,-4.6199,-4.6199,-4.6199,-4.6196,-4.6208,-4.6197,-4.6181,-4.6165,-4.6113,-4.6099,-4.6051,-4.6051,-4.6056,-4.6037,-4.6037,-4.6042,-4.6052,-4.6085,-4.6107,-2.0013,0.0,0.0,0.0,0.0,0.0,0.0,0.0,0.0,0.0,0.0,0.0,0.0,0.0,0.0,0.0,0.0,0.0,0.0,0.0,0.0,0.0,0.0,0.0,0.0,0.0,0.0,0.0,0.0,0.0,-3.947,-3.8892,-3.8811,-3.9347,-3.991,-4.0043,-3.9679,-3.9905,-4.0017,-4.0017,-3.9701,-3.9832,-4.0382,-4.0097,-4.0106,-4.0463,-4.2109,-4.3027,-4.3418,-4.4476,-4.4895,-4.4895,-4.4895,-4.4895,-4.4895,-4.4895,-4.4895,-4.4895,-4.4895,-4.4895,-4.4895,-4.4919,-4.4907,-4.499,-4.5564,-4.5893,-4.6126,-4.6256,-4.65,-4.6611,-4.6133,-4.6624,-4.7595,-4.8914,-4.9846,-5.0508,-5.0801,-5.1053,-5.1243,-5.1292,-5.13,-5.13,-5.13,-5.13,-5.13,-5.13,-5.056,-4.9898,-4.9625,-4.8378,-4.7384,-4.7092,-4.655,-4.6199,-4.6199,-4.6199,-4.6199,-4.6199,-4.6204,-4.6197,-4.6209,-4.6154,-4.6126,-4.6098,-4.6098,-4.608,-4.6027,-4.6027,-4.6027,-4.6027,-4.6085,-4.6119,0.0,0.0,0.0,0.0,0.0,0.0,0.0,0.0,0.0,0.0,0.0,0.0,0.0,0.0,0.0,0.0,0.0,0.0,0.0,0.0,0.0,0.0,0.0,0.0,0.0,0.0,0.0,0.0,0.0,-3.7672,-3.7691,-3.7691,-3.7684,-3.7688,-3.9261,-3.9671,-3.8775,-3.9612,-4.0058,-4.0039,-3.9203,-3.9679,-4.1315,-4.044,-4.0485,-4.1334,-4.2928,-4.314,-4.2496,-4.4182,-4.4883,-4.4883,-4.4883,-4.4883,-4.4883,-4.4883,-4.4883,-4.4883,-4.4883,-4.4883,-4.4895,-4.4955,-4.4931,-4.4895,-4.4993,-4.5519,-4.6095,-4.6095,-4.6702,-4.7352,-4.7333,-4.792,-4.8567,-4.8781,-4.9438,-5.0119,-5.0326,-5.0732,-5.1128,-5.1256,-5.1292,-5.1292,-5.1296,-5.1296,-5.1296,-5.1296,-5.056,-4.9722,-4.8962,-4.8066,-4.7189,-4.6355,-4.6238,-4.6199,-4.6199,-4.6199,-4.6199,-4.6199,-4.6199,-4.6208,-4.6209,-4.6209,-4.6177,-4.6098,-4.6098,-4.6098,-4.6098,-4.6098,-4.6098,-4.6098,-4.6098,-4.6144,-1.912,0.0,0.0,0.0,0.0,0.0,0.0,0.0,0.0,0.0,0.0,0.0,0.0,0.0,0.0,0.0,0.0,0.0,0.0,0.0,0.0,0.0,0.0,0.0,0.0,0.0,0.0,0.0,-3.7076,-3.6964,-3.7584,-3.7538,-3.748,-3.7479,-3.7916,-3.8049,-3.7782,-3.8614,-3.8999,-3.8999,-3.8721,-3.9134,-4.0144,-3.9323,-3.9369,-4.0197,-4.1281,-4.1609,-4.1553,-4.3819,-4.4738,-4.4685,-4.4685,-4.4659,-4.4605,-4.4605,-4.4605,-4.4605,-4.4605,-4.4605,-4.4605,-4.4632,-4.4619,-4.4732,-4.531,-4.569,-4.5887,-4.5887,-4.6121,-4.6237,-4.5613,-4.6008,-4.6639,-4.6891,-4.7966,-4.9043,-4.9386,-5.0067,-5.0668,-5.0879,-5.094,-5.0972,-5.1139,-5.1206,-5.123,-5.123,-5.054,-5.0151,-5.056,-4.8787,-4.7657,-4.8047,-4.6956,-4.6199,-4.6199,-4.6199,-4.6199,-4.6199,-4.6199,-4.6196,-4.6189,-4.6208,-4.6189,-4.6162,-4.6162,-4.6162,-4.6162,-4.6111,-4.6098,-4.6098,-4.6157,-4.6187,0.0,0.0,0.0,0.0,0.0,0.0,0.0,-2.0466,0.0,0.0,0.0,0.0,0.0,0.0,0.0,0.0,0.0,0.0,0.0,0.0,0.0,0.0,0.0,0.0,0.0,0.0,0.0,0.0,-3.6035,-3.5941,-3.6454,-3.6729,-3.6737,-3.6367,-3.704,-3.7249,-3.6908,-3.7701,-3.8285,-3.8637,-3.8234,-3.8647,-3.9751,-3.8961,-3.9006,-3.9804,-4.0695,-4.1073,-4.1194,-4.2982,-4.3894,-4.4162,-4.4474,-4.4584,-4.4542,-4.4515,-4.4501,-4.4501,-4.4501,-4.4501,-4.4496,-4.4524,-4.451,-4.459,-4.5087,-4.5491,-4.5768,-4.5768,-4.6106,-4.6336,-4.5827,-4.604,-4.6406,-4.6579,-4.7562,-4.8524,-4.8769,-4.9484,-5.0222,-5.0647,-5.0778,-5.0884,-5.0992,-5.1117,-5.1196,-5.1196,-5.0792,-5.0557,-5.0694,-4.9428,-4.844,-4.8234,-4.7319,-4.6567,-4.6235,-4.6199,-4.6199,-4.6199,-4.6199,-4.6199,-4.6199,-4.6199,-4.6199,-4.6199,-4.6199,-4.6199,-4.6199,-4.6154,-4.6142,-4.6146,-4.617,-4.6203,0.0,0.0,0.0,0.0,0.0,0.0,-2.106,-2.1753,0.0,0.0,0.0,0.0,0.0,0.0,0.0,0.0,0.0,0.0,0.0,0.0,0.0,0.0,0.0,0.0,0.0,0.0,-3.4624,-3.4624,-3.4718,-3.4813,-3.4908,-3.5628,-3.5704,-3.4927,-3.6348,-3.6794,-3.6074,-3.687,-3.7704,-3.8557,-3.778,-3.8281,-3.9862,-3.9058,-3.9113,-3.9853,-4.0692,-4.1014,-4.1025,-4.1916,-4.2765,-4.358,-4.4231,-4.4544,-4.4605,-4.4537,-4.451,-4.451,-4.451,-4.4528,-4.4528,-4.4578,-4.4551,-4.4515,-4.4565,-4.5059,-4.558,-4.5594,-4.6201,-4.6826,-4.6826,-4.6869,-4.691,-4.6924,-4.7603,-4.824,-4.8164,-4.8914,-4.9749,-5.0278,-5.0621,-5.082,-5.0844,-5.1004,-5.113,-5.1147,-5.1153,-5.0886,-5.0144,-4.9964,-4.9333,-4.7835,-4.7505,-4.7129,-4.6512,-4.638,-4.6325,-4.6329,-4.6329,-4.6293,-4.6199,-4.6199,-4.6199,-4.6199,-4.6199,-4.6199,-4.6199,-4.6199,-4.6199,-4.6199,-4.6199,-4.6203,0.0,0.0,0.0,0.0,0.0,0.0,-1.9965,-2.012,0.0,0.0,0.0,0.0,0.0,0.0,0.0,0.0,0.0,0.0,0.0,0.0,0.0,0.0,0.0,0.0,0.0,0.0,-3.2899,-3.2899,-3.3543,-3.4226,-3.487,-3.5059,-3.5078,-3.4908,-3.5211,-3.5306,-3.5154,-3.6007,-3.6851,-3.7647,-3.7476,-3.8281,-3.9862,-3.9058,-3.9134,-3.9889,-4.0071,-4.0146,-4.0211,-4.1075,-4.229,-4.3599,-4.3737,-4.4171,-4.4685,-4.4672,-4.4659,-4.4659,-4.4659,-4.4619,-4.4578,-4.4592,-4.4551,-4.4501,-4.4515,-4.465,-4.4837,-4.4872,-4.503,-4.5176,-4.5176,-4.5135,-4.5122,-4.5157,-4.6334,-4.7267,-4.6679,-4.7772,-4.8926,-4.9055,-4.9716,-5.0306,-5.0469,-5.0567,-5.0692,-5.0855,-5.0919,-5.0952,-5.0957,-5.033,-4.977,-4.9444,-4.816,-4.7547,-4.8102,-4.7481,-4.7115,-4.7153,-4.717,-4.6879,-4.6235,-4.6199,-4.6199,-4.6199,-4.6199,-4.6199,-4.6199,-4.6199,-4.6199,-4.6199,-4.6199,-4.6203,0.0,0.0,0.0,-2.2556,0.0,0.0,0.0,-2.0255,-2.0355,0.0,0.0,0.0,0.0,0.0,0.0,0.0,0.0,0.0,0.0,0.0,0.0,0.0,0.0,0.0,0.0,0.0,-3.2397,-3.2397,-3.2804,-3.324,-3.3638,-3.4074,-3.4301,-3.4301,-3.468,-3.4908,-3.4908,-3.5325,-3.6159,-3.7401,-3.7401,-3.8281,-3.99,-3.9475,-3.9532,-3.99,-3.99,-3.99,-3.9938,-4.0374,-4.1291,-4.2487,-4.3295,-4.3825,-4.4203,-4.4574,-4.4712,-4.4712,-4.4712,-4.4685,-4.4646,-4.4646,-4.4632,-4.4592,-4.4592,-4.4592,-4.4605,-4.4646,-4.4646,-4.4646,-4.4646,-4.4646,-4.4659,-4.4699,-4.5674,-4.6625,-4.6673,-4.7729,-4.8791,-4.9216,-4.9681,-5.0063,-5.0275,-5.0415,-5.0519,-5.0642,-5.0677,-5.0769,-5.0972,-5.0623,-5.0222,-4.9932,-4.9129,-4.8605,-4.8651,-4.8244,-4.7801,-4.7374,-4.7344,-4.6964,-4.6137,-4.6098,-4.6126,-4.615,-4.6189,-4.6199,-4.6199,-4.6199,-4.6199,-4.6199,-4.6199,-4.6199,0.0,0.0,0.0,0.0,0.0,-2.3045,0.0,0.0,0.0,-2.0933,0.0,0.0,0.0,0.0,0.0,0.0,0.0,0.0,0.0,0.0,0.0,0.0,0.0,0.0,0.0,0.0,-3.1775,-3.2132,-3.2125,-3.22,-3.2379,-3.307,-3.3524,-3.3695,-3.432,-3.4737,-3.4908,-3.4908,-3.5666,-3.7173,-3.7325,-3.8205,-3.9673,-3.9824,-3.99,-3.99,-3.99,-3.99,-3.99,-3.99,-4.0317,-4.1094,-4.2562,-4.3333,-4.3692,-4.4291,-4.4618,-4.4751,-4.4751,-4.4738,-4.4725,-4.4725,-4.4712,-4.4712,-4.4712,-4.4659,-4.4619,-4.4619,-4.4619,-4.4619,-4.4619,-4.4646,-4.4685,-4.4685,-4.5359,-4.6183,-4.6887,-4.76,-4.8364,-4.9227,-4.9392,-4.9572,-5.0057,-5.0287,-5.0402,-5.0445,-5.0436,-5.0518,-5.0715,-5.0733,-5.0576,-5.0125,-4.9918,-4.9638,-4.9206,-4.8866,-4.8356,-4.7602,-4.7388,-4.6921,-4.6056,-4.6017,-4.6032,-4.6108,-4.6146,-4.6177,-4.6154,-4.6165,-4.6192,-4.6199,-4.6199,-4.6199,0.0,0.0,0.0,0.0,-2.5474,0.0,0.0,0.0,-2.183,-1.9793,0.0,0.0,0.0,0.0,0.0,0.0,0.0,0.0,0.0,0.0,0.0,0.0,0.0,0.0,0.0,0.0,0.0,-3.1214,-3.1176,-3.1459,-3.236,-3.2492,-3.2899,-3.3676,-3.379,-3.4188,-3.4889,-3.4908,-3.5382,-3.6339,-3.7059,-3.7912,-3.886,-3.9559,-3.99,-3.99,-3.99,-3.99,-3.99,-3.99,-3.9957,-4.0146,-4.1113,-4.2382,-4.3708,-4.3772,-4.4264,-4.487,-4.487,-4.4833,-4.4802,-4.4802,-4.4751,-4.4712,-4.4712,-4.468,-4.4699,-4.4699,-4.4699,-4.4699,-4.4699,-4.4646,-4.4605,-4.4605,-4.5278,-4.5946,-4.6108,-4.6216,-4.6544,-4.7424,-4.7602,-4.8102,-4.966,-4.9946,-5.0031,-5.0206,-5.023,-5.0301,-5.051,-5.0529,-5.0587,-5.0684,-5.0011,-4.9896,-5.0739,-4.9465,-4.8577,-4.8458,-4.7786,-4.6999,-4.6128,-4.6089,-4.608,-4.6105,-4.611,-4.6081,-4.6017,-4.6084,-4.6142,-4.6199,-4.6199,-4.6199,0.0,0.0,0.0,0.0,0.0,0.0,0.0,0.0,-2.1906,0.0,0.0,0.0,0.0,0.0,0.0,0.0,0.0,0.0,0.0,0.0,0.0,0.0,0.0,0.0,0.0,0.0,0.0,0.0,0.0,-2.9178,-3.0191,-3.1185,-3.2103,-3.2918,-3.3449,-3.4093,-3.4889,-3.4908,-3.5344,-3.6206,-3.7021,-3.7856,-3.8727,-3.9532,-3.99,-3.99,-3.99,-3.99,-3.99,-3.99,-4.0203,-4.0639,-4.0506,-4.1473,-4.3019,-4.3512,-4.4213,-4.4895,-4.4895,-4.487,-4.4846,-4.4846,-4.4833,-4.4827,-4.4827,-4.4783,-4.4764,-4.4764,-4.4738,-4.4712,-4.4712,-4.4685,-4.4646,-4.4605,-4.4888,-4.5297,-4.5832,-4.6326,-4.6965,-4.7878,-4.8448,-4.9037,-4.9765,-4.9912,-4.9933,-5.0,-5.0044,-5.0094,-5.0312,-5.0331,-5.0406,-5.0605,-4.9989,-4.9734,-5.0197,-4.9227,-4.8382,-4.7891,-4.7497,-4.7115,-4.6757,-4.7261,-4.731,-4.6809,-4.6805,-4.6557,-4.6061,-4.6052,-4.6066,-4.6084,-4.6158,-4.6199,-2.9192,0.0,0.0,0.0,0.0,0.0,0.0,0.0,0.0,0.0,0.0,0.0,0.0,0.0,0.0,0.0,0.0,0.0,0.0,0.0,0.0,0.0,0.0,0.0,0.0,0.0,0.0,0.0,-2.7014,-2.7298,-2.7929,-2.9744,-3.1255,-3.236,-3.3013,-3.3847,-3.4889,-3.4908,-3.5211,-3.5855,-3.6908,-3.7742,-3.8386,-3.9407,-3.99,-3.99,-3.99,-3.99,-3.99,-3.99,-4.0279,-4.079,-4.0412,-4.1132,-4.2477,-4.3114,-4.4004,-4.4895,-4.4895,-4.4895,-4.4895,-4.4895,-4.4895,-4.4895,-4.4895,-4.4877,-4.4821,-4.4821,-4.4783,-4.4745,-4.4745,-4.4751,-4.4725,-4.4672,-4.4646,-4.4934,-4.6048,-4.6401,-4.6914,-4.8332,-4.8902,-4.9232,-4.9492,-4.9746,-4.9912,-4.9912,-4.9912,-4.994,-5.0094,-5.0118,-5.0195,-5.0399,-5.0038,-4.9815,-4.995,-4.9071,-4.8068,-4.7012,-4.7344,-4.7481,-4.7248,-4.8111,-4.8186,-4.732,-4.7303,-4.6886,-4.6046,-4.6002,-4.5997,-4.5991,-4.6093,-4.6146,0.0,0.0,0.0,-2.8148,0.0,0.0,0.0,0.0,-2.2775,0.0,0.0,0.0,0.0,0.0,-2.0358,-2.0358,0.0,0.0,0.0,0.0,0.0,0.0,0.0,0.0,0.0,0.0,0.0,-2.3401,-2.5392,-2.6468,-2.6115,-2.8347,-3.0498,-3.2341,-3.2416,-3.324,-3.4889,-3.4908,-3.4908,-3.4965,-3.6613,-3.742,-3.7495,-3.9142,-3.99,-3.99,-3.99,-3.99,-3.99,-3.99,-3.9919,-4.0014,-4.0828,-4.1662,-4.2401,-4.242,-4.3493,-4.4895,-4.4895,-4.4895,-4.4895,-4.4895,-4.4895,-4.4895,-4.4895,-4.4895,-4.4895,-4.4895,-4.4914,-4.4883,-4.4883,-4.4852,-4.4815,-4.4783,-4.4732,-4.5178,-4.6881,-4.59,-4.5469,-4.8091,-4.7894,-4.7583,-4.8497,-4.934,-4.9912,-4.9912,-4.9912,-4.9893,-4.9906,-4.9906,-4.9993,-5.0183,-5.0199,-5.0359,-5.0824,-4.9301,-4.7655,-4.6147,-4.7628,-4.8186,-4.7331,-4.8133,-4.82,-4.7311,-4.7292,-4.6833,-4.5917,-4.5975,-4.6005,-4.5997,-4.5991,-4.6007,0.0,0.0,-3.0803,-3.0033,0.0,0.0,0.0,0.0,0.0,0.0,0.0,0.0,0.0,0.0,-2.0861,-2.03,-1.9975,-1.9605,0.0,0.0,0.0,0.0,0.0,0.0,0.0,0.0,0.0,-2.1275,-2.2601,-2.3652,0.0,-2.719,-2.9678,-3.1545,-3.2113,-3.3202,-3.4889,-3.4908,-3.4908,-3.4908,-3.6064,-3.6889,-3.7438,-3.8584,-3.9399,-3.99,-3.99,-3.99,-3.99,-3.99,-4.0544,-4.1529,-4.1283,-4.2363,-4.3985,-4.3455,-4.3966,-4.4895,-4.4895,-4.4895,-4.4895,-4.4895,-4.4895,-4.4895,-4.4895,-4.4895,-4.4895,-4.4895,-4.4895,-4.4895,-4.4895,-4.487,-4.4846,-4.4808,-4.5218,-4.5627,-4.5581,-4.5997,-4.6501,-4.6876,-4.7621,-4.8291,-4.8621,-4.8872,-4.9232,-4.9803,-4.9912,-4.9912,-4.9912,-4.9912,-4.9717,-4.92,-4.9255,-4.917,-4.8755,-4.8463,-4.8139,-4.7759,-4.8819,-4.9324,-4.9027,-4.9862,-4.9643,-4.8194,-4.8157,-4.7447,-4.596,-4.5941,-4.5935,-4.5923,-4.5935,-4.5964,-3.3085,-3.2256,0.0,-3.059,-2.9101,0.0,-2.7037,0.0,0.0,0.0,0.0,0.0,0.0,0.0,-2.1888,-2.0777,-2.0353,-1.9867,0.0,-1.8861,0.0,0.0,0.0,0.0,0.0,0.0,-1.8272,-1.8564,-2.0168,-2.1507,0.0,0.0,-2.8774,-3.1012,-3.19,-3.3166,-3.4917,-3.4936,-3.4936,-3.4955,-3.6074,-3.6908,-3.7438,-3.8603,-3.9418,-3.99,-3.99,-3.99,-3.99,-3.99,-4.0715,-4.1946,-4.1719,-4.2791,-4.4402,-4.3891,-4.4213,-4.4895,-4.4895,-4.4895,-4.4895,-4.4895,-4.4895,-4.4895,-4.4895,-4.4895,-4.4895,-4.4895,-4.4895,-4.4895,-4.4895,-4.4895,-4.4883,-4.4852,-4.5269,-4.5597,-4.5299,-4.5842,-4.6435,-4.6537,-4.7225,-4.7863,-4.8174,-4.8204,-4.857,-4.9728,-4.9638,-4.9562,-4.9874,-4.9619,-4.9213,-4.8648,-4.8422,-4.8121,-4.764,-4.8604,-4.8885,-4.8083,-4.9186,-4.9592,-4.8978,-5.0078,-5.0181,-4.9054,-4.8751,-4.8047,-4.6921,-4.6263,-4.5935,-4.5949,-4.5949,-4.5941]},{"header":{"parameterUnit":"m.s-1","parameterCategory":1,"la1":30.6,"la2":29.2853,"lo1":-89.7004,"lo2":-87.6739,"dy":0.0162,"dx":0.0183,"nx":112,"ny":82,"refTime":"2023-06-30T12:00:00:Z","depth":0,"parameterNumber":3,"parameterNumberName":"V-component_of_WINDS"},"data":[0.0,0.0,0.0,0.0,0.0,0.0,0.0,0.0,0.0,0.0,0.0,0.0,0.0,0.0,0.0,0.0,0.0,0.0,0.0,0.0,0.0,0.0,0.0,0.0,0.0,0.0,0.0,0.0,0.0,0.0,0.0,0.0,0.0,0.0,0.0,0.0,0.0,0.0,0.0,0.0,0.0,0.0,0.0,0.0,0.0,0.0,0.0,0.0,0.0,0.0,0.0,0.0,0.0,0.0,0.0,0.0,0.0,0.0,0.0,0.0,0.0,0.0,0.0,0.0,0.0,0.0,0.0,0.0,0.0,0.0,0.0,0.0,0.0,0.0,0.0,0.0,0.0,0.0,0.0,0.0,0.0,0.0,0.0,0.0,0.0,0.0,0.0,0.0,0.0,0.0,0.0,-1.018,-1.2324,-1.3709,-1.3989,-1.3267,-1.1886,-0.9767,0.0,0.0,0.0,0.0,0.0,0.0,0.0,0.0,0.0,0.0,0.0,0.0,0.0,0.0,0.0,0.0,0.0,0.0,0.0,0.0,0.0,0.0,0.0,0.0,0.0,0.0,0.0,0.0,0.0,0.0,0.0,0.0,0.0,0.0,0.0,0.0,0.0,0.0,0.0,0.0,0.0,0.0,0.0,0.0,0.0,0.0,0.0,0.0,0.0,0.0,0.0,0.0,0.0,0.0,0.0,0.0,0.0,0.0,0.0,0.0,0.0,0.0,0.0,0.0,0.0,0.0,0.0,0.0,0.0,0.0,0.0,0.0,0.0,0.0,0.0,0.0,0.0,0.0,0.0,0.0,0.0,0.0,0.0,0.0,0.0,0.0,0.0,0.0,0.0,0.0,0.0,0.0,0.0,0.0,0.0,0.0,0.0,0.0,0.0,0.0,0.0,0.0,0.0,0.0,-0.9078,-1.2146,-1.3574,-1.4196,-1.3773,-1.2936,-1.151,-0.9423,0.0,0.0,0.0,0.0,0.0,0.0,0.0,0.0,0.0,0.0,0.0,0.0,0.0,0.0,0.0,0.0,0.0,0.0,0.0,0.0,0.0,0.0,0.0,0.0,0.0,0.0,0.0,0.0,0.0,0.0,0.0,0.0,0.0,0.0,0.0,0.0,0.0,0.0,0.0,0.0,0.0,0.0,0.0,0.0,0.0,0.0,0.0,0.0,0.0,0.0,0.0,0.0,0.0,0.0,0.0,0.0,0.0,0.0,0.0,0.0,0.0,0.0,0.0,0.0,0.0,0.0,0.0,0.0,0.0,0.0,0.0,0.0,0.0,0.0,0.0,0.0,0.0,0.0,0.0,0.0,0.0,0.0,0.0,0.0,0.0,0.0,0.0,0.0,0.0,0.0,0.0,0.0,0.0,0.0,0.0,0.0,0.0,0.0,0.0,0.0,0.0,0.0,0.0,-0.8432,-1.0482,-1.3028,-1.3767,-1.4009,-1.3926,-1.2908,-1.1414,-0.9336,-0.8731,0.0,0.0,0.0,0.0,0.0,0.0,0.0,0.0,0.0,0.0,0.0,0.0,0.0,0.0,0.0,0.0,0.0,0.0,0.0,0.0,0.0,0.0,0.0,0.0,0.0,0.0,0.0,0.0,0.0,0.0,0.0,0.0,0.0,0.0,0.0,0.0,0.0,0.0,0.0,0.0,0.0,0.0,0.0,0.0,0.0,0.0,0.0,0.0,0.0,0.0,0.0,0.0,0.0,0.0,0.0,0.0,0.0,0.0,0.0,0.0,0.0,0.0,0.0,0.0,0.0,0.0,0.0,0.0,0.0,0.0,0.0,0.0,0.0,0.0,0.0,0.0,0.0,0.0,0.0,0.0,0.0,0.0,0.0,0.0,0.0,0.0,0.0,0.0,0.0,0.0,0.0,0.0,0.0,0.0,0.0,0.0,0.0,0.0,0.0,0.0,0.0,0.0,-0.9766,-1.1368,-1.3293,-1.3594,-1.3739,-1.3888,-1.2779,-1.1216,-0.9237,-0.8285,0.0,0.0,0.0,0.0,0.0,0.0,0.0,0.0,0.0,0.0,0.0,0.0,0.0,0.0,0.0,0.0,0.0,0.0,0.0,0.0,0.0,0.0,0.0,0.0,0.0,0.0,0.0,0.0,0.0,0.0,0.0,0.0,0.0,0.0,0.0,0.0,0.0,0.0,0.0,0.0,0.0,0.0,0.0,0.0,0.0,0.0,0.0,0.0,0.0,0.0,0.0,0.0,0.0,0.0,0.0,0.0,0.0,0.0,0.0,0.0,0.0,0.0,0.0,0.0,0.0,0.0,0.0,0.0,0.0,0.0,0.0,0.0,0.0,0.0,0.0,0.0,0.0,0.0,0.0,0.0,0.0,0.0,0.0,0.0,0.0,0.0,0.0,0.0,0.0,0.0,0.0,0.0,0.0,0.0,0.0,0.0,0.0,0.0,0.0,0.0,0.0,0.0,-0.9695,-1.1133,-1.3014,-1.346,-1.3527,-1.3293,-1.2178,-1.0696,-0.8951,-0.802,0.0,0.0,0.0,0.0,0.0,0.0,0.0,0.0,0.0,0.0,0.0,0.0,0.0,0.0,0.0,0.0,0.0,0.0,0.0,0.0,0.0,0.0,0.0,0.0,0.0,0.0,0.0,0.0,0.0,0.0,0.0,0.0,0.0,0.0,0.0,0.0,0.0,0.0,0.0,0.0,0.0,0.0,0.0,0.0,0.0,0.0,0.0,0.0,0.0,0.0,0.0,0.0,0.0,0.0,0.0,0.0,0.0,0.0,0.0,0.0,0.0,0.0,0.0,0.0,0.0,0.0,0.0,0.0,0.0,0.0,0.0,0.0,0.0,0.0,0.0,0.0,0.0,0.0,0.0,0.0,0.0,0.0,0.0,0.0,0.0,0.0,0.0,0.0,0.0,0.0,0.0,0.0,0.0,0.0,0.0,0.0,0.0,0.0,0.0,0.0,0.0,0.0,-0.9577,-1.0926,0.0,-1.2856,-1.2942,-1.2432,-1.179,-1.0569,-0.8657,0.0,0.0,0.0,0.0,0.0,0.0,0.0,0.0,0.0,0.0,0.0,0.0,0.0,0.0,0.0,0.0,0.0,0.0,0.0,0.0,0.0,0.0,0.0,0.0,0.0,0.0,0.0,0.0,0.0,0.0,0.0,0.0,0.0,0.0,0.0,0.0,0.0,0.0,0.0,0.0,0.0,0.0,0.0,0.0,0.0,0.0,0.0,0.0,0.0,0.0,0.0,0.0,0.0,0.0,0.0,0.0,0.0,0.0,0.0,0.0,0.0,0.0,0.0,0.0,0.0,0.0,0.0,0.0,0.0,0.0,0.0,0.0,0.0,0.0,0.0,0.0,0.0,0.0,0.0,0.0,0.0,0.0,0.0,0.0,0.0,0.0,0.0,0.0,0.0,0.0,0.0,0.0,0.0,0.0,0.0,0.0,0.0,0.0,0.0,0.0,0.0,0.0,-0.8039,-0.9596,-1.0913,0.0,-1.2386,-1.2447,-1.1797,-1.1283,-1.0214,-0.835,0.0,0.0,0.0,0.0,0.0,0.0,0.0,0.0,0.0,0.0,0.0,0.0,0.0,0.0,0.0,0.0,0.0,0.0,0.0,0.0,0.0,0.0,0.0,0.0,0.0,0.0,0.0,0.0,0.0,0.0,0.0,0.0,0.0,0.0,0.0,0.0,0.0,0.0,0.0,0.0,0.0,0.0,0.0,0.0,0.0,0.0,0.0,0.0,0.0,0.0,0.0,0.0,0.0,0.0,0.0,0.0,0.0,0.0,0.0,0.0,0.0,0.0,0.0,0.0,0.0,0.0,0.0,0.0,0.0,0.0,0.0,0.0,0.0,0.0,0.0,0.0,0.0,0.0,0.0,0.0,0.0,0.0,0.0,0.0,0.0,0.0,0.0,0.0,0.0,0.0,0.0,0.0,0.0,0.0,0.0,0.0,0.0,0.0,0.0,0.0,0.0,0.0,-0.8001,-0.9798,-1.1209,-1.1826,-1.2118,-1.2051,-1.1429,-1.0576,-0.9457,0.0,0.0,0.0,0.0,0.0,0.0,0.0,0.0,0.0,0.0,0.0,0.0,0.0,0.0,0.0,0.0,0.0,0.0,0.0,0.0,0.0,0.0,0.0,0.0,0.0,0.0,0.0,0.0,0.0,0.0,0.0,0.0,0.0,0.0,0.0,0.0,0.0,0.0,0.0,0.0,0.0,0.0,0.0,0.0,0.0,0.0,0.0,0.0,0.0,0.0,0.0,0.0,0.0,0.0,0.0,0.0,0.0,0.0,0.0,0.0,0.0,0.0,0.0,0.0,0.0,0.0,0.0,0.0,0.0,0.0,0.0,0.0,0.0,0.0,0.0,0.0,0.0,0.0,0.0,0.0,0.0,0.0,0.0,0.0,0.0,0.0,0.0,0.0,0.0,0.0,0.0,0.0,0.0,0.0,0.0,0.0,0.0,0.0,0.0,0.0,0.0,0.0,0.0,0.0,-0.9564,-1.0787,-1.0961,-1.139,-1.1329,-1.0536,-1.008,-0.9178,-0.7718,0.0,0.0,0.0,0.0,0.0,0.0,0.0,0.0,0.0,0.0,0.0,0.0,0.0,0.0,0.0,0.0,0.0,0.0,0.0,0.0,0.0,0.0,0.0,0.0,0.0,0.0,0.0,0.0,0.0,0.0,0.0,0.0,0.0,0.0,0.0,0.0,0.0,0.0,0.0,0.0,0.0,0.0,0.0,0.0,0.0,0.0,0.0,0.0,0.0,0.0,0.0,0.0,0.0,0.0,0.0,0.0,0.0,0.0,0.0,0.0,0.0,0.0,0.0,0.0,0.0,0.0,0.0,0.0,0.0,0.0,0.0,0.0,0.0,0.0,0.0,0.0,0.0,0.0,0.0,0.0,0.0,0.0,0.0,0.0,0.0,0.0,0.0,0.0,0.0,0.0,0.0,0.0,0.0,0.0,0.0,0.0,0.0,0.0,0.0,0.0,0.0,0.0,-0.7778,-0.9337,-1.0459,-1.0579,-1.0875,-1.0775,-1.0007,-0.9673,-0.8978,-0.7729,0.0,0.0,0.0,0.0,0.0,0.0,0.0,0.0,0.0,0.0,0.0,0.0,0.0,0.0,0.0,0.0,0.0,0.0,0.0,0.0,0.0,0.0,0.0,0.0,0.0,0.0,0.0,0.0,0.0,0.0,0.0,0.0,0.0,0.0,0.0,0.0,0.0,0.0,0.0,0.0,0.0,0.0,0.0,0.0,0.0,0.0,0.0,0.0,0.0,0.0,0.0,0.0,0.0,0.0,0.0,0.0,0.0,0.0,0.0,0.0,0.0,0.0,0.0,0.0,0.0,0.0,0.0,0.0,0.0,0.0,0.0,0.0,0.0,0.0,0.0,0.0,0.0,0.0,0.0,0.0,0.0,0.0,0.0,0.0,0.0,0.0,0.0,0.0,0.0,0.0,0.0,0.0,0.0,0.0,0.0,0.0,0.0,0.0,0.0,0.0,0.0,0.0,-0.7748,-0.915,-1.0234,-1.0559,-1.0566,-1.0325,-0.9762,-0.9357,-0.8811,-0.7959,0.0,0.0,0.0,0.0,0.0,0.0,0.0,0.0,0.0,0.0,0.0,0.0,0.0,0.0,0.0,0.0,0.0,0.0,0.0,0.0,0.0,0.0,0.0,0.0,0.0,0.0,0.0,0.0,0.0,0.0,0.0,0.0,0.0,0.0,0.0,0.0,0.0,0.0,0.0,0.0,0.0,0.0,0.0,0.0,0.0,0.0,0.0,0.0,0.0,0.0,0.0,0.0,0.0,0.0,0.0,0.0,0.0,0.0,0.0,0.0,-0.2787,0.0,0.0,0.0,0.0,0.0,0.0,0.0,0.0,0.0,0.0,0.0,0.0,0.0,0.0,0.0,0.0,0.0,0.0,0.0,0.0,0.0,0.0,0.0,0.0,0.0,0.0,0.0,0.0,0.0,0.0,0.0,0.0,0.0,0.0,0.0,0.0,0.0,0.0,0.0,0.0,0.0,-0.7802,-0.9178,-1.0234,-1.0559,-1.0347,-1.0067,-0.9742,-0.9198,-0.8598,-0.7945,0.0,0.0,0.0,0.0,0.0,0.0,0.0,0.0,0.0,0.0,0.0,0.0,0.0,0.0,0.0,0.0,0.0,0.0,0.0,0.0,0.0,0.0,0.0,0.0,0.0,0.0,0.0,0.0,0.0,0.0,0.0,0.0,0.0,0.0,0.0,0.0,0.0,0.0,0.0,0.0,0.0,0.0,0.0,0.0,0.0,0.0,0.0,0.0,0.0,0.0,0.0,0.0,0.0,0.0,0.0,0.0,0.0,0.0,0.0,0.0,0.0,-0.2854,0.0,0.0,0.0,0.0,0.0,0.0,0.0,0.0,0.0,0.0,0.0,0.0,0.0,0.0,0.0,0.0,0.0,0.0,0.0,0.0,0.0,0.0,0.0,0.0,0.0,0.0,0.0,0.0,0.0,0.0,0.0,0.0,0.0,0.0,0.0,0.0,0.0,0.0,0.0,0.0,-0.7846,-0.9184,-1.0234,-1.0559,-1.0167,-0.9846,-0.9699,-0.9145,-0.8677,-0.8345,-0.8065,0.0,0.0,0.0,0.0,0.0,0.0,0.0,0.0,0.0,0.0,0.0,0.0,0.0,0.0,0.0,0.0,0.0,0.0,0.0,0.0,0.0,0.0,0.0,0.0,0.0,0.0,0.0,0.0,0.0,0.0,0.0,0.0,0.0,0.0,0.0,0.0,0.0,0.0,0.0,0.0,0.0,0.0,0.0,0.0,0.0,0.0,0.0,0.0,0.0,0.0,0.0,0.0,0.0,-0.4016,-0.4071,-0.4043,-0.4077,-0.402,-0.3819,-0.3762,-0.3569,-0.331,0.0,0.0,0.0,0.0,0.0,0.0,0.0,0.0,0.0,0.0,0.0,0.0,0.0,0.0,0.0,0.0,0.0,0.0,0.0,0.0,0.0,0.0,0.0,0.0,0.0,-0.561,-0.6034,0.0,0.0,0.0,0.0,0.0,0.0,0.0,0.0,0.0,0.0,0.0,0.0,-0.7952,-0.9217,-1.0234,-1.0559,-1.0064,-0.9715,-0.9715,-0.9145,-0.8804,-0.8804,-0.8325,-0.7988,0.0,0.0,0.0,0.0,0.0,0.0,0.0,0.0,0.0,0.0,0.0,0.0,0.0,0.0,0.0,0.0,0.0,0.0,0.0,0.0,0.0,0.0,0.0,0.0,0.0,0.0,0.0,0.0,0.0,0.0,0.0,0.0,-0.3324,-0.3394,0.0,0.0,0.0,0.0,0.0,0.0,0.0,0.0,0.0,0.0,0.0,0.0,0.0,0.0,-0.407,-0.4352,-0.4487,-0.4569,-0.4826,-0.4943,-0.4932,-0.4943,-0.4894,-0.4839,-0.4908,0.0,-0.3447,-0.3357,0.0,0.0,0.0,0.0,0.0,0.0,0.0,0.0,0.0,0.0,0.0,0.0,0.0,0.0,0.0,0.0,0.0,0.0,0.0,0.0,0.0,0.0,-0.5668,-0.677,-0.6831,-0.7125,0.0,-0.7944,-0.6827,-0.7057,0.0,0.0,0.0,0.0,0.0,0.0,0.0,0.0,-0.8335,-0.9365,-1.0234,-1.0559,-1.0064,-0.9715,-0.9715,-0.9145,-0.8804,-0.8804,-0.8731,-0.8438,-0.7902,-0.8277,0.0,0.0,0.0,0.0,0.0,0.0,0.0,0.0,0.0,0.0,0.0,0.0,0.0,0.0,0.0,0.0,0.0,0.0,0.0,0.0,0.0,0.0,0.0,0.0,0.0,0.0,0.0,0.0,0.0,-0.3297,-0.361,-0.3434,-0.3532,-0.3492,0.0,0.0,0.0,0.0,0.0,0.0,0.0,0.0,0.0,-0.4059,-0.43,-0.4463,-0.4545,-0.4912,-0.5118,-0.5159,-0.5328,-0.5382,-0.5333,-0.5333,-0.5286,-0.5254,-0.5268,-0.4957,-0.4352,-0.4062,-0.3674,-0.3368,0.0,0.0,0.0,0.0,0.0,-0.4524,-0.4789,-0.4923,0.0,0.0,0.0,0.0,0.0,0.0,0.0,0.0,0.0,0.0,0.0,0.0,0.0,-0.6005,-0.6235,-0.6559,-0.7383,-0.74,-0.736,0.0,-0.7755,-0.762,-0.7486,0.0,0.0,0.0,0.0,0.0,-0.8579,-0.9623,-1.0445,-1.0579,-1.0064,-0.9715,-0.9715,-0.9145,-0.8804,-0.8804,-0.8804,-0.8691,-0.8412,-0.8612,-0.8321,0.0,0.0,0.0,0.0,0.0,0.0,0.0,0.0,0.0,0.0,0.0,0.0,0.0,0.0,0.0,0.0,0.0,0.0,0.0,0.0,0.0,0.0,0.0,0.0,0.0,0.0,0.0,0.0,-0.3581,-0.3756,-0.3546,-0.3791,-0.3807,0.0,0.0,0.0,0.0,0.0,0.0,-0.4126,-0.4312,-0.4483,-0.4638,-0.4924,-0.5047,-0.5091,-0.5455,-0.5635,-0.568,-0.5667,-0.5653,-0.5647,-0.5647,-0.5588,-0.5484,-0.5484,-0.538,-0.5171,-0.4675,-0.4178,-0.3677,-0.3496,-0.3567,-0.3787,-0.4077,-0.4545,-0.5012,-0.5317,-0.5451,-0.5436,-0.5292,0.0,-0.5187,-0.4863,0.0,0.0,0.0,0.0,-0.4802,-0.486,-0.498,-0.5214,-0.5575,-0.6094,-0.6505,-0.6542,-0.7261,-0.7963,0.0,-0.8327,-0.8241,-0.805,0.0,0.0,0.0,0.0,-0.8979,-0.8777,-0.9715,-1.046,-1.0593,-1.0064,-0.9715,-0.9715,-0.9145,-0.8804,-0.8804,-0.8804,-0.8804,-0.8804,-0.8804,-0.8571,-0.8059,0.0,0.0,0.0,0.0,0.0,0.0,0.0,0.0,0.0,0.0,0.0,0.0,0.0,0.0,0.0,0.0,0.0,0.0,0.0,0.0,0.0,0.0,0.0,0.0,0.0,0.0,0.0,0.0,0.0,-0.3872,-0.4153,0.0,0.0,0.0,0.0,-0.4161,-0.4212,-0.4418,-0.472,-0.4961,-0.522,-0.5508,-0.568,-0.5816,-0.5928,-0.5929,-0.598,-0.6145,-0.607,-0.5968,-0.5964,-0.5964,-0.5929,-0.5761,-0.5761,-0.5657,-0.5459,-0.509,-0.468,-0.4237,-0.425,-0.4347,-0.4453,-0.4483,-0.4911,-0.5464,-0.5407,-0.5521,-0.5686,-0.5828,-0.5714,-0.5505,-0.5012,-0.4964,0.0,0.0,-0.4889,-0.5047,-0.4862,-0.5089,-0.5633,-0.6688,-0.7356,-0.7862,-0.8028,-0.8318,-0.844,0.0,-0.8414,-0.8826,-0.8682,0.0,-0.8432,-0.7784,-0.8221,-0.8702,-0.8857,-0.9457,-1.0034,-1.0555,-1.0064,-0.9715,-0.9715,-0.9145,-0.8804,-0.8804,-0.8804,-0.8804,-0.8804,-0.8804,-0.8791,-0.8764,-0.8192,0.0,0.0,0.0,0.0,0.0,0.0,0.0,0.0,0.0,0.0,0.0,0.0,0.0,0.0,0.0,0.0,0.0,0.0,0.0,0.0,0.0,0.0,0.0,0.0,0.0,0.0,0.0,0.0,-0.4393,-0.4698,0.0,0.0,-0.462,-0.47,-0.4851,-0.5051,-0.5243,-0.5544,-0.5788,-0.5972,-0.6159,-0.6198,-0.6245,-0.631,-0.628,-0.6294,-0.6421,-0.6206,-0.6135,-0.6131,-0.6019,-0.5931,-0.587,-0.587,-0.5765,-0.5528,-0.5457,-0.5102,-0.4602,-0.4642,-0.4628,-0.4691,-0.478,-0.5258,-0.5844,-0.5878,-0.5989,-0.6059,-0.5939,-0.5813,-0.5616,-0.5485,-0.5432,-0.5463,-0.5377,-0.5482,-0.5609,-0.5521,-0.5676,-0.5932,-0.6338,-0.6506,-0.6617,-0.6707,-0.7212,-0.7551,-0.7241,-0.7407,-0.7588,-0.7499,-0.8093,-0.832,-0.7605,-0.8716,-0.9375,-0.8726,-0.9367,-0.9854,-0.9772,-0.9679,-0.9471,-0.9074,-0.8886,-0.864,-0.8242,-0.8421,-0.8533,-0.8533,-0.8699,-0.8804,-0.8804,-0.8578,-0.8085,0.0,0.0,0.0,0.0,0.0,0.0,0.0,0.0,0.0,0.0,0.0,0.0,0.0,0.0,0.0,0.0,0.0,0.0,0.0,0.0,0.0,0.0,0.0,0.0,0.0,0.0,-0.4749,-0.4865,-0.5207,-0.5445,-0.5263,-0.53,-0.5412,-0.5534,-0.5712,-0.5916,-0.6158,-0.6345,-0.6437,-0.6498,-0.6568,-0.6553,-0.652,-0.652,-0.652,-0.652,-0.6397,-0.6241,-0.6176,-0.6059,-0.5955,-0.5874,-0.5904,-0.5831,-0.569,-0.569,-0.5416,-0.5058,-0.4972,-0.4954,-0.5039,-0.5153,-0.5426,-0.5802,-0.5938,-0.6007,-0.6048,-0.6044,-0.5975,-0.5907,-0.5863,-0.5852,-0.5852,-0.5852,-0.5907,-0.5964,-0.5964,-0.6026,-0.6086,-0.6086,-0.6254,-0.6319,-0.5958,-0.6526,-0.6963,-0.647,-0.6866,-0.7163,-0.6834,-0.7498,-0.783,-0.7095,-0.8165,-0.8875,-0.8328,-0.896,-0.9367,-0.9174,-0.9387,-0.9322,-0.8771,-0.8598,-0.8389,-0.8175,-0.8141,-0.8232,-0.8495,-0.8397,-0.8402,-0.8485,-0.831,-0.7963,-0.7482,0.0,0.0,0.0,0.0,0.0,0.0,0.0,0.0,0.0,0.0,0.0,0.0,0.0,0.0,0.0,0.0,0.0,0.0,0.0,0.0,0.0,0.0,0.0,-0.4197,-0.4741,-0.5167,-0.5215,-0.5691,-0.5942,-0.5827,-0.5972,-0.6081,-0.6321,-0.6333,-0.6413,-0.6594,-0.6598,-0.6594,-0.6594,-0.6588,-0.6543,-0.6522,-0.652,-0.652,-0.652,-0.6518,-0.6421,-0.618,-0.6178,-0.6033,-0.579,-0.5878,-0.5865,-0.5782,-0.5778,-0.5723,-0.5554,-0.5297,-0.5306,-0.5492,-0.5492,-0.5481,-0.5429,-0.5571,-0.5634,-0.572,-0.6162,-0.6322,-0.63,-0.6132,-0.6097,-0.6097,-0.6097,-0.6097,-0.6097,-0.6097,-0.6097,-0.6097,-0.6097,-0.6797,-0.7172,-0.6121,-0.6535,-0.6753,-0.5713,-0.6797,-0.7661,-0.6795,-0.6927,-0.6965,-0.6309,-0.6571,0.0,-0.7724,-0.8242,-0.8628,-0.8889,-0.922,-0.9229,-0.8792,-0.8256,-0.8135,-0.8615,-0.8009,-0.7941,-0.8651,-0.7936,-0.7664,-0.7941,-0.7366,-0.7502,-0.8395,0.0,0.0,0.0,0.0,0.0,0.0,0.0,0.0,0.0,0.0,0.0,0.0,0.0,0.0,0.0,0.0,0.0,0.0,0.0,0.0,0.0,0.0,-0.4893,-0.5037,-0.5365,-0.5727,-0.608,-0.637,-0.6521,-0.6472,-0.6513,-0.6586,-0.6698,-0.6707,-0.6756,-0.6874,-0.6758,-0.6688,-0.6688,-0.6562,-0.6547,-0.652,-0.652,-0.652,-0.652,-0.6386,-0.6294,-0.6178,-0.6117,-0.6012,-0.5882,-0.5906,-0.5865,-0.5776,-0.5708,-0.5627,-0.5537,-0.5463,-0.5439,-0.5418,-0.5418,-0.5692,-0.6081,-0.6116,-0.627,-0.6487,-0.6606,-0.6542,-0.6385,-0.635,-0.6339,-0.6339,-0.6339,-0.6339,-0.6339,-0.6339,-0.6339,-0.6339,-0.6339,-0.6468,-0.6543,-0.6269,-0.6235,-0.6159,-0.5857,-0.5985,-0.6065,-0.568,-0.617,-0.6599,-0.6489,-0.7317,0.0,-0.82,-0.8712,-0.905,-0.8981,-0.9355,-0.9153,-0.7948,-0.8371,-0.8285,0.0,-0.7752,-0.8137,-0.8335,-0.8363,-0.8528,-0.8846,-0.8488,-0.8337,0.0,0.0,0.0,0.0,0.0,0.0,0.0,0.0,0.0,0.0,0.0,0.0,0.0,0.0,0.0,0.0,0.0,0.0,0.0,0.0,0.0,0.0,-0.5182,-0.5625,-0.5906,-0.6045,-0.6245,-0.665,-0.6749,-0.6837,-0.6837,-0.6837,-0.6858,-0.6907,-0.6911,-0.6917,-0.6931,-0.6835,-0.6727,-0.6615,-0.6545,-0.6474,-0.6396,-0.6502,-0.652,-0.652,-0.64,-0.6327,-0.6235,-0.6147,-0.6037,0.0,-0.5916,-0.5865,-0.5778,-0.5723,-0.5647,0.0,0.0,0.0,0.0,0.0,-0.5411,-0.5807,-0.5844,-0.6038,-0.6339,-0.6539,-0.6539,-0.6387,-0.6387,-0.6401,-0.6366,-0.6366,-0.6328,-0.6301,-0.6352,-0.6366,-0.6377,-0.6376,-0.6385,-0.6325,-0.6328,-0.6116,-0.5964,-0.5912,0.0,0.0,-0.5371,-0.5651,-0.5854,-0.5764,-0.6531,-0.7166,-0.7306,-0.7797,-0.8039,-0.778,-0.8498,-0.8565,-0.7461,-0.8064,0.0,0.0,0.0,-0.7838,-0.7818,-0.8153,0.0,0.0,0.0,-0.8377,-0.8738,0.0,0.0,0.0,-0.7646,-0.7266,0.0,0.0,0.0,0.0,0.0,0.0,0.0,0.0,0.0,0.0,0.0,0.0,0.0,0.0,0.0,0.0,-0.5684,-0.6155,-0.6668,-0.6688,-0.6705,-0.6923,-0.6939,-0.699,-0.699,-0.699,-0.699,-0.699,-0.699,-0.6954,-0.6945,0.0,0.0,0.0,0.0,-0.648,-0.6319,-0.6406,-0.652,-0.652,-0.652,-0.6404,-0.6313,-0.6233,-0.61,-0.5933,-0.5933,-0.588,-0.5796,-0.5786,-0.572,-0.5554,-0.5447,-0.5382,-0.5359,-0.4905,-0.4947,-0.5187,-0.5306,0.0,0.0,-0.6337,-0.6537,-0.6487,-0.6487,-0.6418,-0.6339,-0.6339,-0.6259,-0.6151,-0.6257,-0.6287,-0.6314,-0.6363,-0.6387,-0.6407,-0.6309,-0.6181,-0.6053,-0.5945,-0.582,-0.565,-0.5483,-0.5353,-0.5133,-0.4844,-0.5145,-0.5538,-0.5921,-0.6324,-0.6482,-0.6184,0.0,0.0,-0.7101,-0.7455,-0.784,-0.8226,-0.7799,-0.7495,-0.7439,-0.7763,-0.7928,-0.7944,-0.7734,-0.8165,-0.9255,-0.903,-0.9211,-0.9659,-0.8442,-0.7976,0.0,0.0,0.0,0.0,0.0,0.0,0.0,0.0,0.0,0.0,0.0,0.0,0.0,0.0,0.0,-0.5931,-0.6242,-0.6529,-0.6784,-0.6939,-0.7007,-0.6968,-0.6978,-0.699,-0.699,-0.699,-0.699,-0.699,-0.699,-0.6982,-0.6964,-0.6758,0.0,-0.6566,-0.6437,-0.6353,-0.6317,-0.6406,-0.652,-0.652,0.0,0.0,-0.6315,-0.6298,-0.6194,-0.5964,-0.5964,-0.5914,-0.5884,-0.581,-0.5684,-0.5522,-0.542,-0.5382,-0.5359,-0.5122,-0.532,-0.5767,-0.6065,-0.6339,-0.6642,-0.7194,-0.7241,-0.7036,-0.7036,-0.6874,0.0,-0.6708,-0.6539,-0.6325,-0.6396,-0.6404,-0.636,-0.6381,-0.6387,-0.6381,-0.6357,-0.6236,-0.6078,-0.6053,-0.588,-0.5604,-0.5308,-0.5344,-0.556,-0.5904,-0.594,-0.6215,-0.6907,-0.7034,-0.7112,-0.719,-0.7343,-0.707,-0.6227,-0.6682,-0.6955,-0.6802,-0.7733,-0.8285,-0.8268,-0.8575,-0.8765,-0.8775,-0.8998,-0.9247,-0.9535,-0.9677,-0.9732,-0.9679,-0.9149,-0.8809,0.0,0.0,0.0,0.0,0.0,0.0,0.0,0.0,0.0,0.0,0.0,-0.517,0.0,0.0,-0.5994,-0.6372,-0.6591,-0.677,-0.6903,-0.7039,-0.7092,-0.7001,-0.7031,-0.7058,-0.7058,-0.7017,-0.7009,-0.7054,-0.7015,-0.697,-0.6923,-0.6794,-0.6662,-0.6527,-0.6478,-0.6408,-0.6317,-0.6406,-0.652,-0.652,-0.652,-0.6496,-0.6384,-0.6337,-0.6268,-0.6116,-0.6029,-0.5964,-0.5914,-0.5837,-0.5727,-0.5631,-0.5498,-0.5418,-0.5365,-0.5226,-0.536,-0.5776,-0.6185,-0.6441,-0.6689,-0.7241,-0.7291,-0.7188,-0.7188,-0.6994,-0.6747,-0.6747,-0.6505,-0.6274,-0.6481,-0.6547,-0.661,-0.6772,-0.6786,-0.6786,-0.6786,-0.6738,-0.6631,-0.6616,-0.6361,-0.6143,-0.5879,-0.5765,-0.5687,-0.5692,-0.5644,-0.5767,-0.6295,-0.6248,-0.6205,-0.6251,-0.6452,-0.6368,-0.5849,-0.6677,-0.7189,-0.7214,-0.8009,-0.8619,-0.8851,-0.8909,-0.9041,-0.9199,-0.9363,-0.9494,-0.955,-0.985,-0.9938,-0.9847,-0.9779,-0.9547,0.0,0.0,0.0,0.0,0.0,0.0,0.0,0.0,-0.5208,-0.5958,-0.6058,-0.6091,-0.6264,-0.6618,-0.6847,-0.6772,-0.6929,-0.7073,-0.7183,-0.7164,-0.7092,-0.7001,-0.7054,-0.7101,-0.7101,-0.7033,-0.7019,-0.7092,-0.7031,-0.6958,-0.6956,-0.6935,-0.6817,-0.6515,-0.6562,-0.6511,-0.6345,-0.6417,-0.652,-0.652,-0.652,-0.652,-0.6518,-0.6376,-0.6333,-0.6306,-0.6067,-0.598,-0.5952,-0.5849,-0.5769,-0.5737,-0.5571,-0.5455,-0.5371,-0.5298,-0.5322,-0.5496,-0.5972,-0.6221,-0.6366,-0.6895,-0.7138,-0.7188,-0.7188,-0.7066,-0.6884,-0.6884,-0.6617,-0.6367,-0.6709,-0.6784,-0.6862,-0.7114,-0.7188,-0.7188,-0.7188,-0.7167,-0.7165,-0.7103,-0.6921,-0.6726,-0.662,-0.6281,-0.5831,-0.5344,-0.5218,-0.5225,-0.5371,-0.5303,-0.5143,-0.5029,-0.5398,-0.5633,-0.5525,-0.6561,-0.7376,-0.7778,-0.8175,-0.8645,-0.919,-0.9028,-0.9096,-0.9355,-0.9316,-0.9351,-0.9467,-0.9778,-0.9951,-1.0015,-1.0244,-1.0096,-0.3586,-0.3708,-0.4306,-0.4832,-0.502,-0.5315,0.0,0.0,-0.6681,-0.7033,-0.725,-0.7373,-0.7286,-0.7197,-0.7285,-0.7767,-0.7341,-0.7192,-0.773,-0.7393,-0.7092,-0.7001,-0.6998,-0.7005,-0.7005,-0.6996,-0.6994,-0.7005,-0.6996,-0.6986,-0.6974,-0.6896,-0.6805,-0.6698,-0.6627,-0.6541,-0.6506,-0.6516,-0.652,-0.652,-0.652,-0.652,-0.652,-0.651,-0.6394,-0.6306,-0.6067,-0.5944,-0.5925,-0.5823,-0.5733,-0.559,-0.5547,-0.5455,-0.538,-0.5369,-0.5308,-0.5324,-0.5762,-0.5919,-0.5914,-0.6372,-0.6836,-0.7188,-0.7188,-0.7332,-0.7524,-0.7524,-0.7307,-0.7096,-0.7111,-0.7167,-0.717,-0.7185,-0.7188,-0.7188,-0.7188,-0.714,-0.71,-0.7085,-0.699,-0.6859,-0.6847,-0.6638,-0.629,-0.5866,-0.5621,-0.5448,-0.5424,-0.5303,-0.5143,-0.5029,-0.4944,-0.4895,-0.4806,-0.5496,-0.624,-0.6963,-0.7676,-0.8414,-0.9165,-0.9179,-0.9203,-0.9232,-0.9032,-0.9114,-0.9409,-0.9509,-0.9716,-1.0015,-1.0403,-1.0325,-0.4671,-0.4946,0.0,0.0,-0.6159,-0.6666,-0.7249,-0.73,-0.7422,-0.7951,-0.8078,-0.8025,-0.7771,-0.7715,-0.7718,0.0,-0.7456,-0.7285,-0.7694,-0.7336,-0.7035,-0.6786,-0.6711,-0.6719,-0.6827,-0.6837,-0.6837,-0.6837,-0.6882,-0.6911,-0.6911,-0.6925,-0.687,-0.6731,-0.669,-0.66,-0.6522,-0.652,-0.652,-0.652,-0.652,-0.652,-0.6518,-0.6398,-0.6296,-0.6095,-0.6023,-0.594,-0.591,-0.5818,-0.5759,-0.5708,-0.5563,-0.5486,-0.5449,-0.54,-0.5324,-0.5293,-0.5793,-0.5884,-0.5892,-0.6355,-0.6595,-0.6786,-0.7086,-0.7191,-0.7194,-0.7497,-0.7391,-0.7238,-0.7391,-0.7444,-0.749,-0.764,-0.769,-0.769,-0.769,-0.7641,-0.7648,-0.7648,-0.7456,-0.7271,-0.7122,-0.6813,-0.6505,-0.6172,-0.5909,-0.5714,-0.5597,-0.5412,-0.5222,-0.5037,-0.5046,-0.5032,-0.4868,-0.5467,-0.6003,-0.6458,-0.7017,-0.7789,-0.8871,-0.8752,-0.8903,-0.9421,-0.9365,-0.9311,-0.9296,-0.9381,-0.9628,-0.9962,-1.0155,-1.0274,-0.5087,0.0,0.0,-0.6526,-0.713,-0.7695,-0.8,-0.7999,-0.8128,-0.8612,-0.8668,-0.8534,-0.8191,-0.8222,0.0,-0.8028,-0.7758,-0.7631,-0.781,-0.7471,-0.7042,-0.659,-0.6429,-0.6366,-0.6423,-0.6564,-0.6741,-0.686,-0.6875,-0.6925,-0.6925,-0.6939,-0.6909,-0.6731,-0.6727,-0.6639,-0.6522,-0.652,-0.652,-0.652,-0.652,-0.652,-0.6518,-0.6359,-0.6221,-0.599,-0.599,-0.594,-0.591,-0.5818,-0.5765,-0.5727,-0.5569,-0.5492,-0.5465,-0.5404,-0.5324,-0.5245,-0.5623,-0.5709,-0.5641,-0.6053,-0.6179,-0.6237,-0.6637,-0.6739,-0.6792,-0.7344,-0.7341,-0.7288,-0.7643,-0.7693,-0.7743,-0.7939,-0.7988,-0.7988,-0.7988,-0.7988,-0.7988,-0.7988,-0.7842,-0.7643,-0.7437,-0.7159,-0.6841,-0.6563,-0.6275,-0.599,-0.5752,-0.5491,-0.5254,-0.5083,-0.5149,-0.5168,-0.5018,-0.5469,-0.5904,-0.6276,-0.6604,-0.7245,-0.8418,-0.8435,-0.8694,-0.9337,-0.95,-0.9491,-0.9308,-0.941,-0.9598,-0.9841,-1.0108,-1.0373,0.0,0.0,-0.5966,-0.6952,-0.7558,-0.7983,-0.8459,-0.875,-0.8892,-0.9019,-0.9052,-0.8986,-0.8558,-0.8581,-0.8657,-0.8659,-0.846,-0.8338,-0.8436,-0.7817,-0.7081,-0.6547,-0.6227,-0.5902,0.0,-0.6153,-0.6738,-0.7268,-0.7016,-0.6925,-0.6925,-0.6939,-0.6909,-0.6731,-0.6727,-0.6639,-0.6522,-0.652,-0.652,-0.652,-0.652,-0.652,-0.6518,-0.6359,-0.6221,-0.599,-0.599,-0.594,-0.591,-0.5818,-0.5729,-0.558,-0.5545,-0.5457,-0.5386,-0.5382,-0.5324,-0.519,-0.5245,-0.5124,-0.5023,-0.5023,-0.5315,-0.5636,-0.5634,-0.5987,-0.6537,-0.7039,-0.7188,-0.7338,-0.7839,-0.7988,-0.7988,-0.7988,-0.7988,-0.7988,-0.7988,-0.7988,-0.7988,-0.7988,-0.7988,-0.7988,-0.7988,-0.7739,-0.7443,-0.7103,-0.6727,-0.627,-0.5763,-0.5417,-0.5189,-0.5181,-0.5083,-0.5018,-0.5018,-0.5204,-0.5664,-0.6525,-0.6591,-0.6973,-0.7783,-0.8389,-0.8694,-0.8727,-0.9321,-0.9614,-0.9603,-0.9643,-0.9695,-0.973,-1.0441,-1.0779,-0.4061,0.0,-0.6861,-0.7394,-0.8042,-0.8671,-0.8989,-0.9068,-0.8992,-0.8952,-0.8696,-0.8261,-0.7793,-0.7744,-0.7845,-0.8065,-0.797,-0.7955,-0.8208,-0.7837,-0.7217,-0.6366,-0.6469,0.0,0.0,0.0,0.0,-0.6469,-0.6796,-0.6953,-0.6678,-0.6766,-0.6788,-0.6729,-0.6668,-0.6607,-0.6545,-0.6551,-0.652,-0.652,-0.6392,-0.6331,-0.627,-0.6182,-0.6013,-0.5963,-0.5963,-0.5945,-0.591,-0.5818,-0.5763,-0.572,-0.5567,-0.549,-0.5457,-0.5402,-0.5324,-0.519,-0.519,-0.515,-0.5132,-0.5012,-0.5105,-0.5271,-0.5507,-0.5734,-0.5984,-0.6537,-0.6686,-0.6686,-0.6886,-0.7,-0.7044,-0.6956,-0.7003,-0.7146,-0.7406,-0.7487,-0.7587,-0.7939,-0.7988,-0.7939,-0.7743,-0.7646,-0.7496,-0.7152,-0.6514,-0.5968,-0.5599,-0.563,-0.5529,-0.5243,-0.5274,-0.526,-0.5023,-0.5054,-0.521,-0.5521,-0.5521,-0.5902,-0.6703,-0.7506,-0.8161,-0.8699,-0.9429,-0.9803,-0.9803,-0.9681,-0.9741,-0.998,-1.0026,-1.0321,-0.4681,-0.6141,-0.7443,-0.8008,-0.8583,-0.9106,-0.9217,-0.9152,-0.8941,-0.8736,-0.835,-0.7865,-0.742,-0.729,-0.736,-0.7663,-0.7707,-0.7841,-0.8072,-0.7878,-0.7408,-0.6657,-0.6774,0.0,0.0,0.0,0.0,-0.6476,-0.6702,-0.6811,-0.6609,-0.666,-0.6727,-0.6727,-0.6698,-0.6653,-0.659,-0.6531,-0.647,-0.6404,-0.6378,-0.6284,-0.6133,-0.611,-0.6014,-0.587,-0.5902,-0.5898,-0.5867,-0.5841,-0.5792,-0.5725,-0.5639,-0.5547,-0.5459,-0.5435,-0.5369,-0.5294,-0.5294,-0.5251,-0.5128,-0.5096,-0.5024,-0.5064,-0.5306,-0.539,-0.5491,-0.6047,-0.6228,-0.6261,-0.6465,-0.6573,-0.66,-0.6478,-0.6562,-0.6637,-0.6865,-0.6936,-0.7036,-0.7338,-0.7587,-0.764,-0.7494,-0.7543,-0.7496,-0.7301,-0.6661,-0.6127,-0.5836,-0.586,-0.5741,-0.5333,-0.5363,-0.5319,-0.5083,-0.5157,-0.5229,-0.5311,-0.5274,-0.5461,-0.6087,-0.669,-0.7425,-0.8275,-0.9079,-0.9614,-0.9884,-0.9771,-0.9806,-1.0022,-1.0005,-1.0254,-0.5659,-0.6798,-0.7655,-0.8657,-0.9062,-0.9266,-0.9152,-0.8946,-0.8741,-0.8448,-0.8054,-0.7611,0.0,0.0,-0.712,-0.7322,-0.7581,-0.7791,-0.7798,-0.7766,-0.7527,0.0,0.0,0.0,0.0,0.0,0.0,-0.6942,0.0,-0.652,-0.652,-0.6623,-0.6719,-0.6719,-0.6796,-0.676,-0.6592,-0.6586,-0.6494,-0.6317,-0.64,-0.6304,-0.5994,-0.6137,-0.6033,-0.5794,-0.5884,-0.587,-0.5788,-0.5874,-0.5804,-0.5592,-0.5739,-0.5616,-0.5398,-0.5478,-0.5453,-0.5382,-0.5382,-0.5267,-0.5135,-0.5158,-0.5122,-0.4983,-0.5031,-0.5031,-0.5132,-0.5597,-0.5825,-0.5953,-0.6484,-0.6643,-0.6611,-0.6546,-0.6516,-0.6484,-0.6361,-0.6337,-0.6387,-0.6387,-0.6786,-0.7138,-0.7138,-0.7394,-0.7548,-0.7511,-0.7076,-0.6698,-0.6339,-0.6098,-0.5812,-0.5551,-0.5341,-0.524,-0.5229,-0.5447,-0.5668,-0.5864,-0.5717,-0.5665,-0.5864,-0.6087,-0.6584,-0.7425,-0.8275,-0.9079,-0.9846,-0.9884,-0.9884,-0.9922,-1.0293,-1.0481,-0.5547,-0.7055,-0.8559,-0.87,-0.8982,-0.9147,-0.8957,-0.8631,-0.8226,-0.7839,-0.6661,-0.5779,0.0,0.0,0.0,-0.544,-0.5903,0.0,-0.5068,-0.4983,0.0,0.0,0.0,-0.4435,-0.3799,-0.3922,0.0,0.0,-0.5615,-0.6786,-0.652,-0.6564,-0.6625,-0.6625,-0.6645,-0.6635,-0.659,-0.6523,-0.6431,-0.6315,-0.6272,-0.6182,-0.5992,-0.6013,-0.6012,-0.5888,-0.5918,-0.5929,-0.5784,-0.5806,-0.5747,-0.5586,-0.5611,-0.5596,-0.5478,-0.55,-0.5453,-0.5382,-0.5382,-0.5351,-0.5294,-0.5179,-0.5157,-0.5163,-0.5094,-0.5073,-0.5126,-0.5231,-0.5301,-0.532,-0.5477,-0.5532,-0.5505,-0.5408,-0.5384,-0.546,-0.5758,-0.5784,-0.5937,-0.6337,-0.6487,-0.6587,-0.6587,-0.6637,-0.6828,-0.7242,-0.6991,-0.6745,-0.6612,-0.6397,-0.6212,-0.6122,-0.5877,-0.5633,-0.5448,-0.5572,-0.5665,-0.5597,-0.5562,-0.5559,-0.5592,-0.6175,-0.6518,-0.6546,-0.8118,-0.8965,-0.9003,-0.9614,-0.9884,-0.9922,-0.9992,-1.0218,-0.5663,-0.6734,-0.774,-0.8817,-0.8934,-0.8619,-0.8094,-0.7673,-0.7062,-0.6089,-0.5049,0.0,0.0,0.0,0.0,0.0,0.0,0.0,-0.3951,-0.403,-0.3988,0.0,-0.387,0.0,-0.3341,-0.3345,-0.3137,0.0,-0.3917,-0.4792,-0.4795,-0.4885,-0.4953,-0.5191,-0.5082,-0.4999,-0.4939,-0.4666,-0.4587,-0.4692,-0.4488,-0.4357,-0.4242,-0.4271,-0.4232,-0.4087,0.0,-0.4183,-0.4032,-0.4121,-0.4035,-0.3976,-0.4573,-0.4743,-0.4645,-0.4704,-0.4657,-0.4592,-0.4592,-0.4592,-0.4689,-0.5095,-0.5235,-0.518,-0.513,-0.5167,-0.5167,-0.5167,-0.5198,-0.5228,-0.5228,-0.5198,-0.5145,-0.5053,-0.5002,-0.5049,-0.5205,-0.5233,-0.5384,-0.5937,-0.6034,-0.6134,-0.6337,-0.6387,-0.6487,-0.6786,-0.6672,-0.6501,-0.6464,-0.6509,-0.6495,-0.6374,-0.6186,-0.5962,-0.569,-0.5776,-0.5823,-0.585,-0.5753,-0.5785,-0.5965,-0.6184,-0.6385,-0.6577,-0.7478,-0.8237,-0.8813,-0.9193,-0.9539,-0.9884,-0.9884,-1.003,-0.5601,-0.5985,-0.6114,-0.8292,-0.8373,-0.7643,-0.6692,-0.6182,-0.5519,-0.4023,0.0,-0.3093,-0.2865,0.0,-0.2612,-0.2722,0.0,-0.3087,-0.335,-0.3454,-0.3626,-0.3742,-0.3726,-0.3571,-0.3269,-0.3232,-0.2935,-0.2256,-0.1806,-0.1914,-0.2574,-0.2705,-0.2896,-0.3279,-0.3101,-0.2872,-0.2735,-0.2364,-0.2318,-0.2512,-0.2349,-0.2183,-0.2032,-0.2064,-0.1984,-0.1811,0.0,0.0,-0.1806,-0.1953,-0.1885,-0.1919,-0.3066,-0.3428,-0.328,-0.3395,-0.3417,-0.3367,-0.336,-0.3357,-0.358,-0.4931,-0.5328,-0.5209,-0.5209,-0.5209,-0.5209,-0.5209,-0.531,-0.5363,-0.5363,-0.5296,-0.515,-0.5112,-0.5028,-0.4947,-0.4804,-0.4784,-0.4935,-0.5384,-0.5484,-0.5634,-0.6087,-0.6187,-0.6234,-0.6284,-0.6191,-0.6085,-0.6124,-0.6493,-0.6678,-0.6432,-0.6377,-0.626,-0.5978,-0.6014,-0.6087,-0.6233,-0.6084,-0.6156,-0.6484,-0.6115,-0.621,-0.6875,-0.6741,-0.7346,-0.8694,-0.8585,-0.8965,-0.9728,-0.9728,-0.9809,-0.4121,-0.4527,-0.4996,-0.5395,-0.532,-0.5117,-0.4811,-0.446,0.0,0.0,0.0,-0.2033,-0.2336,-0.2062,0.0,-0.1483,0.0,0.0,0.0,0.0,-0.0716,0.0,0.0,0.0,0.0,0.0,0.0,0.0,0.0,0.0,-0.2545,-0.2719,-0.2814,-0.2889,-0.2799,-0.2575,-0.2223,-0.2489,-0.2452,-0.2189,-0.2389,-0.2352,-0.2032,-0.2064,-0.2057,-0.1963,0.0,0.0,-0.1804,-0.1809,-0.1795,-0.1773,-0.2035,-0.2082,-0.2049,-0.2167,-0.2144,-0.2053,-0.2081,-0.2127,-0.2463,-0.4706,-0.5371,-0.5357,-0.5357,-0.5357,-0.5357,-0.5357,-0.5314,-0.5215,-0.5215,-0.52,-0.5108,-0.5016,-0.4983,-0.4947,-0.4804,-0.4784,-0.4834,-0.4935,-0.4935,-0.4985,-0.5085,-0.5085,-0.5236,-0.5684,-0.5649,-0.5676,-0.6141,-0.6444,-0.6557,-0.6399,-0.6593,-0.658,-0.6251,-0.6272,-0.6237,-0.5981,-0.5955,-0.5952,-0.6018,-0.5996,-0.5905,-0.5796,-0.661,-0.7003,-0.7022,-0.7468,-0.8118,-0.8894,-0.8894,-0.9273,-0.2861,-0.3141,-0.3416,-0.4475,-0.4383,-0.3944,-0.3386,0.0,0.0,0.0,-0.1126,-0.0852,-0.1052,0.0,0.0,0.0,0.0,0.0,0.0,0.0,0.0,0.0,0.0,0.0,0.0,0.0,0.0,0.0,0.0,0.0,-0.0941,-0.1226,-0.1235,-0.1098,-0.0819,-0.061,-0.0403,-0.0269,-0.0133,-0.0195,-0.013,-0.0064,0.0126,0.0063,0.0063,0.0062,0.0062,0.0,0.0121,0.0182,0.0181,0.0119,-0.054,-0.0779,-0.0772,-0.0877,-0.0867,-0.0801,-0.0845,-0.084,-0.1176,-0.2967,-0.3976,-0.4479,-0.4479,-0.4929,-0.5371,-0.5324,-0.5312,-0.5294,-0.5198,-0.5141,-0.5096,-0.5053,-0.5043,-0.5004,-0.4815,-0.4873,-0.4892,-0.4794,-0.4784,-0.4784,-0.4784,-0.4784,-0.4885,-0.5135,-0.5146,-0.5152,-0.5396,-0.5734,-0.6114,-0.6469,-0.6632,-0.6668,-0.6574,-0.6577,-0.6539,-0.6387,-0.625,-0.6206,-0.6384,-0.634,-0.6234,-0.6085,-0.6504,-0.6834,-0.7031,-0.7101,-0.7522,-0.8241,-0.8546,-0.8894,-0.1624,-0.1656,-0.1745,-0.3383,-0.3312,-0.2711,-0.1962,-0.1688,0.0,0.0,0.0,0.0,0.0,0.0,0.0,0.0,0.0,0.0,0.0,0.0,0.0,0.0,0.0,0.0,0.0,0.0,0.0,0.0,0.0,0.0,0.0471,0.0204,0.0137,0.0479,0.0821,0.1021,0.1077,0.1616,0.1738,0.1582,0.178,0.1959,0.2053,0.2029,0.2016,0.2008,0.1986,0.0,0.0,0.1964,0.1959,0.181,0.0847,0.0484,0.0483,0.0409,0.0404,0.0403,0.0395,0.0393,0.0224,-0.0728,-0.2015,-0.3189,-0.3189,-0.3863,-0.4634,-0.45,-0.4742,-0.4981,-0.4775,-0.4949,-0.5108,-0.5108,-0.5094,-0.5041,-0.4894,-0.4937,-0.4969,-0.4806,-0.48,-0.4857,-0.4788,-0.4784,-0.4784,-0.4784,-0.4784,-0.476,-0.4745,-0.5029,-0.5543,-0.6284,-0.6394,-0.6503,-0.6671,-0.6678,-0.6662,-0.6704,-0.652,-0.6476,-0.6704,-0.6682,-0.6608,-0.6619,-0.6509,-0.6706,-0.7199,-0.6757,-0.6933,-0.7629,-0.8052,-0.844,-0.0209,-0.0215,-0.0217,-0.0418,-0.0389,-0.0296,-0.0213,0.0,0.0,-0.0037,0.0,0.0,0.0,0.0,0.0,0.0,0.0,0.0,0.0,0.0,0.0,0.0,0.0,0.0,0.0,0.0,0.0,0.0,0.0,0.0,0.0,0.0202,0.0135,0.0472,0.0539,0.0741,0.1077,0.0808,0.1002,0.1582,0.1252,0.1429,0.2022,0.202,0.2005,0.198,0.0,0.0,0.0,0.1964,0.1959,0.1873,0.1839,0.1849,0.1842,0.1725,0.1705,0.1697,0.1644,0.1627,0.1627,0.1514,-0.0112,-0.1959,-0.1959,-0.2015,-0.212,-0.2139,-0.2894,-0.3647,-0.3636,-0.4363,-0.5108,-0.5108,-0.5045,-0.4979,-0.4963,-0.503,-0.5045,-0.4817,-0.4902,-0.4932,-0.4798,-0.4784,-0.4784,-0.4784,-0.4784,-0.478,-0.4774,-0.4822,-0.5034,-0.547,-0.58,-0.6039,-0.6259,-0.6197,-0.6257,-0.6432,-0.6432,-0.6428,-0.6432,-0.6643,-0.6711,-0.6622,-0.6606,-0.657,-0.6506,-0.6016,-0.6258,-0.7062,-0.6891,-0.762,0.0,0.0,0.0,0.0,0.0,0.0,0.0,0.0,0.0,0.0,0.0,0.0,0.0,0.0,0.0,0.0,0.0,0.0,0.0,0.0,0.0,0.0,0.0,0.0,0.0,0.0,0.0,0.0,0.0,0.0,0.0,0.0067,0.0067,0.0202,0.0404,0.0606,0.074,0.0808,0.1002,0.1318,0.112,0.1173,0.1469,0.1647,0.1698,0.1688,0.0,0.0,0.0,0.1956,0.1948,0.1909,0.1958,0.1977,0.1969,0.1908,0.1886,0.1877,0.1816,0.1795,0.1795,0.1795,0.1177,0.0224,-0.0504,-0.1232,-0.1785,-0.1755,-0.2073,-0.2445,-0.235,-0.316,-0.4093,-0.4,-0.4627,-0.5188,-0.5077,-0.5126,-0.5137,-0.4953,-0.4947,-0.4943,-0.48,-0.4784,-0.4784,-0.4784,-0.4784,-0.4784,-0.4784,-0.4784,-0.4872,-0.5036,-0.5398,-0.5732,-0.6009,-0.5997,-0.6116,-0.639,-0.6302,-0.6346,-0.6612,-0.6748,-0.6766,-0.6708,-0.6836,-0.6761,-0.6531,-0.6326,-0.624,-0.6245,-0.665,-0.7139,0.0,0.0,0.0,0.0,0.0,0.0,0.0,0.0,0.0,0.0,0.0,0.0,0.0,0.0,0.0,0.0,0.0,0.0,0.0,0.0,0.0,0.0,0.0,0.0,0.0,0.0,0.0,0.0,0.0,0.0,0.0,0.0,0.0,0.0,0.0202,0.0337,0.0337,0.0603,0.0799,0.0923,0.0919,0.0973,0.1082,0.1265,0.1381,0.1369,0.0,0.0,0.0,0.1955,0.1946,0.1904,0.1956,0.1971,0.1957,0.1905,0.188,0.1865,0.1813,0.1795,0.1795,0.1795,0.1795,0.1625,0.078,-0.0056,-0.0725,-0.0708,-0.0979,-0.1305,-0.1495,-0.2207,-0.2878,-0.283,-0.3591,-0.4362,-0.4579,-0.4673,-0.4785,-0.496,-0.4994,-0.4975,-0.4804,-0.4784,-0.4784,-0.4784,-0.4784,-0.4784,-0.4784,-0.4784,-0.4784,-0.4784,-0.5077,-0.5361,-0.5699,-0.5714,-0.582,-0.6227,-0.61,-0.6213,-0.6659,-0.6704,-0.6704,-0.6795,-0.6922,-0.6869,-0.6551,-0.6467,-0.6248,-0.582,-0.6365,-0.6632,0.0,0.0,0.0,0.0,0.0,0.0,0.0,0.0,0.0,0.0,0.0,0.0,0.0,0.0,0.0,0.0,0.0,0.0,0.0,0.0,0.0,0.0,0.0,0.0,0.0,0.0,0.0,0.0,0.0,0.0,0.0,0.0,0.0,0.0,0.0,0.0,0.0,0.0,0.0198,0.0527,0.052,0.07,0.0989,0.1004,0.0994,0.0,0.0,0.0,0.0,0.1841,0.1958,0.1934,0.1964,0.1958,0.1928,0.1897,0.1866,0.1779,0.1806,0.1795,0.1795,0.1795,0.1795,0.1789,0.1759,0.1771,0.1727,0.1668,0.0863,-0.0272,-0.1389,-0.1723,-0.1738,-0.1708,-0.1724,-0.2074,-0.3161,-0.3536,-0.3912,-0.4814,-0.5045,-0.5049,-0.4815,-0.4784,-0.4784,-0.4784,-0.4784,-0.4784,-0.4784,-0.4784,-0.4784,-0.4784,-0.4782,-0.4947,-0.5396,-0.5242,-0.5351,-0.5855,-0.5787,-0.5897,-0.6384,-0.6384,-0.652,-0.6795,-0.6795,-0.6656,-0.6384,-0.621,-0.608,-0.608,-0.5816,-0.6098,-0.0047,0.0,0.0,0.0,0.0,0.0,0.0,0.0,0.0,0.0,0.0,0.0,0.0,0.0,0.0,0.0,0.0,0.0,0.0,0.0,0.0,0.0,0.0,0.0,0.0,0.0,0.0,0.0,0.0,0.0,0.0,0.0,0.0,0.0,0.0,0.0,0.0,0.0,0.0065,0.0128,0.0127,0.0188,0.0304,0.0556,0.0,0.0,0.0,0.0,0.0,0.1227,0.1408,0.157,0.1577,0.1697,0.1865,0.1874,0.1791,0.1779,0.1806,0.1795,0.1795,0.1795,0.1781,0.1814,0.1728,0.1755,0.1787,0.1801,0.1483,0.1164,0.0762,0.0055,-0.0555,-0.0552,-0.1162,-0.1888,-0.2221,-0.2342,-0.2434,-0.271,-0.3337,-0.3855,-0.3866,-0.4367,-0.4855,-0.4918,-0.4875,-0.4784,-0.4784,-0.4784,-0.4784,-0.4784,-0.4784,-0.485,-0.4912,-0.4836,-0.492,-0.531,-0.5248,-0.5586,-0.6384,-0.6384,-0.6609,-0.701,-0.701,-0.6786,-0.6384,-0.6523,-0.6396,-0.6083,-0.5822,-0.6151,0.0,0.0,0.0,0.0,0.0,0.0,0.0,0.0,0.0,0.0,0.0,0.0,0.0,0.0,0.0,0.0,0.0,0.0,0.0,0.0,0.0,0.0,0.0,0.0,0.0,0.0,0.0,0.0,0.0,0.0,0.0,0.0,0.0,0.0,0.0,0.0,0.0,0.0,0.0,0.0,0.0,0.0,0.0,0.0245,0.0,0.0,0.0,0.0,0.0,0.0923,0.1105,0.1278,0.127,0.1383,0.1491,0.1452,0.1432,0.1479,0.1463,0.1458,0.1457,0.1447,0.1476,0.1447,0.1387,0.1569,0.1759,0.1807,0.1827,0.1788,0.1813,0.1218,0.0672,0.0668,0.0112,-0.056,-0.1008,-0.112,-0.1219,-0.1605,-0.2245,-0.2718,-0.2704,-0.3538,-0.424,-0.4291,-0.4587,-0.4784,-0.4784,-0.4784,-0.4784,-0.4784,-0.4784,-0.4764,-0.4761,-0.4675,-0.4743,-0.4917,-0.483,-0.5115,-0.5877,-0.5877,-0.6118,-0.67,-0.6745,-0.6609,-0.6384,-0.6482,-0.6349,-0.5952,-0.5777,-0.5997,0.0,0.0039,0.0,0.0,0.0,0.0,0.0,0.0,0.0,0.0,0.0,0.0033,0.0,0.0,0.0,0.0,0.0,0.0,0.0,0.0,0.0,0.0,0.0,0.0,0.0,0.0,0.0,0.0,0.0,0.0,0.0,0.0,0.0,0.0,0.0067,0.0067,0.0,0.0065,0.0064,0.0063,0.0124,0.0122,0.0121,0.0123,0.0,0.0,0.0,0.0,0.0,0.0863,0.0986,0.0985,0.0968,0.0953,0.088,0.0924,0.0909,0.0897,0.0897,0.0897,0.0894,0.0878,0.0908,0.0887,0.09,0.1222,0.1655,0.174,0.1714,0.173,0.1759,0.1718,0.1732,0.1759,0.1719,0.1402,0.028,0.0056,-0.0222,-0.1287,-0.1565,-0.1565,-0.1512,-0.2382,-0.3107,-0.3107,-0.3924,-0.4582,-0.4684,-0.4684,-0.4734,-0.4784,-0.4784,-0.4784,-0.4784,-0.4757,-0.4708,-0.4708,-0.4489,-0.4618,-0.5076,-0.502,-0.5322,-0.6038,-0.6038,-0.6169,-0.6387,-0.6169,-0.5952,-0.5733,-0.5733,-0.5733,0.0985,0.0,0.0,0.0,0.0,0.0,0.0,0.0151,0.0242,0.0032,0.0164,0.0238,0.0035,0.0,0.0,0.0,0.0,0.0,0.0,0.0,0.0,0.0,0.0,0.0,0.0,0.0,0.0,0.0,0.0,0.0,0.0,0.0,0.0,0.0,0.052,0.0518,0.0,0.0508,0.0751,0.0671,0.1291,0.152,0.1483,0.1524,0.0,0.0,0.0,0.0,0.0864,0.0975,0.0849,0.0605,0.0588,0.0696,0.0923,0.0908,0.09,0.0897,0.0897,0.0897,0.0893,0.0921,0.0907,0.0897,0.0825,0.093,0.1104,0.1084,0.1096,0.1102,0.1112,0.1118,0.1121,0.1116,0.1118,0.1009,0.0729,0.0673,0.0613,0.0327,-0.0218,-0.0651,-0.0743,-0.1411,-0.2018,-0.2069,-0.2242,-0.267,-0.3475,-0.3575,-0.3879,-0.4734,-0.4784,-0.4784,-0.4784,-0.4757,-0.4708,-0.4708,-0.4489,-0.4618,-0.5076,-0.502,-0.5233,-0.5766,-0.5636,-0.5772,-0.6171,-0.5899,-0.5858,-0.5994,-0.5994,-0.5908,0.1705,0.1047,0.0345,0.0292,0.0377,0.0436,0.0396,0.0506,0.0584,0.0491,0.0,0.0,0.0,0.0,0.0,0.0,0.0,0.0,0.0,0.0,0.0,0.0,0.0,0.0,0.0,0.0,0.0,0.0,0.0,0.0,0.0,0.0,0.0447,0.0447,0.1078,0.1137,0.0442,0.1135,0.1429,0.1387,0.1775,0.1949,0.1907,0.1952,0.0,0.0,0.0,0.0,0.1402,0.1381,0.1253,0.1072,0.1045,0.115,0.1262,0.1016,0.0897,0.0841,0.0561,0.0502,0.0497,0.0484,0.0477,0.0472,0.0459,0.0458,0.0568,0.0803,0.0924,0.0878,0.0893,0.0897,0.0897,0.0897,0.0897,0.0897,0.0897,0.0897,0.0893,0.0877,0.066,0.0384,0.0321,-0.0317,-0.0836,-0.0933,-0.1326,-0.1815,-0.2368,-0.2469,-0.267,-0.3274,-0.3776,-0.4079,-0.4079,-0.4493,-0.4767,-0.4767,-0.4636,-0.4637,-0.4871,-0.4776,-0.4946,-0.5398,-0.5484,-0.5618,-0.5812,-0.5662,-0.5547,-0.546,-0.5683,-0.5638,0.2436,0.1872,0.1194,0.1041,0.1183,0.1362,0.1243,0.1241,0.0,0.0,0.0,0.0,0.0,0.0072,0.0,0.0,0.0,0.0,0.0,0.0,0.0,0.0,0.0,0.0,0.0,0.0,0.0,0.0,0.0,0.0,0.0,0.0,0.0,0.1131,0.18,0.1861,0.1319,0.1886,0.2107,0.2049,0.2204,0.226,0.2162,0.2257,0.227,0.0,0.0,0.0,0.2039,0.1949,0.1879,0.1817,0.1788,0.1776,0.1716,0.124,0.1009,0.0953,0.0449,0.0277,0.0273,0.0268,0.0211,0.0104,0.0102,0.0051,0.0102,0.0634,0.0754,0.0766,0.0781,0.0785,0.0785,0.0785,0.0785,0.0785,0.0785,0.0785,0.0782,0.077,0.0999,0.1166,0.1239,0.0694,0.0265,0.026,-0.051,-0.116,-0.131,-0.1361,-0.1412,-0.1563,-0.2418,-0.3022,-0.3173,-0.4029,-0.4634,-0.4784,-0.4755,-0.4661,-0.4555,-0.4477,-0.4572,-0.4986,-0.535,-0.5485,-0.5448,-0.5383,-0.5149,-0.4839,-0.5193,-0.5235,0.3542,0.3446,0.3177,0.2883,0.296,0.3105,0.31,0.3049,0.2985,0.0,0.0,0.0,0.0,0.0,0.0,0.0,0.0,0.0,0.0,0.0,0.0,0.0,0.0,0.0,0.0,0.0,0.0,0.0,0.0,0.0,0.0,0.0,0.0,0.1856,0.247,0.2778,0.2723,0.2786,0.2822,0.2772,0.3307,0.3588,0.3488,0.3605,0.3605,0.0,0.0,0.3191,0.2655,0.267,0.2308,0.1786,0.1814,0.1802,0.1801,0.1685,0.1683,0.1627,0.157,0.1498,0.1418,0.1447,0.1106,0.0673,0.066,0.0354,0.0,0.0106,0.016,0.0162,0.0111,0.0112,0.0112,0.0112,0.0112,0.0112,0.0112,0.0112,0.0112,0.0112,0.0336,0.0613,0.0929,0.1022,0.1165,0.1406,0.1227,0.0757,-0.0151,-0.0252,-0.0605,-0.1513,-0.1765,-0.2217,-0.3123,-0.3374,-0.3827,-0.4734,-0.4755,-0.4632,-0.4417,-0.4396,-0.4436,-0.4526,-0.4558,-0.4787,-0.517,-0.5108,-0.5146,-0.5282,-0.5371,-0.5235,0.4196,0.4586,0.4884,0.4911,0.4385,0.3868,0.3784,0.3632,0.358,0.0,0.0,0.0,0.0,0.0,0.0,0.0,0.0,0.0,0.0,0.0,0.0,0.0,0.0,0.0,0.0,0.0,0.0,0.0,0.0,0.0,0.0,0.0,0.0,0.0,0.3107,0.346,0.3431,0.3431,0.3418,0.3393,0.3751,0.3838,0.3722,0.3842,0.3855,0.3826,0.0,0.3545,0.3307,0.3254,0.3062,0.2777,0.2756,0.2747,0.2747,0.2412,0.2076,0.1795,0.1795,0.1786,0.1769,0.1739,0.1548,0.1312,0.1288,0.1127,0.0927,0.0899,0.048,0.0,0.0,0.0,0.0,0.0,0.0,0.0,0.0,0.0,0.0,0.0,0.0224,0.0502,0.0822,0.114,0.1392,0.1669,0.165,0.1481,0.091,0.0858,0.0656,0.0202,-0.0403,-0.0957,-0.1411,-0.2015,-0.3022,-0.4684,-0.4755,-0.4649,-0.4516,-0.451,-0.451,-0.451,-0.451,-0.4603,-0.4835,-0.4737,-0.4662,-0.4616,-0.4882,-0.4879,0.4532,0.512,0.5765,0.6125,0.5451,0.4745,0.4773,0.4488,0.437,0.0,0.0,0.0,0.0,0.0,0.0,0.0,0.0,0.0,0.0,0.0,0.0,0.0,0.0,0.0,0.0,0.0,0.0,0.0,0.0,0.0,0.0,0.0,0.0,0.0,0.3598,0.3876,0.3829,0.3829,0.3829,0.3829,0.3876,0.3841,0.368,0.3726,0.374,0.3724,0.3677,0.3657,0.3653,0.3606,0.3587,0.3587,0.3587,0.3587,0.3531,0.3085,0.2636,0.2243,0.2243,0.2237,0.2225,0.2195,0.2047,0.1902,0.1883,0.1821,0.1719,0.1704,0.1072,0.0432,0.0445,0.0449,0.0449,0.0449,0.0449,0.0393,0.0224,0.0224,0.0168,0.0,0.0168,0.0391,0.0716,0.1096,0.1353,0.1576,0.1719,0.1754,0.1621,0.1617,0.1617,0.1617,0.0858,0.0252,0.0,-0.1008,-0.2318,-0.3927,-0.4459,-0.4667,-0.4625,-0.4621,-0.4561,-0.454,-0.454,-0.454,-0.454,-0.4449,-0.4233,-0.3991,-0.4435,-0.448,0.4435,0.4822,0.5167,0.5565,0.5954,0.6385,0.7002,0.6528,0.614,0.6867,0.0,0.0,0.0,0.0,0.0,0.0,0.0,0.0,0.0,0.0,0.0,0.0,0.0,0.0,0.0,0.0,0.0,0.0,0.0,0.0,0.0,0.0,0.0,0.0,0.0,0.3833,0.3829,0.3829,0.3829,0.3829,0.3833,0.3741,0.3679,0.3683,0.3654,0.36,0.3595,0.3594,0.3594,0.359,0.3587,0.3587,0.3587,0.3587,0.3587,0.3531,0.3531,0.3475,0.3475,0.344,0.3392,0.3388,0.2938,0.2449,0.2541,0.2154,0.1723,0.1784,0.1746,0.1644,0.1675,0.1683,0.1683,0.1683,0.1683,0.1514,0.0953,0.0841,0.0673,0.0112,0.0,0.0112,0.0392,0.0939,0.1304,0.1335,0.1731,0.1958,0.162,0.1617,0.1617,0.1617,0.1516,0.106,0.0101,-0.1008,-0.1664,-0.1815,-0.3615,-0.4667,-0.4625,-0.4621,-0.4532,-0.44,-0.4398,-0.4398,-0.4398,-0.4353,-0.4306,-0.4255,-0.43,-0.43,0.4133,0.4725,0.5327,0.5604,0.603,0.6484,0.6772,0.6522,0.6446,0.7258,0.6953,0.0,0.0,0.0,0.0,0.0,0.0,0.0,0.0,0.0,0.0,0.0,0.0,0.0,0.0,0.0,0.0,0.0,0.0,0.0,0.0,0.0,0.0,0.0,0.0,0.3676,0.3601,0.36,0.3582,0.3549,0.3659,0.3681,0.3621,0.3621,0.3609,0.3587,0.3587,0.3587,0.3587,0.3587,0.3587,0.3587,0.3587,0.3587,0.3587,0.3587,0.3587,0.3587,0.3587,0.3572,0.3553,0.3553,0.331,0.307,0.3123,0.2995,0.2757,0.2822,0.2863,0.2724,0.2016,0.1795,0.1795,0.1795,0.1795,0.1739,0.1514,0.1458,0.1402,0.1177,0.1121,0.1177,0.1458,0.1729,0.1934,0.2064,0.2477,0.2651,0.2423,0.2567,0.2554,0.2123,0.1818,0.1414,0.1009,0.0,-0.0605,-0.0605,-0.2602,-0.3757,-0.3684,-0.4362,-0.4694,-0.4606,-0.4608,-0.463,-0.452,-0.4542,-0.4465,-0.43,-0.4357,-0.4353,0.3944,0.4492,0.5104,0.5517,0.5891,0.6279,0.6712,0.663,0.6729,0.7628,0.7523,0.6946,0.0,0.0,0.0,0.0,0.0,0.0,0.0,0.0,0.0,0.0,0.0,0.0,0.0,0.0,0.0,0.0,0.0,0.0,0.0,0.0,0.0,0.0,0.0,0.0,0.3954,0.3631,0.345,0.3414,0.3537,0.3572,0.3531,0.3531,0.3542,0.3559,0.3559,0.357,0.3587,0.3587,0.3587,0.3587,0.3587,0.3587,0.3587,0.3587,0.3575,0.3561,0.358,0.3575,0.3561,0.358,0.3521,0.345,0.3507,0.3485,0.3447,0.3486,0.3541,0.3415,0.2563,0.2345,0.2355,0.2355,0.2355,0.2299,0.2132,0.2076,0.202,0.1851,0.1795,0.1851,0.202,0.2244,0.2398,0.2468,0.2842,0.3083,0.2942,0.3137,0.3114,0.2753,0.233,0.202,0.1869,0.116,0.0706,0.0504,-0.1209,-0.2297,-0.2597,-0.3668,-0.4256,-0.4179,-0.4524,-0.4694,-0.4621,-0.4606,-0.4526,-0.4342,-0.4377,-0.4359,0.392,0.4104,0.4393,0.5212,0.0,0.0,0.7188,0.719,0.7187,0.8089,0.8384,0.8438,0.835,0.0,0.0,0.0,0.0,0.0,0.0,0.0,0.0,0.0,0.0,0.0,0.0,0.0,0.0,0.0,0.0,0.0,0.0,0.0,0.0,0.0,0.0,0.0,0.499,0.3939,0.3412,0.341,0.341,0.3412,0.3413,0.3413,0.3443,0.3496,0.3496,0.353,0.3587,0.3587,0.3587,0.3587,0.3587,0.3587,0.3587,0.3587,0.3548,0.3504,0.3565,0.3546,0.3506,0.3567,0.3545,0.3507,0.357,0.3545,0.3496,0.3497,0.3541,0.3574,0.3514,0.3542,0.3587,0.3587,0.3587,0.3419,0.2862,0.2693,0.2525,0.1908,0.1795,0.1795,0.1795,0.23,0.2622,0.2249,0.2735,0.31,0.3045,0.2984,0.3122,0.3373,0.3264,0.2978,0.2472,0.2422,0.217,0.1667,0.0605,-0.045,-0.1423,-0.2498,-0.3057,-0.2996,-0.4047,-0.4575,-0.4573,-0.4483,-0.4392,-0.4388,-0.4344,-0.4302,0.3962,0.4368,0.0,0.5287,0.0,0.0,0.0,0.7264,0.0,0.0,0.8526,0.8469,0.0,0.0,0.0,0.0,0.0,0.0,0.0,0.0,0.0,0.0,0.0,0.0,0.0,0.0,0.0,0.0,0.0,0.0,0.0,0.0,0.0,0.0,0.0,0.0,0.6036,0.5728,0.5538,0.5519,0.5519,0.4773,0.3413,0.3413,0.3421,0.344,0.3478,0.3507,0.3526,0.357,0.3563,0.3527,0.3571,0.3561,0.3523,0.3523,0.3512,0.3493,0.3471,0.3478,0.3499,0.3518,0.3511,0.3507,0.357,0.3545,0.3506,0.3548,0.3574,0.3583,0.3565,0.3574,0.3587,0.3587,0.3587,0.3531,0.3365,0.3309,0.3251,0.3083,0.3083,0.3083,0.3083,0.3195,0.3302,0.3174,0.3506,0.3801,0.3904,0.3688,0.3579,0.3564,0.3429,0.3221,0.2981,0.2977,0.2877,0.2726,0.2068,0.1056,-0.04,-0.1499,-0.2043,-0.2032,-0.3071,-0.3594,-0.3545,-0.4306,-0.4653,-0.453,-0.4504,-0.4457,0.4028,0.4524,0.0,0.5765,0.6554,0.7228,0.7518,0.0,0.0,0.0,0.0,0.0,0.0,0.0,0.0,0.0,0.0,0.0,0.0,0.0,0.0,0.0,0.0,0.0,0.0,0.0,0.0,0.0,0.0,0.0,0.0,0.0,0.0,0.0,0.0,0.0,0.7092,0.6684,0.6443,0.6423,0.6423,0.5744,0.4581,0.4169,0.3717,0.3379,0.3437,0.3463,0.3466,0.3503,0.3496,0.3467,0.3503,0.3496,0.3463,0.3463,0.3463,0.3462,0.345,0.3467,0.35,0.3525,0.3533,0.354,0.3576,0.3561,0.3536,0.3548,0.3568,0.3582,0.3557,0.357,0.3587,0.3587,0.3587,0.3587,0.3587,0.3587,0.3587,0.3587,0.3587,0.3587,0.3587,0.3587,0.3587,0.3587,0.3813,0.4063,0.4144,0.4098,0.4016,0.4022,0.3929,0.3755,0.3537,0.3556,0.3459,0.3232,0.2876,0.2269,0.131,-0.0151,-0.0958,-0.0958,-0.2016,-0.2555,-0.2526,-0.3578,-0.4085,-0.3996,-0.4397,-0.4542,0.4168,0.0,0.0,0.6437,0.6971,0.0,0.8153,0.0,0.0,0.0,0.0,0.0,0.0,0.0,0.0,0.0,0.0,0.0,0.0,0.0,0.0,0.0,0.0,0.0,0.0,0.0,0.0,0.0,0.0,0.0,0.0,0.0,0.0,0.0,0.0,0.0,0.8124,0.717,0.6672,0.0,0.6672,0.6623,0.6523,0.5429,0.4376,0.3427,0.3484,0.3459,0.3413,0.3413,0.3409,0.3405,0.341,0.3409,0.3403,0.3403,0.3403,0.3412,0.3463,0.348,0.3491,0.3552,0.3571,0.3571,0.3571,0.3575,0.3567,0.3506,0.3537,0.3574,0.3512,0.3542,0.3587,0.3587,0.3587,0.3587,0.3587,0.3587,0.3587,0.3587,0.3587,0.3587,0.3587,0.3587,0.3585,0.3579,0.3799,0.3964,0.3964,0.4123,0.4355,0.4563,0.4607,0.4428,0.409,0.4148,0.3954,0.3384,0.3281,0.3281,0.3281,0.1361,0.0302,0.0302,-0.0756,-0.131,-0.1361,-0.2377,-0.2944,-0.3139,-0.4044,-0.4536,0.4566,0.4866,0.0,0.0,0.7669,0.8509,0.0,0.0,0.0,0.0,0.0,0.0,0.0,0.0,0.0,0.0,0.0,0.0,0.0,0.0,0.0,0.0,0.0,0.0,0.0,0.0,0.0,0.0,0.0,0.0,0.0,0.0,0.0,0.0,0.0,0.9274,0.9274,0.9023,0.8924,0.0,0.8924,0.8474,0.7624,0.6526,0.5533,0.4551,0.457,0.4149,0.3413,0.3413,0.3384,0.3346,0.3394,0.3383,0.3341,0.3341,0.3341,0.3342,0.3356,0.336,0.3369,0.3429,0.345,0.345,0.345,0.3481,0.3504,0.3447,0.3506,0.3574,0.3512,0.3542,0.3587,0.3587,0.3587,0.3587,0.3587,0.3587,0.3587,0.3587,0.3587,0.3587,0.3587,0.3587,0.3571,0.3523,0.3533,0.3505,0.3505,0.3754,0.3909,0.3907,0.4155,0.4272,0.4293,0.4353,0.4405,0.4435,0.4083,0.3831,0.3831,0.2976,0.2522,0.2522,0.146,0.0705,0.0302,-0.0802,-0.195,-0.3203,-0.3339,-0.3895,0.488,0.0,0.0,0.7243,0.0,0.0,0.0,0.0,0.0,0.0,0.0,0.0,0.0,0.0,0.0,0.0,0.0,0.0,0.0,0.0,0.0,0.0,0.0,0.0,0.0,0.0,0.0,0.0,0.0,0.0,0.0,0.0,0.0,0.0,0.9579,0.9579,0.9579,0.9579,0.9579,0.9579,0.9579,0.9327,0.8722,0.7123,0.6105,0.5604,0.5604,0.5333,0.4816,0.4816,0.4536,0.4096,0.4646,0.4484,0.4041,0.4041,0.4063,0.3988,0.3476,0.3341,0.3371,0.3402,0.3431,0.3447,0.3421,0.3451,0.3491,0.3461,0.3496,0.3544,0.3541,0.3564,0.3587,0.3587,0.3587,0.3587,0.3587,0.3587,0.3587,0.3587,0.3587,0.3587,0.3587,0.3587,0.3576,0.3545,0.3515,0.3496,0.3496,0.3578,0.3625,0.3728,0.3907,0.4065,0.4192,0.4373,0.4532,0.4589,0.4485,0.4383,0.4383,0.4133,0.3732,0.323,0.2672,0.2168,0.1765,0.0704,-0.0352,-0.1309,-0.2443,-0.3275,0.5086,0.0,0.6145,0.7837,0.8755,0.0,0.0,0.0,0.0,0.0,0.0,0.0,0.0,0.0,0.0,0.0,0.0,0.0,0.0,0.0,0.0,0.0,0.0,0.0,0.0,0.0,0.0,0.0,0.0,0.0,0.0,0.0,0.9529,0.9579,0.9596,0.9579,0.9579,0.9551,0.9535,0.9535,0.9535,0.9567,0.9525,0.7743,0.6851,0.6672,0.6672,0.6573,0.6423,0.6423,0.5877,0.5181,0.6074,0.5877,0.5083,0.5083,0.513,0.5043,0.4138,0.3866,0.3909,0.3987,0.4014,0.398,0.3792,0.3704,0.3684,0.3533,0.3489,0.3508,0.3559,0.3579,0.3587,0.3587,0.3587,0.3587,0.3587,0.3587,0.3587,0.3587,0.3587,0.3587,0.3587,0.3587,0.3583,0.3574,0.3572,0.3572,0.3572,0.3469,0.3452,0.3726,0.371,0.3743,0.3939,0.4247,0.4411,0.4394,0.4587,0.4734,0.4784,0.4784,0.4383,0.3481,0.3482,0.3279,0.2925,0.2064,0.1359,0.0756,-0.1258,-0.2366,0.0,0.0,0.6857,0.0,0.8475,0.0,0.0,0.0,0.0,0.0,0.0,0.0,0.0,0.0,0.0,0.0,0.0,0.0,0.0,0.0,0.0,0.0,0.0,0.0,0.0,0.0,0.0,0.0,0.0,0.0,0.0,0.9151,0.9381,0.9579,0.9474,0.9437,0.9437,0.9242,0.9169,0.9169,0.9169,0.9328,0.9575,0.9166,0.8537,0.7773,0.7773,0.7273,0.6423,0.6423,0.6323,0.6224,0.6323,0.6323,0.6174,0.6174,0.6184,0.621,0.6108,0.6037,0.6053,0.625,0.6192,0.5872,0.516,0.4843,0.4547,0.3672,0.3459,0.3499,0.3506,0.3548,0.3587,0.3587,0.3587,0.3587,0.3587,0.3587,0.3587,0.3587,0.3587,0.3587,0.3587,0.3587,0.357,0.3516,0.3508,0.3508,0.3508,0.3406,0.3354,0.3459,0.3361,0.339,0.3636,0.3695,0.3949,0.4388,0.4438,0.4537,0.4784,0.4784,0.4734,0.4583,0.4583,0.4232,0.3478,0.3325,0.2417,0.0806,0.0453,-0.0655,0.5488,0.5977,0.6764,0.0,0.0,0.0,0.0,0.0,0.0,0.0,0.0,0.0,0.0,0.0,0.0,0.0,0.0,0.0,0.0,0.0,0.0,0.0,0.0,0.0,0.0,0.0,0.0,0.0,0.0,0.0,0.8452,0.8615,0.8844,0.908,0.9052,0.9064,0.921,0.9137,0.9096,0.9096,0.9096,0.9181,0.9328,0.9246,0.912,0.8874,0.8874,0.8623,0.8173,0.8173,0.7822,0.7372,0.7971,0.7822,0.7273,0.7273,0.7273,0.7229,0.6634,0.6416,0.6439,0.6548,0.6505,0.638,0.6009,0.5823,0.5585,0.4546,0.4266,0.4143,0.36,0.3493,0.3537,0.3537,0.3563,0.3587,0.3587,0.3587,0.3587,0.3587,0.3587,0.3587,0.3587,0.3587,0.3578,0.3552,0.3548,0.3536,0.35,0.3424,0.3369,0.3362,0.3283,0.323,0.3383,0.3534,0.3687,0.3937,0.4237,0.4438,0.4587,0.4736,0.4784,0.4784,0.4784,0.4533,0.4033,0.4033,0.3528,0.2569,0.1662,0.0755,0.0,0.0,0.6521,0.0,0.0,0.0,0.0,0.0,0.0,0.0,0.0,0.0,0.0,0.0,0.0,0.0,0.0,0.0,0.0,0.0,0.0,0.0,0.0,0.0,0.0,0.0,0.0,0.0,0.0,0.0,0.7955,0.8178,0.8387,0.8617,0.8621,0.8745,0.8938,0.8986,0.8986,0.9027,0.8982,0.9031,0.9161,0.9116,0.9267,0.9559,0.9559,0.9559,0.9563,0.9608,0.9126,0.8474,0.9278,0.9126,0.8425,0.8425,0.8425,0.8273,0.7471,0.7223,0.7226,0.726,0.7267,0.7217,0.6979,0.6889,0.6672,0.5601,0.5339,0.5136,0.4395,0.4243,0.4287,0.4361,0.4189,0.3901,0.3639,0.3587,0.3587,0.3587,0.3587,0.3587,0.3587,0.3587,0.3587,0.3587,0.3574,0.3548,0.3501,0.3433,0.3372,0.3326,0.3216,0.318,0.318,0.3383,0.3534,0.3586,0.3987,0.4237,0.4388,0.4585,0.4736,0.4784,0.4784,0.4686,0.4388,0.4388,0.4286,0.3982,0.277,0.2013,0.0,0.6479,0.0,0.0,0.0,0.0,0.0,0.0,0.0,0.0,0.0,0.0,0.0,0.0,0.0,0.0,0.0,0.0,0.0,0.0,0.0,0.0,0.0,0.0,0.0,0.0,0.0,0.0,0.0,0.0,0.7791,0.7934,0.8157,0.8387,0.8467,0.8522,0.8522,0.8589,0.8674,0.8832,0.867,0.8902,0.9384,0.9173,0.9198,0.9416,0.9416,0.9416,0.9429,0.9555,0.9579,0.9529,0.9579,0.9579,0.9525,0.9525,0.9525,0.9525,0.9476,0.9426,0.9454,0.9664,0.9612,0.9299,0.8526,0.8102,0.7742,0.6763,0.6484,0.6424,0.644,0.6421,0.6505,0.667,0.5834,0.4773,0.3797,0.3587,0.3587,0.3587,0.3587,0.3587,0.3587,0.3587,0.3587,0.3587,0.3538,0.35,0.3497,0.3397,0.3324,0.3322,0.3216,0.318,0.318,0.323,0.3332,0.3586,0.3636,0.3887,0.4388,0.4388,0.4537,0.4784,0.4784,0.4686,0.4388,0.4388,0.4286,0.3982,0.3932,0.3176,0.0,0.0,0.0,0.0,0.0,0.0,0.0,0.0,0.0,0.0,0.0,0.0,0.0,0.0,0.0,0.0,0.0,0.0,0.0,0.0,0.0,0.0,0.0,0.0,0.0,0.0,0.0,0.0,0.0,0.0,0.7801,0.8026,0.8319,0.8702,0.8731,0.8831,0.9008,0.9161,0.9248,0.931,0.942,0.9588,0.9786,0.9719,0.9723,0.9804,1.006,1.0047,0.9892,1.0427,1.0605,1.0605,1.0605,1.0605,1.0605,1.0605,1.0605,1.0605,1.0605,1.0605,1.0618,1.0686,1.0713,1.0609,1.0458,1.0336,1.005,0.9002,0.8685,0.8475,0.7715,0.7514,0.7538,0.7449,0.7179,0.6533,0.5085,0.4145,0.3587,0.3587,0.3587,0.3587,0.3587,0.3587,0.3587,0.3587,0.3536,0.3496,0.3496,0.3394,0.3322,0.3322,0.3216,0.318,0.318,0.318,0.323,0.3332,0.3484,0.3685,0.3887,0.4034,0.4185,0.4282,0.4282,0.4435,0.4636,0.4636,0.4585,0.4485,0.4336,0.3629,0.7087,0.0,0.0,0.0,0.0,0.0,0.0,0.0,0.0,0.0,0.0,0.0,0.0,0.0,0.0,0.0,0.0,0.0,0.0,0.0,0.0,0.0,0.0,0.0,0.0,0.0,0.0,0.0,0.0,0.0,0.7806,0.8001,0.8294,0.8678,0.8848,0.8969,0.9161,0.9396,0.9515,0.9515,0.9577,0.9701,0.9835,0.9765,0.9814,0.9995,1.0499,1.0529,1.0324,1.0935,1.1194,1.1194,1.1194,1.1194,1.1194,1.1194,1.1194,1.1194,1.1194,1.1194,1.1194,1.1096,1.1145,1.1217,1.1255,1.1389,1.134,1.0626,1.0522,1.0387,0.9543,0.938,0.9305,0.8735,0.8733,0.8452,0.6914,0.531,0.4089,0.3699,0.3587,0.3587,0.3587,0.3587,0.3587,0.3587,0.3536,0.3489,0.347,0.3383,0.3313,0.3293,0.3204,0.318,0.318,0.318,0.318,0.318,0.3383,0.3484,0.3586,0.3784,0.3883,0.3982,0.3982,0.4183,0.4533,0.4533,0.4533,0.4533,0.4336,0.3478,0.0,0.0,0.0,0.0,0.0,0.0,0.0,0.0,0.0,0.0,0.0,0.0,0.0,0.0,0.0,0.0,0.0,0.0,0.0,0.0,0.0,0.0,0.0,0.0,0.0,0.0,0.0,0.0,0.0,0.7922,0.7926,0.7926,0.8053,0.8312,0.8704,0.8931,0.8907,0.9191,0.934,0.9336,0.9051,0.9161,0.9538,0.9336,0.9486,0.9971,1.0604,1.0806,1.0645,1.1067,1.1243,1.1243,1.1243,1.1243,1.1243,1.1243,1.1243,1.1243,1.1243,1.1243,1.1194,1.0949,1.1047,1.1194,1.0958,1.1191,1.1546,1.1546,1.1698,1.1916,1.1911,1.2059,1.1884,1.0703,1.0621,1.0425,0.9157,0.713,0.5148,0.3921,0.3699,0.3699,0.3643,0.3643,0.3643,0.3643,0.3536,0.3477,0.3424,0.3361,0.33,0.3191,0.3183,0.318,0.318,0.318,0.318,0.318,0.318,0.3332,0.3586,0.3586,0.3736,0.3982,0.3982,0.3982,0.3982,0.3982,0.3982,0.3982,0.3982,0.2822,0.7628,0.0,0.0,0.0,0.0,0.0,0.0,0.0,0.0,0.0,0.0,0.0,0.0,0.0,0.0,0.0,0.0,0.0,0.0,0.0,0.0,0.0,0.0,0.0,0.0,0.0,0.0,0.0,0.8092,0.8237,0.8418,0.8709,0.8955,0.9041,0.9147,0.9179,0.9202,0.9583,0.9814,0.9814,0.9879,1.0075,1.0382,1.0124,1.0181,1.0489,1.082,1.0955,1.094,1.1537,1.1883,1.2078,1.2078,1.2175,1.237,1.237,1.237,1.237,1.237,1.237,1.237,1.2273,1.2322,1.2353,1.2459,1.2403,1.2349,1.2349,1.2304,1.2173,1.2009,1.2274,1.2333,1.142,1.1626,1.1492,0.9712,0.8941,0.8082,0.6473,0.6142,0.5864,0.5037,0.4536,0.4257,0.4257,0.3811,0.3507,0.3536,0.3412,0.3332,0.336,0.3283,0.318,0.318,0.318,0.318,0.318,0.318,0.323,0.3331,0.3332,0.3331,0.343,0.343,0.343,0.343,0.3831,0.3982,0.3982,0.3228,0.2421,0.0,0.0,0.0,0.0,0.0,0.0,0.0,0.7779,0.0,0.0,0.0,0.0,0.0,0.0,0.0,0.0,0.0,0.0,0.0,0.0,0.0,0.0,0.0,0.0,0.0,0.0,0.0,0.0,0.8361,0.8504,0.8626,0.8987,0.9117,0.9067,0.9192,0.9244,0.9159,0.9531,0.9768,0.9812,0.9888,1.0085,1.0419,1.0121,1.0179,1.0526,1.0667,1.0766,1.0845,1.1266,1.171,1.2143,1.2334,1.2521,1.2667,1.2764,1.2813,1.2813,1.2813,1.2813,1.2759,1.2662,1.271,1.2786,1.2822,1.283,1.2854,1.2854,1.2732,1.2633,1.2494,1.2606,1.2597,1.21,1.2356,1.238,1.1203,1.114,1.0503,0.7965,0.708,0.6586,0.6035,0.526,0.4648,0.4648,0.4332,0.409,0.4101,0.3999,0.3865,0.3743,0.3672,0.3512,0.3233,0.318,0.318,0.318,0.318,0.318,0.318,0.318,0.318,0.318,0.318,0.318,0.318,0.3531,0.3682,0.3632,0.3026,0.2472,0.0,0.0,0.0,0.0,0.0,0.0,0.8616,0.8983,0.0,0.0,0.0,0.0,0.0,0.0,0.0,0.0,0.0,0.0,0.0,0.0,0.0,0.0,0.0,0.0,0.0,0.0,0.8633,0.8633,0.8656,0.868,0.8703,0.8883,0.8902,0.8708,0.9063,0.9131,0.8952,0.915,0.9357,0.9569,0.9376,0.9545,0.9985,0.9738,0.9843,1.026,1.0287,1.0369,1.0562,1.0548,1.101,1.1677,1.2111,1.2301,1.237,1.2613,1.271,1.271,1.271,1.2716,1.2716,1.2467,1.2565,1.2764,1.2516,1.2708,1.3016,1.2966,1.2976,1.2986,1.2986,1.2833,1.2679,1.2628,1.2811,1.2926,1.2906,1.3049,1.2231,0.9092,0.7622,0.6916,0.7033,0.6093,0.5318,0.515,0.5094,0.5012,0.4773,0.4811,0.4642,0.429,0.4261,0.4071,0.3456,0.3396,0.3341,0.329,0.329,0.3237,0.318,0.318,0.318,0.318,0.318,0.318,0.318,0.318,0.318,0.318,0.318,0.2826,0.0,0.0,0.0,0.0,0.0,0.0,0.8092,0.8231,0.0,0.0,0.0,0.0,0.0,0.0,0.0,0.0,0.0,0.0,0.0,0.0,0.0,0.0,0.0,0.0,0.0,0.0,0.8203,0.8203,0.8363,0.8533,0.8694,0.8741,0.8746,0.8703,0.8779,0.8803,0.8765,0.8978,0.9145,0.9343,0.9301,0.9545,0.9985,0.9738,0.9757,1.0038,1.0037,1.0056,1.0119,1.0289,1.074,1.1377,1.1464,1.1732,1.2078,1.2127,1.2175,1.2175,1.2175,1.2322,1.2467,1.2419,1.2565,1.2813,1.2764,1.2645,1.2487,1.2286,1.2224,1.221,1.221,1.2358,1.2407,1.2205,1.2415,1.2555,1.2181,1.2244,1.2142,1.1438,1.0908,1.0292,0.9354,0.8575,0.7802,0.6808,0.6308,0.5693,0.4682,0.468,0.4792,0.4707,0.4796,0.484,0.4791,0.452,0.4226,0.4022,0.3816,0.3535,0.3233,0.318,0.318,0.318,0.318,0.318,0.318,0.318,0.318,0.318,0.318,0.313,0.0,0.0,0.0,0.9084,0.0,0.0,0.0,0.8261,0.8327,0.0,0.0,0.0,0.0,0.0,0.0,0.0,0.0,0.0,0.0,0.0,0.0,0.0,0.0,0.0,0.0,0.0,0.8115,0.8115,0.8179,0.8288,0.8387,0.8496,0.8552,0.8552,0.8647,0.8703,0.8703,0.8807,0.9015,0.9282,0.9282,0.9545,0.9994,0.9842,0.9856,0.9994,0.9994,0.9994,1.0004,1.0113,1.0391,1.084,1.1147,1.1436,1.1689,1.1891,1.198,1.198,1.198,1.2078,1.2224,1.2224,1.2273,1.2419,1.2419,1.2419,1.237,1.2224,1.2224,1.2224,1.2224,1.2224,1.2175,1.2029,1.2238,1.2384,1.2125,1.2177,1.2278,1.2271,1.2099,1.1673,1.0629,0.9743,0.8965,0.8361,0.8026,0.7418,0.6202,0.616,0.5889,0.5138,0.511,0.5055,0.4792,0.4539,0.4445,0.4405,0.4298,0.416,0.3986,0.3982,0.3883,0.3581,0.3331,0.318,0.318,0.318,0.318,0.318,0.318,0.318,0.0,0.0,0.0,0.0,0.0,0.9281,0.0,0.0,0.0,0.8564,0.0,0.0,0.0,0.0,0.0,0.0,0.0,0.0,0.0,0.0,0.0,0.0,0.0,0.0,0.0,0.0,0.8107,0.8049,0.8159,0.8178,0.811,0.8245,0.8359,0.8401,0.8557,0.8661,0.8703,0.8703,0.8892,0.9225,0.9263,0.9526,0.9937,0.9975,0.9994,0.9994,0.9994,0.9994,0.9994,0.9994,1.0099,1.0293,1.0859,1.1156,1.1249,1.1661,1.1799,1.1834,1.1834,1.1883,1.1932,1.1932,1.198,1.198,1.198,1.2175,1.2322,1.2322,1.2322,1.2322,1.2322,1.2224,1.2078,1.2078,1.2207,1.2375,1.2235,1.2366,1.2452,1.2388,1.2372,1.213,1.1442,1.0574,0.9911,0.9691,0.9633,0.9192,0.8033,0.7922,0.739,0.5877,0.5798,0.5491,0.4738,0.4598,0.4603,0.4688,0.4667,0.4621,0.4638,0.4634,0.4483,0.4085,0.3632,0.3482,0.3531,0.338,0.3281,0.318,0.318,0.318,0.0,0.0,0.0,0.0,0.9938,0.0,0.0,0.0,0.8848,0.7997,0.0,0.0,0.0,0.0,0.0,0.0,0.0,0.0,0.0,0.0,0.0,0.0,0.0,0.0,0.0,0.0,0.0,0.7855,0.839,0.854,0.8106,0.8139,0.8203,0.8396,0.8425,0.8524,0.8699,0.8703,0.8822,0.9018,0.9197,0.9409,0.9644,0.9909,0.9994,0.9994,0.9994,0.9994,0.9994,0.9994,1.0009,1.0056,1.0298,1.0616,1.0948,1.1015,1.1139,1.1292,1.1292,1.1438,1.1639,1.1639,1.1834,1.198,1.198,1.2024,1.2029,1.2029,1.2029,1.2029,1.2029,1.2224,1.237,1.237,1.2503,1.258,1.2355,1.2329,1.2308,1.2265,1.22,1.2216,1.2267,1.2164,1.1723,1.0672,1.0562,1.012,0.8906,0.9023,0.8692,0.7462,0.7474,0.7179,0.6174,0.5636,0.532,0.5147,0.4812,0.4422,0.4086,0.4083,0.4183,0.4338,0.4288,0.4386,0.4634,0.4133,0.3682,0.318,0.318,0.318,0.0,0.0,0.0,0.0,0.0,0.0,0.0,0.0,0.8657,0.0,0.0,0.0,0.0,0.0,0.0,0.0,0.0,0.0,0.0,0.0,0.0,0.0,0.0,0.0,0.0,0.0,0.0,0.0,0.0,0.7921,0.7598,0.7811,0.8004,0.8207,0.834,0.85,0.8699,0.8703,0.8812,0.8985,0.9188,0.9395,0.9611,0.9856,0.9994,0.9994,0.9994,0.9994,0.9994,0.9994,1.007,1.018,1.0146,1.0388,1.0726,1.0849,1.1023,1.1194,1.1194,1.1292,1.1389,1.1389,1.1438,1.1541,1.1541,1.1634,1.1785,1.1785,1.1883,1.198,1.198,1.2078,1.2224,1.237,1.2448,1.2509,1.2549,1.2521,1.2475,1.2382,1.236,1.234,1.2408,1.2387,1.2219,1.1773,1.1669,1.1278,1.0065,1.0069,0.9684,0.8468,0.775,0.7211,0.672,0.5826,0.5299,0.5298,0.5307,0.5212,0.5069,0.4759,0.466,0.4765,0.461,0.4534,0.4587,0.4485,0.4334,0.4133,0.3481,0.318,1.1316,0.0,0.0,0.0,0.0,0.0,0.0,0.0,0.0,0.0,0.0,0.0,0.0,0.0,0.0,0.0,0.0,0.0,0.0,0.0,0.0,0.0,0.0,0.0,0.0,0.0,0.0,0.0,0.8034,0.7828,0.7223,0.7692,0.801,0.8106,0.8231,0.8439,0.8699,0.8703,0.8779,0.894,0.9159,0.9366,0.9526,0.9871,0.9994,0.9994,0.9994,0.9994,0.9994,0.9994,1.0089,1.0217,1.0123,1.0303,1.064,1.0749,1.0972,1.1194,1.1194,1.1194,1.1194,1.1194,1.1194,1.1194,1.1194,1.1345,1.1487,1.1487,1.1634,1.178,1.178,1.1834,1.1932,1.2127,1.2224,1.2356,1.25,1.2542,1.2516,1.2499,1.2476,1.2446,1.2454,1.2403,1.2387,1.2387,1.2387,1.2105,1.1278,1.1168,1.0726,0.9512,0.8542,0.7723,0.7076,0.6134,0.5477,0.5252,0.5446,0.562,0.5592,0.5269,0.5118,0.513,0.492,0.4773,0.4738,0.4784,0.4834,0.4885,0.4033,0.3632,0.0,0.0,0.0,1.0982,0.0,0.0,0.0,0.0,0.8686,0.0,0.0,0.0,0.0,0.0,0.7789,0.7789,0.0,0.0,0.0,0.0,0.0,0.0,0.0,0.0,0.0,0.0,0.0,0.7491,0.8743,0.8856,0.7273,0.7995,0.8351,0.8101,0.812,0.8288,0.8699,0.8703,0.8703,0.8718,0.9129,0.9286,0.9305,0.9805,0.9994,0.9994,0.9994,0.9994,0.9994,0.9994,0.9999,1.0023,1.0227,1.0436,1.0621,1.0626,1.0844,1.1194,1.1194,1.1194,1.1194,1.1194,1.1194,1.1194,1.1194,1.1194,1.1194,1.1194,1.1198,1.1243,1.1243,1.1443,1.159,1.1634,1.1829,1.2053,1.2179,1.2299,1.2396,1.2493,1.2554,1.2583,1.2486,1.2416,1.2387,1.2387,1.2387,1.2382,1.2327,1.2327,1.1887,1.0781,1.0613,0.9618,0.7313,0.6929,0.6274,0.4901,0.5006,0.5118,0.5027,0.5059,0.5172,0.539,0.5388,0.544,0.5536,0.5035,0.4937,0.519,0.4885,0.4734,0.0,0.0,1.2445,1.2058,0.0,0.0,0.0,0.0,0.0,0.0,0.0,0.0,0.0,0.0,0.8481,0.8357,0.8274,0.8146,0.0,0.0,0.0,0.0,0.0,0.0,0.0,0.0,0.0,0.756,0.8087,0.7914,0.0,0.7636,0.8091,0.7902,0.8044,0.8278,0.8699,0.8703,0.8703,0.8703,0.8992,0.9155,0.9291,0.962,0.9823,0.9994,0.9994,0.9994,0.9994,0.9994,1.0156,1.0403,1.0341,1.0611,1.0967,1.0834,1.0962,1.1194,1.1194,1.1194,1.1194,1.1194,1.1194,1.1194,1.1194,1.1194,1.1194,1.1194,1.1194,1.1194,1.1194,1.1292,1.1389,1.1536,1.1747,1.1959,1.2054,1.2164,1.2243,1.2123,1.2205,1.2264,1.2235,1.2355,1.2446,1.2417,1.2387,1.2387,1.2387,1.2387,1.2281,1.1926,1.1089,1.0283,0.9477,0.7893,0.6338,0.5072,0.5077,0.513,0.5153,0.5241,0.5272,0.5225,0.538,0.5406,0.5338,0.5336,0.5386,0.5486,0.5386,0.5135,1.3831,1.3485,0.0,1.271,1.2017,0.0,1.113,0.0,0.0,0.0,0.0,0.0,0.0,0.0,0.9066,0.8686,0.8535,0.8382,0.0,0.8152,0.0,0.0,0.0,0.0,0.0,0.0,0.7639,0.7336,0.7792,0.7722,0.0,0.0,0.8421,0.8093,0.825,0.8423,0.8585,0.8589,0.8589,0.8594,0.8952,0.9159,0.9291,0.9625,0.9828,0.9994,0.9994,0.9994,0.9994,0.9994,1.0198,1.0507,1.045,1.0669,1.1071,1.0943,1.1023,1.1194,1.1194,1.1194,1.1194,1.1194,1.1194,1.1194,1.1194,1.1194,1.1194,1.1194,1.1194,1.1194,1.1194,1.1194,1.1243,1.1443,1.1549,1.1686,1.1821,1.1909,1.1955,1.1873,1.1939,1.2045,1.2011,1.213,1.2279,1.2398,1.2434,1.2415,1.2377,1.2429,1.2441,1.2525,1.1737,1.1054,1.0616,0.8352,0.6653,0.5851,0.5495,0.5376,0.5418,0.5429,0.5385,0.5264,0.5339,0.5315,0.519,0.5271,0.5386,0.5438,0.5438,0.5336]}]]